GFSSGP_925_thetae_000.txt.gz
Theta_e
321 331 337 338 341 335 336 335 331 330 328 325 323 323 323 321 321 321 326 328 329 328 330 333 328 328 329 329 329 324 324 330 332 330 329 328 327 324 325 327 329 331 332 333 334 333 333 336 336
334 337 336 338 339 338 335 331 331 329 326 323 322 321 321 321 321 322 324 327 328 327 330 329 331 330 329 327 325 323 327 329 333 332 331 330 328 327 326 327 328 330 331 332 333 333 333 336 336
333 333 339 338 336 336 334 331 329 326 324 324 323 322 322 323 323 323 324 326 326 326 325 326 322 323 323 325 328 326 327 328 331 333 332 331 330 329 328 328 329 329 330 332 332 334 333 333 336
333 335 335 337 336 333 330 329 328 326 323 323 323 322 323 323 324 324 324 324 323 322 322 324 321 322 328 329 329 330 328 328 330 331 331 330 331 330 329 328 328 328 329 331 332 332 333 333 336
333 334 336 336 334 332 330 329 326 326 325 324 321 323 324 324 323 323 322 321 321 321 322 323 325 320 325 325 333 332 330 331 330 331 330 329 329 329 329 329 328 327 328 328 330 332 332 333 333
334 333 335 334 334 332 331 328 325 325 325 322 321 322 324 324 323 322 322 323 323 322 326 326 325 320 320 323 330 331 330 330 329 328 328 328 328 328 329 329 328 328 327 327 327 330 332 331 332
333 333 334 333 333 332 329 325 324 324 324 323 322 322 324 324 322 322 321 320 321 321 320 321 322 323 320 320 324 326 324 321 322 324 326 327 327 328 328 328 328 328 327 328 327 327 332 329 330
332 332 332 333 333 332 329 325 323 323 323 321 322 322 323 325 321 320 319 319 319 319 319 320 320 319 322 323 323 319 319 320 322 324 325 326 327 325 327 328 326 327 328 327 327 326 330 331 329
330 330 330 331 331 331 330 327 324 322 322 322 322 323 322 321 319 319 320 320 320 319 319 320 320 322 324 323 323 323 324 323 323 323 323 323 324 325 327 327 327 327 326 327 327 327 331 332 329
329 328 328 329 330 331 330 328 327 323 323 322 322 321 319 319 319 321 321 321 320 320 319 318 323 323 323 323 324 325 325 323 322 322 322 323 324 325 324 325 325 325 326 327 327 328 331 331 331
327 327 326 327 329 328 328 327 325 324 324 324 323 323 321 320 320 321 320 320 320 321 318 318 323 324 324 324 325 324 325 324 323 323 324 323 323 324 324 323 323 324 325 326 326 324 327 330 331
327 325 326 327 328 326 326 326 324 323 324 323 323 323 323 322 323 321 321 320 321 319 319 323 324 325 325 325 325 325 325 324 324 324 323 324 324 324 324 324 322 324 325 326 327 325 329 331 332
326 325 326 327 326 324 324 324 323 323 323 322 322 322 323 323 322 321 321 321 321 319 325 326 325 326 326 326 325 326 326 325 324 324 323 324 324 325 323 323 323 324 325 326 328 327 329 331 332
326 326 326 326 324 323 323 324 321 324 323 323 322 323 323 322 322 321 322 322 322 320 327 325 326 328 327 327 327 327 327 326 324 323 323 325 325 324 324 322 323 324 325 326 327 327 328 331 331
327 326 326 325 323 323 322 324 323 324 323 323 323 323 322 323 321 321 322 323 321 322 326 325 326 327 328 328 328 327 327 327 326 325 325 325 325 325 325 324 322 323 325 326 327 328 330 330 330
325 325 327 327 323 322 322 325 324 324 323 324 324 323 322 322 321 321 322 323 321 325 325 325 326 327 328 328 328 328 328 328 327 326 326 326 326 326 326 326 326 326 327 327 327 328 328 329 330
327 327 327 328 325 324 323 326 325 324 323 324 324 324 323 323 322 321 323 323 320 323 324 324 326 327 327 327 327 328 328 328 328 326 325 326 327 327 327 327 327 327 327 328 328 327 327 329 330
328 327 326 328 326 324 325 326 324 324 324 325 325 325 323 323 323 322 324 322 321 323 325 324 326 327 327 328 328 327 328 329 327 324 319 324 326 327 328 328 327 327 326 327 328 329 328 328 330
326 326 327 327 326 325 327 327 325 324 324 325 325 326 325 324 323 323 324 322 321 323 325 326 325 326 324 327 329 328 329 328 328 323 323 323 325 327 328 328 327 326 327 327 328 329 329 330 331
326 328 328 327 326 326 326 325 325 325 324 325 326 327 325 325 324 324 324 323 321 321 323 326 325 324 323 327 329 329 329 327 325 324 325 324 323 327 328 328 327 327 326 328 328 329 330 331 332
327 328 328 328 327 325 325 325 325 325 324 325 325 326 326 326 325 325 325 323 321 321 323 324 325 324 325 329 328 330 331 328 329 326 327 325 325 326 327 327 327 327 326 328 329 330 331 332 333
327 326 326 326 326 326 326 328 325 325 324 325 327 326 326 325 325 326 325 323 321 322 323 324 325 325 326 328 327 329 330 329 329 330 328 327 326 324 327 328 328 328 327 330 330 331 331 331 333
325 325 326 326 326 326 326 327 325 324 324 323 323 327 327 325 325 326 326 323 320 322 322 325 327 325 329 328 327 326 329 331 330 330 330 329 329 328 328 328 329 329 330 331 331 332 331 332 331
324 325 325 325 325 328 325 325 323 322 323 323 324 328 328 325 324 325 324 322 320 322 322 324 327 324 327 328 328 327 326 328 329 330 329 328 329 330 329 327 327 330 331 331 330 331 332 333 333
325 326 328 329 328 327 325 323 323 323 323 324 325 326 328 325 324 325 325 323 321 322 322 324 325 324 323 326 327 326 327 328 330 329 328 329 327 329 328 327 329 329 331 331 331 331 333 333 330
325 327 327 328 329 327 325 324 323 323 325 328 329 330 328 325 325 325 325 323 321 321 323 324 324 323 322 324 325 325 326 325 327 331 327 324 328 326 327 327 329 330 330 331 332 332 332 330 330
325 326 325 327 326 327 325 325 325 324 326 329 330 330 328 326 325 325 325 323 320 321 324 325 325 322 322 322 324 324 324 325 327 332 331 330 328 328 329 329 327 330 331 329 332 332 332 331 328
325 325 326 326 329 329 325 325 324 324 328 334 332 330 328 326 325 325 326 323 320 321 323 326 326 322 323 321 322 322 323 324 327 329 328 329 328 327 326 328 330 330 331 332 332 331 332 331 330
324 326 326 326 326 328 329 326 326 325 331 334 334 331 328 327 325 326 326 323 320 321 323 325 327 324 320 321 322 323 322 323 325 325 326 327 325 326 327 327 327 328 329 329 333 332 330 330 328
325 324 327 327 328 326 326 326 326 327 332 334 335 331 328 327 326 326 326 322 320 322 322 324 326 323 318 319 321 322 321 323 323 325 326 327 329 328 327 327 328 328 327 327 331 332 332 332 331

GFSSGP_925_thetae_003.txt.gz
Theta_e
311 322 335 340 343 337 337 337 334 331 331 329 328 327 325 324 324 325 326 327 327 328 331 335 329 327 329 330 330 331 333 338 339 336 332 331 330 329 327 327 327 328 330 331 332 335 335 334 337
328 336 338 342 340 339 337 334 332 331 330 328 327 326 325 325 323 323 325 328 327 328 332 332 335 325 326 330 332 331 337 339 338 337 334 333 332 331 329 329 329 328 329 330 331 333 334 335 337
336 337 339 341 340 338 335 332 331 330 328 327 327 325 325 326 324 323 327 329 328 328 329 331 328 326 330 333 332 326 327 330 335 334 334 334 333 333 332 331 330 330 328 330 331 333 335 334 335
335 337 337 335 336 336 333 330 330 329 328 327 326 325 326 326 325 325 326 326 326 325 324 327 325 323 323 332 339 334 332 334 334 332 331 332 332 332 332 332 331 330 328 329 332 334 334 335 334
334 335 338 337 336 334 332 331 329 327 328 326 325 325 326 327 326 326 325 325 324 324 323 324 326 324 320 328 340 337 337 335 334 333 333 333 331 331 331 331 331 330 330 327 329 331 334 334 334
334 334 335 336 333 334 332 329 327 327 326 326 325 325 325 327 326 326 325 325 325 324 325 326 327 324 320 326 330 332 331 331 331 330 330 330 329 329 329 329 331 331 330 328 328 328 331 334 331
334 334 336 335 333 332 332 329 327 326 326 326 325 324 326 327 325 326 324 324 324 324 323 323 323 325 321 321 322 321 322 321 320 320 324 327 327 328 329 329 330 330 330 329 328 328 328 333 331
331 333 334 333 333 333 331 330 329 326 327 325 325 324 324 327 325 324 323 322 322 322 322 322 320 319 321 323 326 324 322 322 323 322 325 325 326 327 326 328 329 329 330 328 329 329 327 331 331
331 333 333 332 331 332 330 330 330 327 327 325 324 324 325 325 324 323 323 322 322 322 321 321 320 322 324 325 325 324 327 327 325 324 325 324 326 326 326 328 328 329 328 329 328 328 327 331 333
331 333 331 329 329 330 330 330 330 329 328 326 325 324 323 323 323 323 324 323 322 322 322 320 320 325 326 325 324 326 326 326 325 324 323 324 324 325 326 326 327 327 328 327 328 328 327 330 330
331 333 330 328 327 328 329 328 329 328 327 326 325 324 325 324 324 324 323 322 323 323 322 320 322 326 327 326 326 325 325 326 324 324 322 324 324 324 326 325 325 326 326 328 326 327 325 324 329
331 330 329 326 325 328 329 328 328 327 326 325 324 323 324 325 325 324 323 323 323 323 321 326 327 328 329 328 326 325 326 326 325 325 325 324 325 325 326 325 325 324 326 328 328 327 321 323 330
330 329 327 326 326 328 328 327 327 326 326 325 324 324 323 325 325 325 323 323 323 323 324 328 328 330 330 328 327 327 327 327 326 325 325 324 326 326 325 324 324 324 325 327 327 329 325 328 332
329 329 327 327 327 328 327 327 326 327 325 324 324 324 324 324 325 325 324 324 324 322 327 328 329 329 329 328 328 327 328 328 327 326 324 325 326 326 326 325 324 324 323 325 327 328 327 329 332
329 328 328 328 327 328 327 327 328 326 326 325 325 325 324 325 324 325 325 325 324 323 327 328 327 327 328 328 329 329 328 328 327 327 325 326 326 327 326 325 324 325 326 326 328 329 330 331 332
328 328 330 329 328 327 326 328 329 327 327 326 326 326 326 325 325 324 324 325 324 324 327 328 326 327 328 329 329 329 329 330 329 328 320 322 327 327 328 326 325 324 326 326 328 328 329 331 332
329 330 330 329 329 328 327 328 328 328 327 327 326 326 326 325 326 324 324 325 324 325 327 327 328 327 329 329 330 330 331 331 330 324 322 319 327 327 328 329 328 327 327 328 328 328 328 331 331
330 331 330 329 329 330 329 328 328 328 328 327 326 327 327 326 327 325 325 325 323 324 327 327 327 329 329 329 329 331 332 331 329 326 321 319 326 327 328 329 329 328 329 329 330 328 329 331 330
328 329 329 329 329 329 329 329 329 330 328 327 326 326 328 328 326 325 326 325 323 324 328 328 327 329 327 327 329 330 332 329 329 329 326 327 325 326 328 330 329 329 328 329 331 329 329 330 331
329 329 329 328 329 330 330 330 329 327 326 326 326 326 328 329 327 327 326 326 323 325 327 328 328 327 327 328 330 332 332 330 329 330 329 328 328 327 328 329 328 327 329 329 331 331 330 332 332
329 329 329 329 329 330 329 329 328 327 327 326 325 327 328 330 328 328 328 326 324 323 326 327 327 327 328 331 329 331 333 332 333 332 330 329 327 328 328 328 327 327 327 329 330 332 331 333 335
329 328 327 328 330 330 328 330 328 327 326 326 326 326 328 329 329 328 329 327 324 324 326 326 327 327 329 330 328 330 333 333 332 332 332 330 329 328 328 328 328 327 326 327 329 331 332 332 334
328 327 327 328 329 329 328 329 328 327 326 324 325 326 328 330 329 329 328 326 324 323 325 326 327 327 330 329 329 330 331 332 334 334 332 331 330 329 328 328 328 327 328 330 332 333 334 331 332
327 326 326 327 328 329 327 328 328 326 325 324 325 326 330 330 329 328 327 326 324 323 324 327 328 326 329 330 329 330 331 332 332 330 327 330 331 329 329 329 329 330 331 330 331 333 332 332 333
325 326 328 330 332 331 328 327 327 325 324 324 325 328 331 329 329 329 328 326 324 323 323 327 327 325 325 328 328 329 330 331 332 332 330 330 330 328 330 330 330 331 332 332 332 332 332 333 331
325 326 328 330 331 329 328 328 327 324 324 325 326 329 332 330 329 329 328 326 324 323 323 324 326 325 325 325 328 328 328 331 333 326 325 326 328 329 330 330 330 331 331 331 333 332 331 331 330
326 327 326 328 328 328 328 328 326 324 325 327 328 332 333 330 329 328 328 326 324 323 323 325 326 325 325 325 327 327 329 332 331 330 328 329 330 330 330 330 331 331 331 331 332 331 331 331 331
326 326 328 328 330 332 329 328 326 326 328 333 333 333 332 329 328 328 328 327 323 322 324 325 326 324 324 324 325 326 328 331 332 330 331 331 328 330 330 331 331 331 331 332 333 333 332 330 329
324 325 327 328 328 329 331 329 328 327 330 334 333 333 331 329 328 328 328 327 322 322 323 325 326 323 323 323 324 325 327 329 329 330 331 328 329 327 331 331 331 331 332 333 333 333 332 331 328
326 325 327 329 330 328 330 329 327 327 330 332 333 332 330 328 328 328 328 326 321 322 323 325 326 322 321 322 323 324 327 328 329 330 333 332 330 326 327 329 331 331 332 332 333 333 332 331 329

GFSSGP_925_thetae_006.txt.gz
Theta_e
310 314 328 334 342 341 339 337 337 333 331 330 329 327 327 326 324 328 327 327 326 337 336 331 326 327 326 327 329 330 332 335 338 338 337 333 332 331 329 329 329 329 329 329 330 330 336 335 335
321 326 337 339 347 346 340 338 334 331 330 328 328 327 326 326 324 325 328 327 326 330 335 337 332 325 322 326 331 334 336 338 338 339 338 336 333 333 332 331 331 331 330 330 329 329 331 334 335
332 336 338 340 344 342 339 335 331 330 329 328 328 327 326 327 324 325 329 328 328 328 330 332 334 330 325 326 333 336 338 338 337 337 335 334 334 334 334 334 333 332 331 330 329 329 330 334 335
338 336 337 339 336 335 336 333 331 330 328 328 327 326 327 326 325 325 326 326 326 325 329 331 328 326 324 326 337 340 338 338 336 335 334 333 332 332 332 332 333 333 332 331 329 330 334 335 336
336 335 338 340 337 336 336 333 331 328 327 327 326 325 328 326 325 325 326 325 325 324 325 329 327 325 324 323 336 339 339 337 337 335 334 333 334 333 332 332 332 331 332 332 329 330 333 335 335
334 334 337 336 334 334 334 332 329 327 327 327 326 325 329 327 326 325 325 325 325 325 325 328 329 326 324 322 319 326 330 333 331 330 331 332 331 331 330 330 330 330 331 332 330 328 329 331 335
334 336 336 335 334 333 333 332 331 330 326 326 326 325 328 328 326 325 325 326 326 325 325 325 325 325 324 322 322 322 322 322 321 321 322 327 328 328 328 329 330 330 331 331 331 328 328 329 332
333 333 334 333 334 333 332 332 331 330 328 327 326 325 325 329 326 326 325 324 324 324 323 323 323 322 322 326 327 326 324 325 326 325 325 326 325 325 326 328 329 330 331 331 331 330 328 328 330
332 333 334 334 332 331 330 330 331 330 328 328 326 324 326 327 326 325 324 323 323 323 323 322 322 322 324 325 327 326 327 329 327 327 326 325 324 325 327 328 329 329 331 331 329 329 330 328 329
332 333 333 333 331 329 329 329 329 329 329 329 326 325 325 325 325 324 324 324 324 323 323 323 321 324 327 327 326 326 327 328 327 325 324 324 324 324 325 326 328 329 329 329 330 330 330 328 329
331 333 331 332 332 328 327 327 329 328 328 328 326 326 326 324 325 325 324 324 324 324 324 322 324 326 329 329 328 327 326 327 327 325 324 323 324 323 325 326 327 326 328 328 329 329 329 327 325
332 331 332 331 331 328 326 326 329 328 328 327 326 325 326 327 326 326 325 324 324 324 323 326 328 329 330 331 330 327 327 327 325 327 326 325 325 326 326 327 326 326 327 326 327 327 328 326 324
333 332 331 331 329 328 326 327 329 328 327 326 325 324 324 326 327 326 325 324 325 325 324 328 329 330 332 331 329 329 328 327 328 327 326 326 323 326 326 326 325 326 326 326 326 327 327 325 322
331 332 330 330 329 328 327 328 328 328 327 326 325 324 325 325 326 327 326 325 325 325 325 328 329 330 330 330 329 330 330 329 328 326 327 325 325 325 325 325 325 325 324 325 326 328 327 327 325
330 330 329 329 329 328 328 328 328 328 327 327 327 327 326 326 324 327 327 325 326 325 327 328 329 328 329 330 330 329 330 329 328 327 326 325 324 325 326 325 324 324 324 324 325 327 329 329 329
328 329 329 329 329 328 329 329 328 328 329 329 328 327 327 328 327 326 326 327 327 325 328 328 328 327 328 330 330 329 330 331 330 329 325 324 320 326 327 326 325 324 324 324 325 326 328 330 328
328 330 329 329 329 329 329 329 328 328 329 331 330 329 328 329 330 327 326 327 327 325 327 328 328 329 330 330 330 330 331 332 330 329 324 322 320 327 327 326 327 325 324 324 326 327 329 331 330
329 328 328 329 330 329 329 330 329 329 329 331 332 330 330 330 331 328 326 327 326 326 327 329 328 329 330 328 329 330 333 333 331 329 326 321 321 327 328 327 326 327 324 326 326 327 328 330 330
327 327 329 331 330 330 332 334 331 330 329 331 332 332 332 332 331 328 327 327 325 325 327 330 329 329 329 328 330 331 331 329 330 329 329 327 327 325 327 327 327 327 326 325 328 328 328 331 330
325 327 329 328 328 328 329 330 330 330 331 330 329 330 332 333 331 330 328 328 325 325 327 329 329 329 329 330 331 333 333 332 332 331 329 329 328 326 327 327 327 327 327 327 328 327 329 329 331
327 328 329 329 328 328 329 332 331 330 330 329 329 329 329 333 332 331 331 329 326 327 326 329 329 329 330 332 330 331 332 332 334 331 330 329 328 328 328 329 327 326 329 329 329 328 329 331 331
328 327 328 329 329 330 329 333 333 330 330 328 326 329 330 334 332 332 331 331 328 326 326 328 328 329 331 330 330 331 332 332 332 332 331 329 329 328 328 328 327 327 328 327 327 329 325 330 331
327 327 328 328 329 330 329 330 329 330 330 328 325 326 331 333 333 331 332 330 327 326 327 327 328 329 332 331 331 332 333 331 331 329 331 328 327 328 328 328 328 327 327 327 328 328 328 330 330
326 327 328 328 328 332 329 330 329 329 326 325 324 325 331 332 332 332 330 329 327 325 327 328 329 328 331 331 330 331 332 332 332 329 330 329 329 327 328 328 328 327 327 330 332 329 330 331 332
326 330 330 332 330 331 328 329 331 329 327 325 324 330 333 333 332 332 331 330 327 325 326 328 329 327 327 329 330 330 331 328 332 329 328 329 330 329 328 328 329 331 329 331 331 330 329 330 334
328 331 330 332 331 330 331 332 329 326 325 325 325 330 334 333 332 332 331 329 327 325 325 326 328 326 326 327 329 330 331 327 328 326 328 328 330 330 329 329 330 329 331 331 331 329 331 332 332
329 329 327 329 328 329 329 331 329 328 325 325 326 333 336 334 332 332 331 328 327 326 324 325 327 326 326 327 329 329 332 329 329 328 325 328 330 330 330 330 331 331 331 330 329 330 331 333 331
330 327 328 327 331 334 329 329 329 328 327 330 333 334 337 334 332 331 330 329 327 325 324 325 327 326 325 326 328 328 331 332 331 332 331 328 330 330 330 330 331 331 331 330 332 333 332 330 328
328 329 328 329 328 332 333 330 333 331 337 339 334 336 336 333 330 331 330 329 325 324 326 326 327 325 325 325 326 328 330 330 331 331 330 327 329 331 330 329 332 330 331 330 332 332 331 330 328
328 328 330 331 333 330 330 330 332 332 331 336 335 335 332 331 330 329 329 329 324 324 326 327 327 323 324 324 325 327 330 330 331 331 330 327 326 331 331 331 331 331 332 331 329 329 328 329 328

GFSSGP_925_thetae_009.txt.gz
Theta_e
311 310 310 327 335 337 339 339 334 329 327 325 325 325 324 321 323 331 327 327 335 334 328 324 324 323 324 325 325 327 330 330 332 337 338 336 333 327 326 331 331 330 330 329 329 329 329 334 335
313 315 323 334 341 346 342 337 334 327 326 324 325 325 322 323 325 325 326 329 331 332 332 331 330 326 323 321 324 328 332 334 335 336 338 337 336 333 333 333 333 332 332 331 330 329 329 329 332
321 323 333 337 340 344 342 336 334 326 325 326 326 324 326 325 325 329 327 327 330 329 331 333 335 332 327 322 324 330 334 335 334 335 337 335 335 336 335 335 334 334 333 332 332 330 329 329 331
327 336 334 336 337 335 335 333 330 327 325 324 324 326 326 325 325 328 327 326 327 330 332 334 334 330 329 330 333 336 337 337 335 337 336 334 333 333 333 333 333 333 333 333 333 330 329 330 334
334 334 334 336 337 337 333 334 326 325 324 324 323 325 326 325 326 326 325 325 326 328 331 329 327 325 325 324 326 331 337 337 337 336 335 334 334 333 334 333 332 332 333 332 333 331 331 333 334
333 328 332 333 333 332 330 330 330 327 326 324 323 327 326 324 325 325 325 325 325 325 326 327 328 327 324 323 321 319 321 330 331 330 330 330 332 332 332 331 331 330 330 330 332 332 329 330 332
332 331 333 333 332 331 331 330 330 328 326 324 324 325 326 324 325 325 325 325 326 326 327 326 324 323 323 323 322 321 322 323 324 324 323 323 326 328 328 329 329 329 330 330 331 332 330 328 329
330 329 331 331 331 330 331 330 329 328 327 325 324 324 327 324 325 325 325 325 324 324 324 323 323 323 324 325 324 325 325 325 327 326 326 327 327 326 326 327 328 329 329 330 332 332 330 328 327
331 330 332 331 330 331 326 325 327 327 327 327 323 323 326 326 326 325 325 325 324 324 323 323 323 323 326 326 327 327 325 327 328 327 327 325 324 323 324 325 329 329 330 330 332 332 331 329 328
331 331 331 331 330 330 327 324 324 327 326 327 325 325 327 326 325 323 323 323 323 323 323 322 321 321 322 322 328 328 328 328 328 327 325 324 323 322 324 325 327 328 330 330 331 331 329 329 329
331 331 330 330 330 329 329 324 323 324 327 327 324 324 324 324 323 322 322 323 324 324 322 322 324 325 326 328 328 328 328 327 327 326 324 324 323 323 323 324 325 326 326 327 329 330 330 330 328
332 330 330 329 329 329 328 325 325 324 326 327 324 324 322 322 320 321 322 323 324 323 323 327 328 329 329 330 330 328 329 328 327 326 325 327 325 323 325 326 326 326 326 327 328 328 329 329 327
331 331 330 330 330 327 326 326 326 324 326 326 323 323 323 321 321 323 323 324 324 324 326 328 328 328 330 330 329 329 328 327 327 326 327 327 326 323 325 325 325 325 326 326 327 328 327 326 326
330 329 329 330 330 327 327 328 326 326 327 326 323 322 321 320 322 324 324 324 325 324 326 328 328 330 330 329 329 329 329 330 329 328 327 327 326 325 324 324 324 324 325 326 325 326 327 328 327
324 325 326 327 328 326 327 328 326 326 325 325 323 322 321 321 324 323 325 325 325 324 326 328 328 328 328 328 330 330 329 329 330 329 327 326 325 323 324 324 324 325 324 324 325 325 326 327 327
322 324 327 326 326 327 325 328 326 326 325 325 325 324 324 322 321 324 325 326 325 324 326 328 328 328 327 329 329 330 330 330 331 330 329 326 325 322 323 326 325 325 323 324 324 325 327 328 329
321 323 325 327 327 327 326 327 327 326 325 325 326 326 325 323 324 326 325 326 326 324 327 327 328 328 329 329 328 329 330 331 332 329 328 325 323 318 324 326 325 326 323 324 323 324 325 328 328
322 324 326 327 327 326 327 329 327 327 325 325 325 326 326 327 325 327 327 327 325 325 327 328 328 328 330 327 328 330 331 332 331 329 328 327 322 320 326 327 326 325 324 324 323 325 326 328 330
322 324 326 327 327 326 330 329 329 328 327 326 325 327 327 326 325 327 327 326 325 326 326 328 328 328 329 327 331 331 332 329 329 330 329 328 327 325 326 327 326 325 324 325 324 326 327 328 328
323 323 323 324 326 328 329 329 328 330 328 326 326 325 325 327 326 326 327 326 325 325 326 329 329 329 328 329 332 331 332 331 331 331 330 328 327 326 325 326 326 325 324 324 326 326 328 328 329
324 324 323 324 326 326 327 327 328 329 327 327 326 325 326 327 327 326 327 325 325 325 325 329 329 328 329 331 331 330 330 330 330 330 330 329 327 327 326 327 326 325 326 324 326 327 328 328 330
324 324 324 325 327 327 328 327 327 327 326 326 326 325 327 326 327 326 327 326 325 327 326 328 328 328 330 330 329 331 332 331 330 329 329 329 328 327 327 326 326 326 325 326 327 327 327 328 329
324 324 324 326 326 327 326 326 325 327 327 326 324 324 327 327 327 327 327 327 325 325 325 328 328 328 331 331 330 332 331 331 331 328 329 325 327 327 327 328 327 327 328 326 327 325 327 325 330
324 324 325 326 326 328 328 327 327 327 327 324 323 324 328 327 326 327 328 328 326 327 327 327 328 329 331 332 330 330 329 329 330 329 329 328 328 328 327 327 328 327 327 327 328 325 327 323 329
324 323 325 328 326 327 326 327 326 326 327 323 327 329 328 327 327 328 327 325 326 327 326 328 329 327 327 329 329 330 327 329 329 326 327 328 328 328 327 328 327 327 327 328 327 328 327 327 331
321 323 324 329 331 327 326 328 326 327 325 324 328 329 328 327 327 327 326 324 325 325 327 327 328 326 326 329 329 330 329 326 326 327 327 329 329 328 327 327 327 327 328 329 328 328 329 330 331
322 325 323 325 327 326 326 327 331 325 323 325 330 329 328 327 327 326 325 325 326 325 325 325 329 325 327 328 329 330 330 328 328 326 328 330 329 329 330 329 329 328 329 329 329 330 330 331 331
321 325 326 324 327 328 328 328 329 325 324 330 332 330 329 327 327 326 325 325 326 324 323 324 328 326 326 327 328 330 331 330 330 330 328 329 329 329 330 331 331 330 330 329 329 331 331 330 330
320 326 324 322 322 326 328 329 326 327 332 332 333 331 329 327 326 325 323 326 325 324 323 325 327 325 325 327 327 329 331 331 331 329 327 329 330 328 330 331 331 330 330 329 328 329 329 329 327
322 324 324 325 329 325 326 328 333 333 333 331 333 331 327 325 325 324 324 324 325 325 324 325 327 325 324 325 326 330 331 331 329 328 326 329 329 330 330 329 330 330 330 329 329 327 327 328 329

GFSSGP_925_thetae_012.txt.gz
Theta_e
308 308 314 326 334 333 339 337 332 327 327 324 323 322 321 321 323 323 335 332 335 331 326 324 322 321 321 322 323 325 326 326 327 331 335 335 332 326 330 332 332 330 330 330 329 329 328 329 332
309 311 323 330 338 343 342 336 335 326 325 322 322 319 321 324 326 325 330 332 333 332 325 323 323 323 322 323 325 327 329 329 330 336 337 337 336 334 333 333 333 333 332 332 331 331 330 329 328
312 321 325 336 338 341 342 336 334 330 323 323 324 323 323 324 326 325 327 330 332 331 329 328 326 325 324 324 327 329 330 331 332 335 338 337 336 336 335 334 334 334 334 332 332 332 331 330 329
321 333 332 336 336 334 338 336 333 327 324 323 323 326 324 324 327 327 328 329 329 329 329 330 330 327 326 326 326 328 329 332 338 338 338 336 335 333 332 335 334 334 333 332 333 333 332 331 330
330 330 336 335 336 334 332 331 326 325 325 322 323 326 324 325 328 326 329 329 330 331 331 334 334 331 328 326 325 325 329 336 337 338 338 336 334 333 333 333 333 333 332 332 333 333 334 331 330
332 326 330 332 331 331 328 328 330 328 325 322 324 324 323 326 327 326 326 328 328 329 334 334 329 325 325 323 322 320 321 323 328 333 332 332 332 332 332 332 331 331 331 331 332 331 333 331 332
332 331 333 332 333 330 330 328 330 329 327 323 323 324 325 322 326 325 324 325 326 327 328 326 326 326 323 322 322 321 320 322 322 323 323 324 324 328 329 329 329 329 330 330 331 331 331 332 330
328 328 331 330 331 330 328 324 323 328 328 323 322 326 324 322 324 325 324 325 325 325 325 324 325 324 324 323 323 323 323 323 325 325 326 325 325 325 327 327 328 328 328 329 330 330 331 331 330
328 330 332 330 330 330 328 326 324 325 325 324 322 323 325 324 324 324 325 325 325 326 325 325 324 325 325 324 325 326 325 325 325 327 327 327 326 324 323 323 327 329 331 330 330 330 331 329 330
329 330 334 332 328 329 329 326 324 323 323 325 324 325 325 324 323 322 322 322 323 323 323 324 324 323 324 324 327 328 327 327 329 329 327 325 323 323 322 324 326 328 329 329 330 331 332 331 330
329 333 332 331 329 328 329 328 327 324 323 322 324 325 323 322 321 321 322 323 322 322 322 322 322 323 325 327 327 328 328 328 328 328 326 324 325 324 322 323 324 325 325 326 327 329 331 330 330
331 331 331 331 330 329 328 328 328 324 324 323 323 325 323 322 321 319 320 321 321 322 322 322 324 327 327 327 328 327 328 328 327 327 326 326 326 326 323 324 325 325 326 325 326 328 329 329 330
331 331 331 330 329 328 328 328 327 326 325 323 322 323 323 323 321 321 321 322 322 322 325 327 328 327 326 325 326 327 328 328 328 328 327 327 326 326 325 323 325 325 325 325 326 327 328 329 328
327 330 330 329 329 328 328 328 326 327 325 324 321 322 321 321 320 319 320 321 322 326 327 327 328 326 326 326 328 329 329 328 329 329 329 328 326 326 326 324 324 324 323 325 325 326 328 328 327
319 325 327 328 325 325 324 326 326 325 324 323 320 320 320 320 320 320 321 322 324 325 327 327 326 327 327 327 328 329 329 329 329 329 330 328 327 326 325 324 324 324 324 324 325 325 326 326 327
319 318 320 321 323 324 324 327 325 324 323 323 323 320 319 318 321 321 322 323 323 326 327 327 327 327 327 327 329 328 329 330 330 331 329 328 327 325 324 322 324 325 325 324 324 324 325 325 326
317 320 320 321 321 324 324 326 326 325 325 324 323 322 322 320 320 321 322 323 323 326 327 327 327 327 327 328 328 327 329 330 331 330 328 327 326 324 322 320 324 325 325 323 323 325 325 326 327
320 319 321 322 322 323 324 325 325 325 324 324 322 323 323 321 320 322 324 323 325 327 327 328 327 327 328 329 327 330 330 331 330 329 328 328 327 322 320 324 326 325 325 323 323 324 324 326 326
320 320 321 322 322 324 324 326 326 326 325 322 322 322 323 323 323 325 324 323 326 327 327 327 327 327 328 327 330 331 331 331 330 329 330 329 328 326 322 326 327 326 325 324 323 323 324 325 326
317 320 321 321 322 322 322 325 326 325 326 323 323 323 324 324 326 325 324 324 325 326 327 328 328 328 328 328 331 331 331 331 330 331 330 329 328 327 325 325 326 326 325 324 324 324 326 327 327
318 318 322 323 323 322 322 325 326 326 326 326 324 323 325 325 325 325 324 323 325 326 327 329 328 328 327 330 330 329 330 330 330 330 329 329 328 327 325 325 326 325 324 324 325 325 326 327 328
321 320 320 324 325 324 323 326 323 324 324 324 323 322 324 324 325 325 323 322 324 325 326 328 329 328 329 330 329 331 331 330 331 330 329 328 328 326 326 327 326 325 326 324 325 326 326 327 328
321 321 322 324 324 321 323 324 323 323 325 324 323 324 324 323 324 325 323 323 324 325 327 329 327 328 330 330 330 330 329 330 330 329 327 325 328 327 327 326 326 325 326 326 326 326 326 327 328
319 321 321 321 322 324 323 325 326 324 325 325 321 325 324 324 323 324 323 323 325 325 328 327 327 328 330 331 330 329 326 328 328 328 328 328 328 327 326 328 326 327 327 327 326 326 327 326 328
319 319 322 322 325 326 323 326 326 324 324 324 323 326 325 325 326 325 324 322 324 326 327 327 327 328 329 329 329 329 327 327 326 326 327 328 327 328 327 327 327 326 327 327 326 325 326 326 328
315 318 322 324 326 325 324 326 325 323 323 323 327 326 326 325 326 325 324 322 324 326 326 328 327 326 327 328 329 329 326 325 325 326 329 329 328 328 327 327 326 325 327 328 328 326 327 324 328
315 315 318 321 324 324 324 324 326 324 326 328 328 327 326 326 325 325 323 322 323 325 327 327 327 326 328 328 328 330 328 329 328 328 328 329 328 327 327 327 326 327 328 327 328 328 329 328 330
315 318 322 320 325 326 325 326 326 324 328 329 328 327 325 325 325 324 322 321 322 326 326 326 328 325 327 328 328 330 330 330 330 328 328 328 329 329 328 328 326 326 329 329 328 329 330 330 330
314 316 320 321 321 325 325 324 321 323 325 329 327 326 326 325 325 324 322 322 322 325 323 326 327 326 326 327 328 330 330 331 328 327 328 329 329 329 329 330 329 330 329 329 328 329 330 330 329
315 315 319 323 324 321 322 322 323 323 329 328 327 327 325 325 324 323 321 321 321 322 323 327 325 325 325 326 328 329 330 329 327 326 329 329 329 330 329 330 330 330 329 329 329 329 328 328 326

GFSSGP_925_thetae_015.txt.gz
Theta_e
309 309 322 325 333 333 338 337 331 334 326 323 322 321 321 321 322 321 331 336 335 329 328 324 324 320 319 320 321 323 324 323 322 322 326 329 330 331 332 332 332 331 330 330 330 330 329 328 329
309 313 324 330 337 342 339 336 336 329 324 320 320 320 321 323 326 327 334 337 336 334 331 325 322 319 320 321 322 324 325 326 327 330 334 335 334 332 332 333 333 333 333 333 333 332 332 330 329
313 321 324 336 336 341 339 337 333 331 326 321 322 322 322 324 325 328 331 332 336 334 328 324 321 320 321 322 324 326 328 329 333 336 337 337 336 336 336 334 333 334 333 332 331 332 332 332 331
323 331 330 337 339 335 336 335 332 332 323 321 322 325 323 324 325 328 327 329 334 332 328 324 323 323 323 324 325 325 327 330 333 338 339 337 337 335 334 332 333 334 333 332 332 332 334 333 332
331 329 339 337 337 333 331 330 326 325 323 322 322 325 323 324 326 326 327 331 331 330 328 326 325 326 325 326 325 325 326 324 331 338 338 337 336 335 335 334 333 333 332 332 332 333 334 335 333
331 325 331 333 331 329 328 326 326 327 326 323 324 323 322 323 326 327 328 329 327 327 328 327 327 328 328 328 326 324 323 322 331 336 335 331 330 329 333 334 333 332 331 332 332 332 333 331 333
331 330 333 331 334 330 329 326 327 326 325 322 322 323 322 323 326 327 328 328 328 329 329 330 332 331 328 326 323 323 322 322 323 326 326 324 324 324 324 329 330 330 331 330 330 332 332 331 333
327 328 332 329 331 330 328 326 324 325 325 322 324 325 324 321 325 326 330 330 330 329 331 334 333 328 326 324 325 324 322 321 323 324 324 326 326 325 328 328 327 327 328 328 328 330 330 330 331
324 329 331 330 329 329 326 327 327 324 323 323 321 323 323 324 324 323 328 330 330 332 334 333 328 326 325 325 324 323 323 323 323 324 326 327 327 326 324 324 323 327 329 330 330 329 330 330 331
328 329 330 328 328 328 326 328 327 325 325 322 324 323 324 323 322 321 322 324 328 330 329 327 327 326 326 325 323 324 325 327 326 328 328 327 326 324 323 322 324 326 328 329 330 330 330 331 331
327 330 328 328 329 328 328 328 328 327 327 322 323 323 322 320 320 321 321 323 325 326 327 328 327 326 324 322 324 326 327 327 327 327 329 327 325 324 324 322 322 323 325 324 325 325 330 331 331
329 329 329 329 329 329 329 328 328 328 327 326 322 323 321 320 320 321 321 321 322 322 324 324 325 323 323 326 327 327 328 327 327 327 327 326 326 325 325 324 323 325 325 325 325 325 328 330 330
328 327 327 328 328 328 328 328 328 328 327 326 323 323 322 321 320 321 321 321 321 320 321 323 323 323 327 327 326 326 327 327 327 328 328 328 326 326 326 326 323 324 324 324 325 325 327 328 329
324 325 327 328 329 329 329 329 328 327 325 324 321 322 322 322 320 319 318 320 320 320 321 322 324 327 326 325 325 327 328 329 328 328 329 329 328 327 326 326 324 323 323 323 324 325 326 328 328
316 317 318 320 323 325 326 326 326 325 323 322 321 320 321 322 321 319 320 319 321 321 321 324 327 326 326 325 326 328 328 329 329 329 329 329 329 327 326 326 324 323 323 324 324 325 326 327 327
317 317 319 320 321 323 320 324 323 322 322 323 322 319 320 320 320 321 320 319 320 323 325 327 327 327 327 326 327 328 328 328 329 329 330 329 328 328 326 325 324 323 324 324 323 324 325 326 326
315 317 317 318 319 320 321 323 323 323 322 322 323 322 319 319 317 319 319 320 321 325 327 327 327 327 326 326 327 327 328 329 329 330 330 328 327 327 326 325 323 322 325 325 323 324 324 325 325
316 316 317 318 319 319 320 321 322 323 323 323 323 323 321 319 317 318 320 320 322 326 327 327 327 327 327 328 327 327 329 329 330 329 329 328 328 326 323 321 319 325 325 325 323 323 324 325 326
318 317 318 319 320 320 321 322 322 322 321 321 321 321 321 320 319 321 320 321 324 326 327 327 327 327 327 328 327 330 329 330 330 330 329 329 329 327 324 321 323 326 325 324 323 323 324 325 325
318 318 318 319 319 320 320 320 321 321 321 322 323 323 321 324 323 321 321 323 325 326 327 327 326 327 328 327 330 330 330 330 329 329 330 330 329 327 326 322 325 326 325 324 323 323 324 324 325
318 317 318 318 320 320 320 322 322 322 322 322 322 321 321 323 324 323 322 324 325 326 326 326 327 327 327 330 329 329 330 330 329 329 329 329 328 327 327 325 325 326 325 323 323 323 325 325 326
316 316 317 318 319 321 321 324 322 321 322 322 320 319 320 323 323 323 323 321 324 326 326 328 328 328 328 329 329 330 329 328 330 329 328 328 327 327 325 325 326 325 324 324 324 324 325 326 326
316 318 319 320 319 320 322 322 321 321 323 322 321 320 321 322 323 323 321 322 325 326 328 328 328 327 329 329 329 329 326 329 328 328 327 326 327 327 326 326 325 325 325 325 324 324 326 327 327
316 317 318 318 319 322 322 322 322 321 322 322 322 324 322 321 322 320 321 322 323 325 328 328 327 328 330 330 329 328 327 327 327 327 327 327 327 327 326 326 326 325 326 325 325 325 326 326 327
313 314 317 320 321 324 320 322 323 321 321 322 322 323 322 322 322 322 321 320 322 325 327 327 326 328 330 330 329 328 326 326 325 326 327 328 327 327 326 327 326 326 326 326 326 326 326 326 327
314 315 320 323 323 323 321 324 324 322 321 321 321 322 323 324 323 322 320 321 322 325 327 326 326 327 328 329 328 329 326 325 325 327 328 328 327 327 326 327 326 326 327 327 326 326 326 325 327
313 317 317 319 321 322 322 322 321 323 326 326 326 325 324 324 323 322 320 320 322 324 326 326 326 325 326 328 328 329 328 328 328 328 328 328 327 327 326 326 326 326 327 327 327 326 326 325 328
312 312 314 315 322 325 324 324 325 323 328 328 327 325 325 323 323 322 320 320 323 325 326 326 327 325 327 328 328 329 329 330 328 327 328 328 328 328 326 326 326 327 328 328 328 328 328 327 329
312 314 313 313 316 321 323 323 320 321 325 327 326 325 324 324 324 323 320 320 323 324 325 326 327 324 327 327 327 329 330 328 327 327 328 329 329 329 328 326 326 327 328 328 328 329 329 331 328
314 314 313 319 320 319 321 323 321 319 322 325 324 325 323 323 323 322 320 319 320 323 323 323 326 325 325 327 328 330 330 328 326 327 329 328 329 329 329 329 329 329 329 329 329 329 329 328 328

GFSSGP_925_thetae_018.txt.gz
Theta_e
309 311 323 325 332 332 338 336 330 333 332 322 320 320 319 321 326 323 327 333 332 328 328 319 322 323 319 319 319 320 320 321 320 321 324 327 330 331 331 332 331 331 330 330 331 331 330 329 328
309 318 325 329 336 340 337 335 337 332 327 320 319 319 320 322 325 329 333 335 335 329 331 320 322 323 320 319 320 321 322 323 322 323 328 330 331 332 333 332 332 332 332 332 333 333 333 332 330
317 321 326 336 336 340 337 335 334 331 329 323 321 321 321 323 324 329 332 334 334 330 331 325 324 322 320 320 320 322 324 326 327 332 333 334 335 336 336 332 333 333 332 332 332 331 331 333 333
322 329 329 337 340 336 335 334 333 328 326 319 320 323 322 322 325 328 330 331 334 333 332 327 324 322 320 320 321 323 324 326 328 335 337 336 337 337 336 332 334 334 333 333 332 332 330 333 334
331 329 339 338 338 335 331 330 329 326 323 322 321 323 322 322 324 329 328 330 330 334 333 328 325 322 321 321 323 324 325 325 328 334 337 338 337 336 336 332 334 333 333 333 333 331 332 332 335
329 325 334 336 334 330 327 327 327 326 324 322 322 323 322 322 325 326 327 327 329 330 331 328 325 322 322 323 325 326 325 325 325 328 334 337 336 335 334 333 333 333 333 332 331 333 332 331 332
330 328 333 331 333 331 329 325 325 326 325 324 321 323 321 321 324 326 327 327 329 329 329 327 325 324 324 326 327 327 326 324 324 325 329 329 327 325 325 326 330 330 331 332 332 332 332 333 333
327 327 332 330 331 328 327 326 323 326 326 322 322 323 321 320 324 327 328 330 330 329 328 327 327 326 327 328 329 329 327 325 324 325 326 325 324 325 325 326 326 328 329 328 329 329 331 330 331
322 329 330 328 328 327 325 327 324 324 324 322 322 322 322 323 324 328 332 332 331 330 329 328 328 329 330 330 330 329 326 325 324 325 325 325 326 326 325 323 323 325 326 328 329 329 329 330 330
327 328 329 324 325 326 325 327 327 327 327 325 324 321 322 322 322 323 326 329 332 331 331 331 330 332 331 330 328 326 325 326 327 326 325 325 327 327 325 323 322 325 327 328 329 331 330 330 331
326 330 328 326 325 326 327 327 328 328 328 327 325 324 322 320 320 321 323 326 328 329 330 331 333 335 330 327 325 324 324 324 326 327 326 327 328 327 324 324 322 322 322 324 324 325 324 327 330
328 327 328 327 326 327 328 327 329 329 328 326 325 324 321 319 318 320 321 324 326 327 328 332 335 331 327 326 324 323 324 325 326 326 327 326 328 326 325 325 324 322 324 324 325 325 324 327 329
326 327 326 326 324 326 327 328 328 328 328 327 324 322 320 319 319 321 321 322 322 323 325 328 329 328 326 323 324 323 323 325 326 326 327 327 327 326 325 325 325 323 324 324 324 324 324 327 329
323 325 325 323 325 326 328 328 328 329 328 326 322 321 319 320 319 319 320 320 321 321 321 325 327 326 323 325 323 322 326 327 327 327 328 328 328 328 327 327 325 325 323 323 322 323 325 326 328
316 318 316 317 318 320 322 323 325 324 324 322 321 320 319 320 320 318 320 320 320 320 320 321 324 322 325 324 322 325 327 328 328 328 328 329 329 328 328 327 325 325 323 323 323 323 325 326 327
316 315 317 317 318 319 320 321 321 321 321 321 321 321 319 318 320 321 321 319 319 319 320 322 322 325 325 324 324 326 327 327 328 328 329 329 329 328 328 327 325 325 322 323 324 323 324 326 327
313 316 315 315 316 318 320 319 320 319 320 320 321 321 320 319 317 320 321 319 318 320 320 322 324 326 326 325 325 327 327 328 328 329 329 329 328 327 327 326 325 324 322 324 324 323 324 324 325
315 314 314 314 316 316 316 317 318 318 318 320 320 320 319 320 318 317 318 318 320 321 321 323 326 326 326 326 327 326 327 329 329 330 329 329 329 328 326 325 324 323 321 325 324 323 323 324 324
314 314 314 314 317 318 317 318 318 319 318 318 318 318 319 318 318 317 318 319 321 322 324 326 326 327 326 327 326 327 329 329 329 329 329 329 329 329 327 324 321 319 325 325 324 323 323 324 325
316 316 316 317 319 318 318 318 318 318 318 317 319 319 319 319 322 319 318 321 322 324 326 326 326 326 326 327 326 329 329 329 329 329 329 329 329 329 327 325 321 324 326 324 323 322 323 324 325
316 317 317 318 318 317 317 318 318 320 319 318 318 319 319 319 321 319 320 322 323 323 325 326 326 326 327 326 328 327 329 328 328 329 329 328 328 328 327 326 322 325 325 324 323 322 323 323 324
316 317 319 320 318 318 318 322 319 319 320 319 319 317 317 321 321 319 320 320 322 325 326 325 326 327 327 328 328 329 328 326 328 328 328 327 327 327 326 326 324 325 325 324 323 323 323 324 324
317 319 319 318 316 317 318 319 319 318 320 320 319 318 316 320 321 320 321 322 324 325 325 326 327 327 328 328 329 328 326 327 327 327 327 326 326 327 325 326 326 325 324 323 323 323 324 325 325
318 316 315 316 316 320 318 320 321 319 321 320 320 320 322 321 320 319 321 322 323 325 326 327 327 326 328 329 329 328 327 326 326 325 326 326 327 327 326 325 325 325 325 325 323 324 324 326 326
315 313 314 315 317 321 318 319 320 319 318 319 319 319 321 321 320 321 321 320 321 325 326 327 326 327 329 329 328 327 326 325 324 325 327 327 327 326 326 326 325 325 326 325 324 324 325 325 326
315 314 314 317 319 322 319 322 321 319 320 319 319 319 321 321 320 321 320 320 321 325 326 326 326 327 328 330 328 328 326 325 326 326 327 328 327 326 326 326 326 326 325 326 324 325 325 325 327
314 315 313 316 319 320 320 320 320 319 322 323 322 323 322 321 319 320 319 320 321 324 326 325 325 326 327 328 327 328 327 329 328 328 327 327 326 326 326 326 325 326 327 326 326 326 325 325 327
313 313 315 314 320 322 321 322 322 323 323 326 326 323 322 321 320 320 319 319 322 324 326 325 325 326 325 327 327 328 329 329 327 327 327 328 327 326 326 326 326 326 327 327 327 326 325 326 327
310 313 311 312 315 319 321 322 318 320 321 324 324 322 322 322 321 320 319 320 322 324 325 325 325 325 325 326 326 329 330 327 326 327 328 328 328 327 326 326 325 326 327 327 328 329 327 326 327
312 312 312 315 315 315 319 320 318 319 318 322 322 322 321 321 321 320 319 318 320 322 323 324 325 325 325 326 326 329 329 326 325 328 328 328 328 328 327 326 325 327 328 328 329 325 325 325 326

GFSSGP_925_thetae_021.txt.gz
Theta_e
309 311 318 326 336 338 341 342 334 337 335 326 324 327 327 327 334 328 326 331 332 329 319 318 319 322 319 316 317 318 319 318 318 318 318 319 320 327 326 324 324 323 329 331 332 332 332 330 329
310 321 326 333 341 342 343 339 340 337 334 330 324 323 323 326 324 329 334 332 331 329 323 320 318 322 321 317 317 319 319 319 320 320 322 325 327 331 332 333 333 332 332 332 333 333 333 333 332
315 322 333 340 344 344 341 339 338 336 333 331 326 323 324 327 327 330 333 333 332 330 328 326 321 322 322 318 318 319 320 321 321 322 325 329 330 332 333 335 334 333 332 331 332 333 331 332 333
323 329 333 338 343 342 340 338 337 336 331 325 324 327 325 324 327 328 331 334 333 330 330 330 324 322 322 319 319 320 321 322 323 325 331 334 335 336 337 336 336 335 334 333 333 331 331 332 333
331 336 334 343 342 339 337 337 335 334 331 329 324 327 327 325 324 325 331 333 332 331 328 332 325 323 323 320 320 321 322 324 326 331 336 337 336 337 337 337 336 335 335 334 334 334 333 331 332
332 334 338 336 336 336 334 333 332 332 329 328 324 325 327 324 325 326 330 331 331 332 329 332 327 324 323 321 321 322 323 326 328 329 334 336 337 337 336 336 334 333 334 334 334 333 332 332 332
331 336 332 334 333 333 332 330 331 329 330 328 324 327 328 327 325 326 328 331 327 332 330 331 332 326 324 321 321 323 325 328 329 327 330 333 333 333 333 329 328 330 331 332 333 332 332 333 333
331 333 332 333 329 329 330 329 327 330 330 325 324 329 331 329 323 325 328 333 331 332 333 331 333 341 340 337 325 324 327 328 328 328 330 333 328 327 325 326 327 327 329 330 331 330 330 330 329
327 333 330 328 328 327 328 330 328 327 330 328 327 329 328 325 323 328 332 332 332 334 333 334 337 339 340 339 339 331 330 330 330 332 334 328 331 329 329 328 324 325 328 327 328 329 330 330 330
331 333 330 328 327 328 328 328 329 330 330 330 330 329 325 324 325 327 331 332 333 333 334 334 333 338 339 339 340 341 340 337 338 336 334 332 331 330 329 327 324 323 326 327 328 330 331 331 331
330 332 329 328 328 327 328 329 328 329 330 329 330 330 330 329 327 327 328 329 330 332 333 334 332 333 336 338 339 338 337 335 333 330 327 327 329 330 330 328 327 327 325 325 326 327 327 327 329
330 329 330 329 328 328 328 328 329 330 330 330 329 329 329 330 329 327 327 328 330 330 332 335 331 330 332 337 333 330 329 326 326 326 326 327 329 330 329 327 326 326 325 326 327 327 327 327 328
329 328 329 329 329 329 329 330 330 329 328 328 328 330 330 330 328 326 326 326 327 328 330 332 332 332 333 334 328 325 323 324 324 324 325 326 328 329 329 328 327 326 325 326 327 326 326 327 329
324 326 327 327 328 328 328 327 327 328 329 328 328 328 327 327 327 326 326 325 326 327 327 328 330 333 335 329 326 323 323 322 325 326 327 327 328 328 328 328 327 327 327 326 326 325 326 327 329
323 325 326 325 326 327 324 323 323 324 325 325 325 326 326 326 326 326 326 326 325 325 324 324 329 333 329 326 323 324 321 324 327 328 328 328 328 328 328 329 329 328 326 323 325 325 326 327 328
318 318 320 319 320 320 320 322 321 322 323 324 324 325 325 326 327 325 326 325 326 324 324 322 326 328 326 323 324 322 323 326 327 328 328 328 328 328 328 329 329 328 326 325 325 326 326 327 327
318 320 319 319 319 320 321 322 320 321 321 322 323 324 324 325 326 327 326 325 324 322 323 321 325 326 323 325 324 323 325 327 327 327 328 328 329 329 328 329 328 326 326 325 326 326 325 327 328
319 318 319 319 318 318 319 320 320 320 321 323 323 324 325 326 327 326 324 323 323 323 320 321 323 324 326 325 325 325 326 327 328 329 330 330 330 329 329 327 326 325 326 325 326 326 326 326 327
318 320 320 320 318 317 318 319 321 322 322 323 324 325 326 328 327 322 322 322 324 324 325 325 327 328 327 327 327 329 329 331 330 330 329 330 331 330 328 327 325 324 324 325 326 326 326 327 327
315 318 319 319 317 318 319 320 321 322 322 322 323 325 326 326 326 325 323 324 325 326 326 327 329 327 327 327 328 329 331 331 331 330 329 330 330 329 328 326 323 321 324 326 326 326 326 327 327
315 316 316 317 318 319 320 321 321 322 322 322 323 325 325 327 328 327 325 325 326 326 327 329 328 327 326 326 327 328 327 330 330 331 331 329 328 328 328 327 325 325 326 327 326 325 326 326 327
317 316 316 316 317 320 320 324 323 322 321 322 324 325 326 326 327 327 327 326 326 327 328 329 328 326 326 326 329 331 332 331 331 330 330 329 326 329 326 326 326 327 327 326 325 325 326 326 327
316 316 317 317 318 320 321 323 321 321 322 323 323 326 327 325 327 328 327 326 326 327 328 328 328 328 328 328 330 331 330 330 330 329 329 327 328 328 327 327 326 327 327 326 326 325 326 326 327
316 318 318 320 320 323 321 321 321 321 322 322 325 326 327 328 327 327 326 326 327 327 327 328 329 329 329 329 329 330 330 329 329 328 329 329 329 327 328 327 327 327 327 326 326 326 327 328 326
318 320 321 321 321 322 320 321 321 321 321 324 325 327 328 328 328 328 328 328 328 328 328 328 329 329 330 330 330 329 329 329 328 329 330 330 328 328 328 327 326 326 327 327 326 327 327 328 328
318 320 320 321 322 321 320 321 320 323 322 322 324 325 327 328 328 328 328 329 328 328 328 328 329 329 330 331 330 329 327 328 329 329 330 328 329 329 328 327 327 327 327 328 327 327 328 328 328
318 320 319 320 322 322 323 323 324 325 325 325 325 326 329 329 328 328 328 328 328 328 329 329 328 329 330 331 330 330 328 330 331 330 328 329 328 328 328 328 328 329 328 327 328 328 328 328 327
318 319 318 319 319 319 323 326 325 326 326 327 329 329 329 329 328 327 328 327 327 328 329 328 328 329 329 330 330 330 330 331 329 329 330 329 329 328 328 328 328 329 329 329 329 327 328 329 327
315 319 317 318 319 317 318 320 328 328 328 329 332 330 330 329 328 327 327 326 327 328 328 327 327 327 328 329 329 331 331 329 329 330 330 330 329 328 328 328 329 329 327 327 329 328 327 329 328
315 317 318 318 320 320 320 323 324 327 326 329 330 329 329 328 328 327 327 326 327 327 327 327 327 327 327 328 328 331 330 328 329 330 330 330 330 329 328 328 328 327 328 327 328 327 328 328 327

GFSSGP_925_thetae_024.txt.gz
Theta_e
311 319 326 330 334 330 333 340 340 338 336 333 332 332 332 331 331 332 332 338 339 332 336 324 318 319 319 315 314 316 317 317 317 317 317 317 317 316 317 317 321 323 330 331 332 332 332 332 330
321 321 328 334 331 336 339 342 340 339 337 335 334 333 331 330 329 329 334 337 337 332 335 337 320 319 321 317 315 316 318 318 318 319 319 321 322 325 328 327 328 330 332 332 333 334 334 334 334
322 327 334 335 341 341 341 340 339 337 334 333 333 329 330 332 330 330 336 337 336 333 333 338 323 319 322 319 316 317 318 319 319 320 322 324 326 330 333 333 334 334 334 333 333 333 333 333 334
325 330 332 337 340 341 341 339 337 337 333 331 330 331 329 329 330 330 336 337 335 334 334 337 326 319 322 322 317 317 319 320 321 322 323 326 331 331 332 336 337 337 336 335 334 333 334 333 334
327 332 331 333 335 336 341 340 338 336 334 332 330 332 332 330 328 329 336 336 334 334 333 338 328 320 322 323 318 318 319 321 322 323 325 331 333 334 337 338 337 337 336 335 336 335 335 335 334
333 332 332 332 332 335 336 337 336 335 333 332 329 330 331 329 330 330 333 337 334 334 334 338 334 322 321 323 321 319 320 321 323 324 326 329 333 335 338 337 337 336 334 334 335 335 333 333 333
332 332 329 330 332 332 332 333 333 334 334 333 331 332 332 332 330 330 332 334 336 335 335 338 342 332 321 323 323 321 321 322 324 326 328 330 333 337 336 337 335 332 331 332 332 334 335 332 333
329 331 333 331 332 330 330 331 332 333 333 331 329 332 333 333 330 329 332 332 335 335 336 336 341 341 341 340 328 322 323 324 328 330 331 331 332 334 333 329 327 329 330 329 330 332 333 333 333
330 332 333 332 331 331 331 331 331 331 332 332 331 331 331 330 330 331 333 333 333 333 335 335 337 339 341 340 340 332 327 330 332 334 333 331 334 333 333 331 329 327 328 329 329 329 329 331 331
334 333 332 331 331 331 331 330 330 331 332 331 332 331 331 330 331 332 332 332 333 333 333 335 337 339 340 338 339 343 339 338 338 337 337 336 333 332 332 330 329 327 325 325 327 328 329 331 330
333 334 332 332 331 331 331 331 330 331 331 331 331 331 331 331 331 332 333 332 331 331 333 334 338 339 340 338 339 340 340 338 338 338 337 334 331 332 332 332 331 331 329 328 326 327 328 327 330
331 331 331 332 331 331 331 332 331 331 331 331 331 330 330 330 332 331 331 332 332 331 331 334 336 340 341 338 338 339 338 337 335 334 335 334 333 332 332 331 330 330 329 328 327 327 328 328 327
328 329 330 330 331 331 331 332 331 331 330 330 329 329 330 330 330 328 328 330 332 331 331 334 337 340 342 341 339 338 335 333 331 330 330 333 332 332 332 332 331 330 329 328 327 327 328 328 329
326 325 326 327 328 330 330 330 330 329 328 328 329 327 327 327 327 327 328 329 332 331 331 334 337 340 341 341 339 337 334 330 331 328 330 333 332 332 333 332 331 331 330 329 328 328 327 327 328
326 326 327 327 327 327 328 329 329 328 327 327 327 326 326 327 326 327 326 329 331 332 333 333 337 340 342 340 339 335 331 330 328 329 333 333 334 333 333 332 331 331 330 330 329 327 327 327 327
324 326 329 328 328 328 328 329 327 326 325 326 325 325 326 326 326 325 327 328 329 332 332 333 334 338 341 338 336 331 330 329 329 331 333 334 334 333 333 333 332 331 330 330 328 327 327 327 327
324 326 328 327 327 325 325 327 327 326 325 325 325 326 326 327 327 326 328 329 331 332 333 332 333 337 339 336 333 331 331 329 330 332 332 333 334 333 333 332 330 332 329 329 329 328 327 327 328
324 325 325 327 328 323 324 325 326 326 325 324 326 326 327 327 326 327 328 329 329 332 331 331 332 335 336 334 332 330 330 330 331 332 333 333 334 334 333 332 333 327 327 328 328 328 327 327 328
322 325 326 326 325 326 325 325 326 326 324 325 326 327 328 327 327 329 330 329 329 330 331 331 333 335 333 332 330 330 329 329 331 332 333 334 334 333 332 332 328 327 328 326 327 327 328 327 328
320 321 324 324 324 325 325 325 326 326 326 326 327 327 327 328 329 330 331 330 331 331 331 332 333 334 332 331 330 329 328 330 332 332 334 334 333 332 332 331 330 328 324 326 326 328 327 327 328
320 320 321 321 323 324 324 324 325 325 326 326 326 327 327 326 329 331 332 332 331 331 332 332 334 334 332 332 331 332 333 332 332 333 333 334 333 332 332 331 328 327 326 327 328 328 327 328 329
320 319 319 320 322 324 323 327 325 326 328 327 327 327 327 326 330 332 333 333 332 332 332 333 333 334 333 332 330 331 330 330 332 333 332 332 332 331 331 329 329 328 328 329 329 328 328 328 329
318 319 319 320 322 322 322 325 325 326 327 328 327 327 325 329 331 333 334 333 331 331 332 333 334 333 332 332 331 333 332 332 332 332 332 332 332 331 329 330 329 328 329 329 328 327 328 329 330
317 318 318 320 321 324 323 325 325 327 329 328 326 325 326 332 333 333 333 331 331 331 332 333 333 332 333 332 334 334 334 333 332 332 331 331 331 331 330 329 329 329 329 328 328 328 328 330 331
317 319 321 324 325 327 326 327 328 327 326 325 325 327 333 333 334 334 333 333 332 331 332 332 332 333 332 333 333 333 335 334 333 333 332 332 331 331 330 330 329 329 329 329 329 329 329 330 331
316 321 321 325 327 327 326 327 327 324 324 325 323 326 333 333 335 334 333 333 332 331 331 330 331 331 331 332 333 334 334 333 332 333 332 331 332 330 330 330 330 330 330 329 329 330 330 330 331
318 322 321 323 325 326 327 325 324 324 323 324 327 325 331 334 335 334 334 333 331 331 331 331 330 330 331 333 333 334 334 334 333 332 331 331 331 329 330 330 330 330 330 330 331 331 330 330 331
319 320 323 323 326 327 325 327 328 327 325 328 329 330 333 335 335 334 333 333 331 331 331 330 329 330 332 332 332 334 334 333 333 333 331 331 331 329 330 330 330 330 331 331 331 331 331 331 330
318 321 322 322 323 326 326 325 324 326 327 329 330 333 336 335 334 334 333 332 331 331 331 328 329 330 331 331 332 334 334 332 332 332 331 331 330 329 330 330 331 331 331 331 332 331 331 331 331
319 321 322 323 325 322 323 323 327 328 330 331 334 335 335 334 334 333 333 332 332 331 329 328 329 329 330 330 331 334 333 332 333 332 332 331 331 329 329 329 330 330 330 331 331 330 331 331 331

GFSSGP_925_thetae_027.txt.gz
Theta_e
312 319 327 331 335 331 335 334 337 338 338 336 334 335 335 334 333 334 337 338 335 334 343 325 316 317 316 314 313 314 316 316 316 316 316 317 316 316 317 319 326 329 330 331 332 333 333 333 332
320 323 329 334 333 335 334 334 339 339 339 338 337 335 335 334 333 333 336 338 335 334 343 337 318 318 318 316 314 315 317 317 317 318 319 319 321 321 322 324 327 332 333 333 333 333 334 335 335
326 326 334 334 336 336 338 342 340 339 337 336 335 334 333 333 333 332 337 337 335 334 342 339 325 318 320 319 315 315 317 318 318 319 320 321 324 328 331 333 334 335 335 335 335 334 334 335 335
326 330 332 338 340 339 337 340 338 337 336 334 333 332 332 332 332 332 336 336 335 334 337 341 333 319 320 320 317 315 317 318 319 320 322 325 328 330 330 333 335 337 337 337 336 336 335 335 335
327 332 334 333 332 333 335 337 338 338 336 334 333 332 333 332 331 331 336 336 334 334 334 341 337 321 320 322 319 316 317 319 320 322 324 326 327 328 332 337 338 339 338 338 336 337 336 336 336
331 331 335 333 331 331 334 336 338 338 335 334 332 332 332 331 332 331 333 336 335 334 334 336 337 332 320 322 322 318 318 319 321 323 325 326 327 329 337 339 337 338 337 336 334 335 336 335 333
330 334 333 333 331 331 333 333 335 334 333 333 333 333 333 334 333 332 333 335 336 335 335 335 346 338 328 322 324 322 319 320 321 323 325 327 327 330 338 338 338 337 334 332 331 332 333 336 334
328 331 332 333 333 330 331 332 332 333 333 334 333 333 333 334 333 333 333 334 334 336 336 336 340 347 344 340 336 328 321 321 322 323 326 328 329 329 331 329 331 329 331 331 327 329 331 333 334
328 331 333 333 333 332 331 332 332 332 333 333 332 332 332 332 331 331 332 333 334 334 336 337 336 340 343 340 341 339 331 324 325 328 330 333 335 334 338 337 334 331 330 328 330 330 329 329 331
331 336 334 333 332 332 332 332 332 333 332 332 332 332 331 332 332 332 332 331 331 333 335 335 337 337 341 339 340 345 341 338 338 338 339 341 339 335 334 333 332 330 329 327 326 323 325 329 327
332 336 335 334 333 333 333 332 332 332 333 332 332 332 332 332 332 332 332 330 330 331 333 335 337 338 340 340 339 344 343 340 340 341 340 339 337 332 333 333 334 333 333 333 332 331 331 329 328
330 333 334 333 333 333 333 333 333 332 333 332 332 332 332 332 331 331 331 329 329 329 333 333 336 339 340 340 338 339 341 340 340 339 340 340 336 333 334 333 332 333 332 332 331 330 329 329 329
329 329 330 330 331 332 332 332 333 333 333 332 332 331 331 331 330 328 328 328 328 329 331 333 336 341 342 342 339 339 339 339 338 337 336 336 333 333 334 334 334 333 332 331 330 330 329 329 328
329 329 330 329 329 330 332 332 331 332 332 332 331 330 330 330 329 328 328 328 329 330 331 335 336 341 343 344 343 341 341 337 336 334 333 333 334 334 334 334 334 333 332 332 331 329 329 329 329
328 330 330 330 329 329 329 330 330 330 330 331 330 330 329 328 328 329 328 329 329 329 333 335 336 342 345 345 344 342 340 336 333 333 331 332 336 336 336 334 334 333 331 333 333 332 330 328 328
327 329 331 330 329 329 329 331 330 330 330 331 330 329 328 328 328 328 328 329 329 331 333 335 336 341 345 345 344 342 338 335 331 331 332 336 337 336 335 335 334 334 334 333 332 331 331 329 328
328 330 330 329 329 329 330 331 330 330 330 331 330 329 328 328 329 330 328 327 329 332 334 337 337 339 344 345 344 341 335 333 331 331 333 334 336 335 335 335 335 334 333 333 331 330 331 329 328
327 328 328 328 328 329 330 330 329 329 328 328 329 328 328 328 329 330 329 327 331 334 334 338 339 338 343 344 342 336 334 333 331 332 333 334 335 334 335 336 334 334 334 329 328 331 331 330 330
324 326 327 328 328 328 328 329 329 329 328 328 329 330 329 328 331 329 328 335 334 334 337 338 337 340 343 341 337 334 333 333 332 332 333 335 335 334 335 336 335 334 331 330 330 328 328 329 330
321 323 326 326 327 328 328 329 329 328 328 328 328 329 329 329 330 330 329 336 335 336 337 337 337 340 341 337 334 332 332 331 331 332 334 335 335 334 335 335 335 332 331 330 328 329 329 329 328
321 322 324 326 327 327 328 327 326 327 327 327 327 328 328 329 330 330 330 337 336 336 337 337 338 340 337 335 333 334 333 335 334 332 333 335 335 335 334 334 333 332 330 328 328 329 329 330 329
320 321 323 325 326 327 325 328 327 327 327 327 327 328 329 330 330 329 334 338 337 337 337 338 338 338 335 335 335 334 332 331 332 333 332 335 334 332 333 333 332 331 330 329 330 330 330 329 330
319 320 322 323 324 325 324 326 325 325 325 326 329 329 330 330 330 329 337 337 337 336 336 338 338 336 336 336 333 334 332 330 331 331 334 335 334 334 332 331 331 330 330 331 331 330 329 329 330
319 319 320 323 324 326 326 325 326 326 326 329 329 329 330 329 328 334 337 337 336 335 337 337 337 336 336 334 335 336 335 333 332 334 334 334 336 334 333 330 330 330 332 331 330 328 329 332 332
320 320 321 325 326 328 324 325 326 327 329 329 329 329 327 328 335 337 338 337 336 336 336 336 336 336 335 335 334 334 335 335 335 335 335 335 335 334 333 330 331 332 331 331 330 329 330 330 331
320 321 322 326 327 325 324 325 328 330 328 327 327 327 333 336 337 338 337 337 336 336 335 335 336 335 334 334 334 334 335 335 334 335 334 333 334 334 332 331 332 331 331 331 330 330 331 331 333
320 322 321 324 325 325 327 328 329 330 329 327 325 326 336 336 338 338 337 337 335 335 334 335 334 334 333 333 333 334 335 335 335 335 333 333 333 332 331 332 332 331 332 331 331 331 332 331 329
319 321 322 324 326 328 328 331 330 328 328 326 326 327 333 337 338 337 337 337 335 334 334 334 333 333 332 332 332 333 334 334 334 334 333 332 331 330 331 332 332 332 332 332 333 333 333 333 327
318 321 321 323 324 326 330 329 329 329 328 328 330 329 334 338 338 337 336 335 335 334 334 333 332 331 332 332 332 333 334 333 334 335 333 332 331 330 330 331 332 332 333 333 334 332 329 331 328
318 320 322 328 326 325 328 328 327 327 329 331 331 331 337 338 337 337 336 336 335 334 333 331 331 331 331 331 332 334 333 333 335 334 333 331 330 329 329 330 331 331 331 332 332 332 332 332 332

GFSSGP_925_thetae_030.txt.gz
Theta_e
317 312 322 326 334 331 336 334 334 339 337 335 334 333 334 333 333 338 338 337 338 345 331 319 315 316 315 314 312 313 315 315 315 315 315 315 315 315 317 321 328 330 330 330 331 332 333 333 333
317 321 326 332 333 336 334 332 334 338 339 336 335 336 335 334 333 337 338 335 336 343 335 323 316 316 317 315 313 313 316 316 316 317 317 318 319 320 322 323 325 330 332 333 333 333 333 334 335
324 325 330 332 337 337 334 337 339 340 339 336 334 335 332 334 333 336 338 336 336 343 337 328 317 317 318 317 314 314 316 317 317 318 320 320 321 323 324 326 329 334 335 336 336 335 335 335 334
327 328 329 335 338 336 337 340 341 341 339 335 333 332 333 332 333 333 336 336 335 342 344 337 321 317 318 318 316 314 316 317 318 319 321 323 325 327 328 330 334 335 337 338 338 337 337 336 335
327 329 332 331 332 332 332 335 339 339 338 336 334 332 334 332 332 332 336 336 335 335 342 340 336 319 319 319 318 315 316 317 319 320 321 323 324 327 328 331 336 338 339 339 339 336 337 336 335
328 329 333 335 334 332 331 332 334 336 337 337 334 333 334 332 333 332 334 336 335 335 336 340 336 329 319 320 320 317 316 317 318 320 322 325 325 327 329 334 338 338 338 337 337 335 334 335 335
328 330 332 333 333 333 332 334 333 333 335 334 334 333 334 335 334 333 334 334 336 335 335 338 338 336 326 320 322 321 317 318 319 320 323 324 326 327 327 328 337 337 337 335 331 329 327 331 334
327 328 331 333 335 333 332 331 332 332 332 334 334 334 334 336 333 333 333 333 335 336 336 336 338 338 336 327 323 323 322 319 319 320 322 324 327 327 325 324 331 331 330 330 329 328 326 326 330
326 326 330 332 332 332 332 332 332 331 332 332 333 333 332 331 331 332 332 331 331 333 336 340 340 344 342 343 340 335 326 323 321 323 324 326 330 334 335 337 338 336 333 331 330 328 326 324 324
328 329 329 330 331 332 332 332 333 333 333 333 332 332 331 331 332 332 333 333 332 331 333 338 340 344 346 344 342 340 336 335 326 330 331 330 335 337 337 335 337 335 332 330 330 329 326 326 327
332 331 329 331 333 333 333 334 333 334 333 334 333 333 332 332 333 333 332 331 331 331 330 335 337 338 344 344 341 342 343 341 339 336 337 340 341 341 339 334 333 332 332 332 333 333 329 331 330
328 331 331 331 332 333 333 333 333 333 334 333 334 333 333 333 333 333 332 331 331 330 330 329 338 338 340 343 342 346 346 344 341 340 339 341 340 339 335 332 334 335 334 333 332 332 332 331 331
329 328 329 331 332 333 332 332 331 332 332 333 333 333 334 333 333 331 331 330 329 330 331 331 338 337 339 341 342 345 346 345 342 342 342 343 341 338 335 335 335 335 334 332 333 332 331 330 328
328 328 328 329 329 330 330 331 330 331 332 332 332 333 333 333 332 332 332 331 331 331 329 329 334 338 339 340 342 342 342 344 343 342 342 341 339 335 336 336 335 335 333 333 332 332 331 329 330
325 328 329 330 329 330 330 331 332 330 330 331 331 331 332 332 331 332 330 332 332 331 330 331 336 341 341 345 340 346 342 341 342 339 337 336 334 334 337 336 336 334 334 332 332 332 332 330 328
325 326 329 329 330 330 330 333 332 331 330 331 331 332 332 333 331 330 329 330 332 329 331 331 335 344 345 348 345 341 343 342 339 336 334 332 335 336 338 337 335 334 334 333 332 332 332 332 330
325 328 328 329 329 329 331 332 331 331 331 332 332 332 332 332 332 331 329 330 331 330 332 335 337 349 348 348 348 344 344 340 338 334 333 334 335 337 337 336 335 335 334 333 332 332 331 330 331
325 326 327 329 329 329 330 331 331 332 331 332 333 332 331 331 332 332 330 330 332 335 336 337 340 344 348 349 347 346 343 338 335 332 333 334 336 336 336 335 336 336 333 332 332 331 327 328 329
322 326 326 328 328 329 330 330 330 331 331 331 332 332 332 333 334 332 329 328 337 337 336 340 341 342 348 349 347 344 341 336 334 333 334 334 335 336 335 335 335 334 333 333 331 330 330 328 329
318 322 325 327 326 328 329 330 331 331 331 331 331 332 333 332 332 334 333 332 338 338 339 341 341 341 347 347 345 340 337 335 334 333 333 334 335 334 334 335 334 334 333 331 331 330 328 327 327
319 320 323 324 324 326 327 329 330 330 330 331 330 330 331 331 331 331 333 343 340 340 340 340 341 346 345 342 340 338 334 336 334 335 335 336 335 335 335 334 334 333 331 330 330 329 329 331 329
320 319 319 321 323 326 325 329 332 331 331 330 330 330 331 331 331 332 334 344 341 340 339 341 343 344 342 338 338 335 335 335 335 333 334 336 337 334 332 333 333 331 331 331 329 329 329 329 329
320 318 319 320 322 325 324 328 329 329 329 329 329 329 329 331 332 333 338 343 340 340 340 342 343 342 340 337 335 337 337 335 333 332 335 336 336 335 334 333 332 331 330 330 329 330 328 329 329
319 319 319 321 323 326 327 327 328 327 330 329 329 329 330 331 331 333 342 340 340 339 340 342 341 341 337 336 337 335 334 335 334 333 335 333 334 335 334 333 331 331 330 331 331 330 329 329 329
317 323 324 324 324 325 323 325 327 328 328 328 329 331 331 332 332 341 342 341 340 340 341 341 340 340 337 337 337 337 336 335 335 336 335 336 336 335 334 332 330 332 332 331 330 328 329 329 328
318 322 323 323 324 324 323 326 327 329 328 328 327 328 330 334 339 342 341 340 339 340 340 339 340 339 337 337 336 335 336 336 336 336 335 334 335 334 330 330 331 333 332 330 329 329 329 329 331
318 319 321 325 323 323 325 326 328 329 328 330 328 329 335 341 341 341 340 339 339 339 339 339 339 337 337 336 335 335 336 337 335 336 334 334 334 331 331 331 332 332 332 331 330 330 331 330 327
318 318 321 324 326 327 325 328 329 331 331 332 331 330 340 342 340 340 339 340 339 339 339 338 337 337 336 335 334 334 333 334 334 335 333 333 332 332 332 333 333 333 332 332 331 331 332 328 324
317 319 320 324 323 326 328 327 333 334 332 329 329 330 340 341 340 340 339 339 338 337 337 338 336 335 334 334 334 333 333 333 333 334 334 332 331 331 331 332 333 332 333 332 330 330 328 328 328
316 318 321 324 326 325 326 328 331 329 330 330 330 331 339 340 339 339 339 338 337 337 337 336 334 334 334 333 334 334 333 334 333 334 334 330 330 330 329 331 331 331 332 333 332 332 332 332 328

GFSSGP_925_thetae_033.txt.gz
Theta_e
321 312 316 323 327 329 331 332 329 333 337 332 332 331 332 331 336 341 337 340 339 332 325 318 316 316 317 314 311 314 316 316 315 314 314 315 315 318 319 321 323 323 326 327 330 331 331 332 333
319 318 321 327 329 331 332 329 337 339 336 334 334 334 332 335 336 336 337 339 337 331 324 318 316 316 317 315 312 314 316 316 316 316 316 317 317 317 318 320 326 330 331 331 333 333 333 333 334
320 325 322 327 332 333 331 336 338 338 336 335 334 333 332 333 337 337 337 338 337 331 324 319 317 317 317 316 313 314 316 317 317 317 317 317 318 319 322 323 326 331 334 334 336 336 335 335 335
322 327 323 330 334 334 334 335 338 339 338 335 333 332 331 333 334 337 336 335 338 335 327 321 317 317 317 317 314 313 316 317 317 318 318 319 319 320 321 324 328 333 336 337 338 338 338 337 336
325 325 326 329 331 333 332 333 337 338 339 336 335 333 332 331 335 335 337 335 336 338 331 324 318 317 317 317 316 313 315 317 318 318 319 320 321 321 322 325 328 333 337 339 339 338 337 336 336
323 324 328 330 331 331 331 330 337 337 336 335 335 334 332 331 334 335 335 335 335 335 338 328 323 320 318 318 317 315 315 316 318 318 319 320 321 322 323 324 327 332 339 338 336 337 334 332 332
328 325 326 328 329 330 331 329 328 329 329 333 332 333 332 332 332 334 335 335 336 335 335 337 328 324 321 319 320 318 315 316 317 318 319 321 322 322 323 323 323 330 336 334 330 327 326 325 326
328 323 325 326 328 330 330 330 329 330 331 333 333 333 332 331 333 333 333 335 334 337 335 338 336 331 324 320 320 320 319 316 317 319 320 322 324 324 324 323 323 328 330 330 328 328 327 325 325
332 326 324 325 327 328 329 329 330 331 331 331 332 332 331 332 333 333 332 331 334 336 336 337 336 335 331 324 320 320 321 319 317 319 321 325 326 326 325 326 333 335 334 332 331 330 330 326 326
336 328 325 324 325 327 329 330 331 332 332 332 332 332 331 331 331 331 331 330 331 330 339 336 337 336 336 333 327 322 322 323 323 322 324 327 326 326 326 334 336 336 337 335 331 330 330 328 327
330 332 328 326 326 327 329 331 332 332 332 332 332 332 331 330 329 331 330 330 330 330 332 340 337 337 337 338 337 333 329 329 328 326 325 327 327 326 335 337 337 333 335 334 331 331 332 329 330
326 329 330 328 327 327 329 330 331 331 329 328 329 330 330 330 328 329 329 330 330 330 330 335 340 338 340 343 341 338 335 333 329 328 329 329 333 337 339 339 337 334 334 332 333 332 332 331 331
326 325 326 328 329 329 329 330 331 331 329 328 328 329 328 328 327 330 330 329 329 330 330 330 336 340 341 345 343 342 340 339 337 336 332 332 336 339 342 337 332 334 335 334 334 333 332 331 330
322 326 327 326 325 326 327 327 328 328 327 328 327 327 327 327 327 328 329 329 329 330 331 329 330 335 341 345 342 342 342 341 340 341 339 337 338 341 340 335 335 336 334 333 332 333 332 331 329
318 321 322 323 326 326 326 327 327 327 327 328 327 326 326 326 326 326 329 329 330 332 330 328 328 330 336 342 342 343 344 344 344 342 340 340 342 342 338 335 336 336 335 334 332 332 332 332 330
321 321 322 321 323 324 326 328 327 327 327 328 328 328 327 326 326 328 329 329 331 330 329 328 331 334 339 341 344 344 344 345 345 343 343 344 343 339 333 335 336 335 334 334 333 332 331 331 331
319 323 322 323 323 324 326 327 327 327 327 328 328 328 327 327 326 328 330 329 327 327 328 331 335 336 341 342 341 346 344 343 343 337 336 335 334 333 334 336 336 336 335 334 333 332 331 331 330
320 322 322 323 323 324 325 325 326 326 326 327 327 328 328 328 326 326 328 328 330 330 333 333 338 340 344 346 345 343 345 343 337 335 334 333 332 333 335 335 335 335 334 334 332 331 330 330 329
318 322 323 323 323 324 324 325 326 326 325 325 325 325 325 326 325 327 329 331 334 336 336 339 343 347 347 348 347 345 341 338 337 334 332 334 334 335 336 335 335 336 335 333 332 331 330 328 327
316 316 316 319 323 323 324 325 326 326 325 325 325 326 325 327 327 327 330 331 336 336 339 342 345 349 349 347 347 346 342 338 336 334 332 333 336 336 335 333 333 334 333 333 332 330 329 328 327
315 315 315 316 318 319 320 321 322 322 324 325 325 324 325 326 325 326 325 336 338 339 341 342 345 349 348 347 345 343 339 337 335 334 333 334 334 335 334 333 333 332 332 332 331 330 329 328 327
316 316 317 317 318 318 320 321 321 321 322 323 324 324 324 322 324 324 324 336 339 340 340 340 344 347 346 345 341 339 338 337 336 335 334 335 335 335 332 332 331 332 330 330 330 329 329 328 328
315 317 317 317 317 316 318 319 320 322 325 325 324 324 323 323 324 324 324 338 339 340 341 344 345 344 341 340 339 337 334 334 335 335 334 336 335 334 333 333 332 331 330 330 329 329 328 329 328
314 316 316 316 316 318 318 319 319 319 321 324 324 324 323 322 322 330 338 339 339 341 343 343 343 341 340 337 335 334 335 337 334 336 336 335 334 334 334 333 331 331 330 329 330 330 329 329 328
310 312 314 318 318 319 318 320 321 320 322 323 323 323 322 323 328 339 339 338 338 340 341 341 340 340 337 338 335 336 335 334 336 336 335 335 335 333 334 332 330 330 330 330 330 330 328 329 329
308 312 314 319 320 318 318 320 319 320 321 322 323 322 329 330 337 338 338 337 338 340 340 340 340 337 337 337 335 335 335 334 336 336 335 335 333 334 332 330 330 331 332 331 329 329 328 329 328
308 309 313 314 317 318 318 319 319 319 319 322 323 328 337 339 338 338 336 336 339 339 339 340 338 336 337 335 335 335 335 336 334 334 334 333 334 329 330 330 331 332 332 330 329 329 330 330 328
316 311 314 314 316 319 321 319 320 321 323 321 325 331 338 338 337 337 336 337 338 338 339 339 337 337 337 335 334 334 335 335 335 334 332 333 331 332 330 332 333 332 331 331 331 330 329 328 326
315 311 310 313 315 318 322 321 320 321 321 323 326 338 337 336 336 336 337 337 338 338 337 338 337 336 336 334 333 333 333 333 334 333 332 332 331 331 332 332 332 331 332 331 329 330 329 326 326
313 314 310 313 317 318 320 320 324 326 326 325 333 338 336 335 336 336 336 336 336 336 338 337 336 335 335 333 334 333 334 334 332 333 331 330 330 329 329 331 331 331 331 331 330 328 327 329 327

GFSSGP_925_thetae_036.txt.gz
Theta_e
324 317 315 323 326 327 330 332 329 331 333 334 331 330 330 331 335 337 335 339 340 331 323 320 315 315 315 312 313 315 315 314 314 314 313 314 314 314 314 315 316 319 324 326 326 326 328 331 332
321 318 320 325 326 330 329 327 330 337 336 333 331 330 334 338 336 335 340 341 340 328 323 320 316 316 316 313 313 315 315 315 315 315 315 315 315 315 315 316 318 321 327 329 331 333 333 333 332
318 324 320 326 328 329 328 333 338 336 334 336 335 332 332 336 336 336 337 340 336 327 323 319 316 316 316 314 312 315 316 316 316 316 315 316 316 317 317 319 322 329 332 332 335 335 335 335 335
321 325 321 327 332 331 331 331 332 336 335 336 336 333 330 332 336 337 339 339 337 327 324 320 317 317 318 315 313 315 316 317 317 316 316 316 317 317 318 320 323 329 335 336 336 337 338 338 337
324 322 325 327 329 330 331 330 329 336 337 338 337 334 331 333 336 336 338 339 336 327 323 321 319 318 318 317 314 314 316 317 317 318 317 318 318 319 319 319 321 327 334 337 338 339 337 335 335
321 320 326 328 328 328 329 328 331 336 336 337 336 335 330 333 336 336 337 337 335 332 324 321 319 318 318 319 317 314 315 317 318 318 318 319 319 320 321 321 320 326 336 339 339 338 336 332 331
324 323 325 326 328 328 329 328 329 334 333 333 331 333 329 330 335 336 336 335 335 334 331 323 320 318 318 319 319 315 314 316 317 318 318 319 320 321 322 322 322 325 331 336 336 333 331 328 325
325 322 325 324 326 327 328 327 326 328 332 332 332 333 331 329 333 335 337 336 336 335 335 330 323 319 318 319 319 318 315 315 316 317 318 319 321 322 324 323 323 323 329 332 329 328 328 329 327
328 327 323 323 325 326 325 326 328 328 330 330 331 330 331 332 331 333 332 333 338 339 338 335 328 322 319 319 319 319 318 315 316 317 318 319 322 324 325 324 324 324 329 333 332 330 330 330 329
332 335 331 323 323 323 323 324 325 329 331 331 331 330 330 331 333 330 328 328 331 337 338 338 336 328 324 322 321 319 320 318 316 317 319 320 322 324 325 325 326 332 334 336 335 332 330 330 328
331 338 334 330 325 324 325 325 326 328 329 330 330 330 329 330 327 327 328 328 329 331 337 337 337 337 334 331 326 327 324 323 321 319 319 321 322 326 327 325 330 335 335 336 336 332 330 331 329
329 330 332 331 329 327 326 326 326 327 328 328 327 328 329 329 327 326 326 329 329 329 330 333 336 337 337 338 334 331 331 328 328 325 322 323 325 326 326 325 335 337 336 334 335 332 331 331 331
321 326 326 327 328 328 327 327 328 328 328 328 327 326 326 327 326 328 329 330 330 329 329 329 335 337 338 340 338 337 335 332 329 330 328 325 326 327 325 333 338 338 336 334 334 332 332 332 331
315 316 321 323 323 323 326 326 326 327 326 326 326 325 325 325 324 325 326 327 328 329 329 328 334 336 339 339 339 338 339 338 334 332 329 328 329 328 328 338 340 334 332 334 333 333 333 333 331
314 315 317 318 319 324 324 326 326 325 325 325 325 325 324 323 323 323 326 327 328 329 329 329 330 334 339 340 340 341 341 341 338 334 333 332 333 331 332 339 338 334 335 334 333 333 332 332 331
318 316 317 318 319 320 321 324 326 325 325 325 325 325 326 325 324 326 327 327 328 328 328 330 329 331 336 341 342 342 342 342 341 340 339 340 338 334 339 340 336 335 336 334 333 332 332 331 331
314 321 321 321 320 321 321 323 323 323 324 324 324 325 325 325 324 324 327 327 329 328 329 330 328 329 331 338 341 342 343 343 342 342 341 341 340 339 341 339 334 335 335 334 334 333 332 331 331
317 318 320 322 321 321 322 322 322 322 323 323 323 324 324 325 325 324 326 327 328 328 330 329 330 331 334 340 343 343 343 344 344 344 343 342 342 342 339 333 334 335 335 335 334 333 332 331 330
316 317 320 320 320 321 322 322 322 323 322 322 323 323 324 324 324 325 326 325 326 327 331 332 332 337 340 343 346 345 344 343 340 339 340 339 342 332 332 334 334 334 335 334 332 332 331 330 330
313 314 315 315 315 319 321 322 322 322 322 322 323 323 322 321 321 322 324 328 331 332 334 335 336 340 344 345 344 344 341 337 336 335 334 333 332 333 335 335 336 336 335 332 332 331 330 329 328
313 313 314 315 314 315 314 316 316 318 319 319 320 321 321 321 321 322 323 327 332 335 337 340 343 345 347 346 345 342 339 337 335 333 334 334 334 335 335 335 334 333 333 331 331 330 330 328 327
312 313 314 314 315 315 316 316 316 317 318 318 319 319 318 320 321 321 321 331 334 337 341 344 346 348 347 346 345 342 338 335 335 334 333 334 336 336 335 334 332 331 331 331 330 329 329 328 327
311 313 315 315 315 314 315 314 316 316 318 319 318 318 320 320 319 318 320 331 335 339 341 346 348 348 346 345 344 342 337 336 334 334 334 335 335 334 334 332 332 331 330 330 330 330 329 328 328
308 311 313 313 313 315 315 314 316 315 316 317 320 320 319 319 318 325 328 336 337 340 342 345 346 345 344 342 340 337 335 334 334 335 335 335 335 334 334 333 332 330 330 329 329 328 328 328 328
306 306 310 312 315 317 315 315 316 316 316 316 317 318 319 318 322 335 336 336 338 341 342 342 341 340 339 337 335 334 334 334 334 335 335 334 334 333 333 333 332 330 329 329 329 330 329 328 328
304 305 309 313 316 316 315 316 316 316 317 317 318 319 319 322 327 335 336 337 339 339 340 340 339 338 336 335 335 334 334 335 335 334 334 334 333 332 333 332 330 329 331 331 329 329 328 329 329
310 305 305 308 311 314 316 316 317 317 317 317 317 318 329 335 335 336 335 337 338 338 338 338 336 337 335 335 335 333 333 335 335 334 334 332 333 332 330 329 330 330 331 331 328 329 328 328 329
309 312 309 307 313 314 316 317 318 317 318 317 316 321 335 335 335 335 336 337 337 336 338 337 336 335 334 334 334 334 335 334 334 334 333 333 331 329 330 330 331 332 331 331 330 329 329 328 326
308 312 310 308 309 314 315 316 316 318 317 318 318 330 336 336 336 336 337 336 336 336 337 336 336 335 334 334 334 333 335 334 334 332 332 331 331 331 330 332 332 331 331 331 331 330 329 327 324
309 312 311 309 309 313 314 315 316 316 318 318 321 337 336 336 335 337 336 335 335 336 336 336 335 335 334 333 333 333 333 334 332 332 331 331 331 330 330 331 331 331 331 330 328 329 327 327 326

GFSSGP_925_thetae_039.txt.gz
Theta_e
324 321 314 321 324 326 329 328 327 330 333 333 331 328 333 332 336 332 332 335 337 331 326 320 316 313 312 311 313 314 313 313 313 313 312 312 312 312 311 312 313 314 317 320 321 321 320 325 329
323 316 320 323 324 329 326 326 327 330 336 334 330 331 334 336 334 336 335 337 338 334 324 320 316 314 314 312 314 314 314 314 313 313 313 313 313 313 313 314 315 320 328 328 329 330 331 332 332
319 324 320 326 326 326 326 327 336 333 332 333 335 330 333 336 335 335 336 336 340 337 324 320 316 316 315 313 314 315 315 314 314 314 314 314 314 314 314 315 317 322 330 331 333 335 335 335 335
323 323 319 326 330 329 326 330 329 330 330 333 335 333 330 333 335 335 336 338 339 329 323 321 317 316 317 314 313 315 316 315 315 315 315 315 315 316 316 317 320 322 329 334 335 337 337 338 337
324 319 323 326 327 328 329 328 326 327 331 336 335 332 332 333 335 336 336 338 337 328 324 322 318 316 317 315 313 315 316 316 315 316 316 316 316 317 318 319 321 325 334 336 337 337 338 338 336
321 320 325 326 326 327 327 326 326 331 335 336 335 330 332 334 336 337 338 338 337 327 324 322 319 317 317 317 315 314 315 316 316 316 316 317 317 318 319 320 321 327 333 336 338 338 336 334 332
322 322 325 325 327 326 327 326 328 326 332 334 332 334 329 330 336 336 336 337 338 331 325 323 320 317 317 318 316 313 314 316 317 317 317 318 318 319 320 321 322 325 328 332 337 338 334 334 330
322 321 325 323 325 326 326 326 326 326 328 328 331 333 330 328 335 339 339 339 338 334 327 324 321 317 317 318 317 315 313 315 317 317 318 318 319 320 321 322 323 324 326 330 332 332 330 332 330
321 323 323 324 323 325 323 323 326 326 328 328 328 329 329 330 333 336 341 341 339 337 331 327 324 320 318 318 317 317 314 314 315 317 317 318 320 320 322 322 323 324 323 329 333 332 330 331 331
330 328 326 322 322 323 323 323 323 325 327 327 328 329 330 331 330 329 328 334 337 339 337 333 328 323 320 322 322 319 317 315 314 316 317 319 320 320 322 323 324 324 325 329 334 334 332 331 330
330 335 329 326 324 327 327 325 323 325 326 325 328 328 327 327 327 327 328 329 333 336 337 337 335 330 326 325 326 323 322 321 318 316 317 320 322 322 325 324 325 326 330 334 335 336 334 331 330
329 330 332 332 332 331 329 328 326 324 325 325 326 326 326 326 324 324 326 328 328 330 333 335 336 337 333 328 327 326 325 324 324 321 320 321 324 324 324 325 324 325 333 335 335 335 335 331 330
323 326 326 329 330 330 328 329 328 327 326 327 327 326 325 324 323 325 326 328 329 326 326 330 335 337 338 335 331 330 327 327 329 328 326 323 324 325 324 325 324 325 334 336 336 335 335 331 331
314 316 319 320 320 322 325 326 327 327 327 326 325 324 322 322 322 323 324 325 326 327 328 327 329 334 338 338 336 335 334 333 333 331 330 329 327 326 323 324 323 326 337 338 334 334 333 332 332
312 313 314 315 315 317 321 322 324 324 324 324 324 323 322 321 321 321 324 325 326 326 327 326 326 331 336 337 338 338 337 337 336 334 332 331 331 328 324 324 324 333 338 333 333 334 332 332 332
315 313 315 316 316 317 319 324 323 323 325 325 324 323 322 321 321 323 324 325 326 326 327 327 326 327 334 338 338 339 339 339 338 337 336 334 332 330 330 329 326 339 337 333 334 333 331 331 331
313 319 318 318 317 318 319 323 323 321 322 322 322 322 322 323 321 323 324 325 326 327 327 326 327 327 332 338 339 340 339 340 340 339 339 336 333 333 333 332 332 337 335 335 334 333 332 331 331
316 317 318 320 319 319 320 321 321 321 321 321 320 321 321 321 321 322 323 324 324 325 325 326 327 328 332 338 341 341 340 341 341 341 340 338 338 339 337 334 338 335 334 335 334 333 332 332 331
312 314 316 318 318 320 320 320 320 320 320 320 321 321 321 321 320 321 322 324 324 325 325 326 327 328 330 337 340 340 341 342 342 342 341 340 341 340 338 339 337 333 334 334 334 333 332 331 330
310 311 312 314 315 315 315 318 317 318 320 319 319 320 320 320 320 320 320 321 323 324 326 326 328 329 334 337 340 341 340 341 342 343 343 343 342 341 340 337 333 334 334 334 333 332 330 329 329
310 311 312 313 314 313 313 314 314 314 315 317 319 319 319 319 319 319 318 320 324 327 328 329 331 334 341 341 343 341 340 339 337 340 341 340 339 339 332 331 332 335 334 332 332 331 330 328 327
307 310 312 314 313 315 313 315 313 314 314 315 314 316 315 316 318 317 318 317 324 328 331 335 338 341 343 343 343 339 335 333 334 335 335 333 333 336 332 334 335 334 333 332 331 330 330 328 325
308 308 311 312 312 313 313 313 313 313 313 313 314 315 314 316 316 315 315 316 324 330 335 341 343 345 345 344 342 339 336 335 334 333 333 334 334 334 335 335 333 332 331 330 329 329 328 328 327
306 307 309 310 311 313 313 314 313 312 314 314 314 314 315 314 314 314 316 320 332 335 341 343 345 345 345 344 342 341 339 335 333 333 333 334 335 334 334 333 332 331 330 329 329 329 328 328 328
305 304 306 311 312 314 313 313 314 313 314 314 313 313 313 313 313 317 330 331 334 338 342 344 344 341 343 343 342 340 338 335 334 333 334 334 334 334 333 333 332 331 328 329 328 329 328 328 328
302 303 306 312 315 312 313 315 315 314 314 314 314 313 313 313 312 316 330 333 336 338 339 340 340 337 340 340 337 335 333 334 334 334 334 334 333 333 332 332 332 330 328 329 329 329 329 328 328
309 304 304 305 307 308 313 313 314 315 315 314 313 313 312 313 322 330 333 336 338 337 337 338 337 335 334 333 333 333 333 333 333 333 333 333 333 332 332 332 329 329 330 330 329 329 328 327 328
307 309 305 303 309 312 312 313 315 314 314 314 314 313 312 327 332 333 336 336 336 336 336 336 335 334 333 333 333 333 334 334 333 333 333 332 332 329 328 329 329 330 331 331 330 328 328 329 328
307 310 310 305 307 311 312 313 313 314 314 315 314 314 314 330 333 336 336 334 335 335 334 334 333 333 333 333 333 334 334 333 333 332 332 331 329 329 329 329 331 331 331 330 330 330 329 328 326
307 310 310 309 311 308 310 311 312 312 311 311 314 317 325 333 334 336 335 334 334 333 333 333 333 333 333 332 332 334 333 333 332 331 332 330 330 330 329 331 331 330 330 331 330 329 329 328 324

GFSSGP_925_thetae_042.txt.gz
Theta_e
323 322 313 320 321 324 326 324 324 326 330 332 330 331 335 333 332 332 330 333 329 332 329 320 315 314 313 311 312 312 312 312 312 312 311 311 311 310 310 311 311 311 313 314 314 316 318 319 321
323 316 321 321 320 327 319 325 327 324 333 331 330 329 332 332 332 332 331 335 332 329 328 321 316 314 314 312 313 313 313 313 313 312 312 312 312 312 312 312 313 315 319 322 321 324 326 329 330
320 322 320 325 322 324 321 326 328 331 330 331 334 329 332 334 334 332 333 335 336 330 326 321 317 315 314 312 313 313 313 313 313 313 313 313 313 313 313 314 315 318 325 328 330 332 333 334 335
323 322 318 325 329 326 323 328 328 327 327 329 333 331 329 332 334 332 331 334 336 330 327 321 318 316 315 312 313 314 314 313 313 314 314 314 314 314 314 315 317 324 331 333 333 335 336 337 336
322 318 322 324 325 326 326 326 325 326 326 332 334 331 331 332 335 333 331 334 335 334 330 321 319 316 316 314 313 314 314 314 314 314 314 315 315 315 316 316 319 325 333 334 334 336 336 338 336
320 319 324 322 323 325 323 323 325 326 328 335 333 330 333 331 336 334 334 333 337 336 332 323 320 317 317 316 313 313 315 315 314 315 315 315 316 317 317 318 319 326 333 335 336 334 335 333 331
321 320 324 325 326 326 325 323 325 326 326 333 332 331 329 327 334 337 337 336 337 336 329 324 322 317 316 317 315 313 314 315 315 315 316 316 317 318 318 319 319 324 330 332 333 336 335 330 330
319 321 325 323 325 324 324 324 325 326 328 327 329 332 332 327 333 337 338 338 338 335 329 325 325 322 316 316 315 313 313 315 316 316 316 316 317 318 319 320 321 322 326 329 332 333 332 330 330
318 321 322 323 323 323 322 322 323 323 326 327 327 328 328 328 333 339 340 339 339 337 333 328 326 324 319 318 319 316 313 313 315 316 317 317 318 318 319 321 322 323 323 327 331 332 331 330 330
326 323 321 320 322 322 322 324 323 324 324 325 327 327 328 329 329 332 335 336 338 338 337 334 329 326 324 321 323 323 318 317 315 316 317 318 319 319 319 321 322 323 323 324 330 333 333 331 330
329 333 327 323 321 322 325 325 324 324 324 323 325 326 324 326 325 326 329 334 336 335 337 336 334 329 326 324 323 326 323 321 318 316 317 321 321 321 322 323 323 324 324 326 330 332 335 333 331
328 329 330 330 326 331 327 327 327 325 325 324 323 323 325 324 323 323 324 329 332 334 335 335 336 335 330 328 326 324 325 325 323 320 321 324 325 324 323 324 324 324 325 328 333 334 335 335 333
329 327 328 330 330 331 331 331 329 328 327 326 325 325 325 324 323 323 325 325 326 328 331 332 334 335 336 334 331 328 327 328 328 327 325 327 327 328 323 324 324 324 325 327 333 335 335 335 333
314 319 324 323 322 321 323 323 323 325 325 325 325 326 323 322 321 321 322 324 325 325 327 327 327 327 333 336 336 333 331 331 330 328 329 329 329 329 324 321 324 324 325 325 333 336 336 335 333
311 313 312 313 315 317 321 324 324 323 323 323 323 323 323 321 320 320 322 322 324 325 325 324 325 324 327 331 336 336 334 332 332 331 331 331 332 330 327 319 321 324 322 323 334 337 335 334 333
313 311 314 315 313 314 319 323 323 322 323 323 323 323 323 323 320 322 323 323 324 324 324 324 324 324 326 329 333 337 336 335 334 334 334 334 333 331 330 325 323 322 323 326 336 333 333 333 332
312 316 314 315 315 316 317 320 321 322 321 321 320 319 320 319 319 320 321 322 323 323 323 324 324 323 325 327 334 338 338 337 337 337 336 336 335 333 332 330 326 324 326 333 335 332 333 333 330
313 315 316 317 317 316 317 318 318 318 319 320 320 320 319 319 319 319 321 322 322 323 323 323 324 324 324 329 336 338 338 338 338 338 338 338 337 336 334 333 330 330 333 336 334 334 333 332 332
311 312 315 316 317 318 317 317 318 317 317 318 318 319 320 320 320 319 321 322 322 323 323 323 323 324 325 334 338 339 339 339 339 339 339 339 339 336 334 334 333 333 337 334 333 334 333 331 330
309 310 311 312 312 314 313 313 312 313 313 316 318 318 318 317 316 317 319 321 321 321 321 323 323 323 326 332 338 339 339 338 340 340 340 341 339 337 338 337 336 338 335 333 334 333 330 328 329
309 309 311 312 312 312 313 314 315 314 312 313 313 314 316 317 317 317 317 317 319 319 321 322 326 325 329 333 337 339 339 339 340 340 341 340 340 340 339 339 339 336 333 334 333 331 332 326 327
306 309 311 312 312 313 312 316 314 314 313 313 312 312 313 313 315 316 315 314 317 319 320 323 330 330 333 337 338 338 339 336 339 341 341 341 341 340 340 338 333 332 333 334 332 331 330 328 326
306 306 307 310 310 311 312 311 313 311 312 312 312 312 312 311 313 312 312 314 316 317 321 329 336 337 339 340 340 340 339 338 339 340 340 339 339 340 335 331 332 334 334 332 331 330 329 328 326
306 307 306 308 309 311 310 311 312 310 310 310 311 311 311 311 310 310 311 313 315 322 330 337 340 341 341 341 340 339 337 334 334 335 334 333 332 333 334 333 334 333 331 330 329 328 328 328 327
304 302 306 308 310 311 310 312 311 310 312 311 312 311 310 310 310 310 310 320 325 331 336 340 341 340 341 340 339 337 336 335 334 333 333 333 334 334 334 333 332 331 330 329 328 328 328 327 328
302 302 305 311 313 309 310 313 312 311 312 312 311 310 310 309 308 309 309 320 328 334 338 339 340 339 339 339 337 336 336 334 333 332 332 333 333 334 333 333 332 331 329 328 328 328 328 328 328
304 302 303 304 306 305 309 310 311 311 312 312 312 311 310 310 310 310 324 329 334 335 337 338 338 338 338 337 336 334 334 333 333 333 333 334 333 333 332 332 331 330 328 329 329 328 328 328 327
305 303 304 301 306 309 309 310 312 312 312 311 312 311 310 311 311 329 333 334 334 335 337 337 337 337 335 335 334 333 333 333 333 333 333 332 332 331 331 331 329 328 329 330 329 328 328 328 327
307 307 307 303 304 309 311 310 309 311 311 311 310 310 311 319 320 332 333 333 333 333 334 334 333 332 332 333 333 333 333 333 332 332 332 331 330 328 328 328 329 329 330 330 330 329 329 328 328
306 307 308 310 310 307 307 308 308 309 310 312 313 314 319 329 330 333 333 333 333 332 331 331 331 331 332 332 332 332 332 332 332 331 331 329 328 329 329 330 330 330 330 330 330 330 329 328 326

GFSSGP_925_thetae_045.txt.gz
Theta_e
317 322 316 322 321 326 323 320 324 331 333 333 332 339 337 336 335 339 333 331 329 334 333 320 317 316 313 311 312 312 312 312 311 311 310 310 310 310 310 310 310 312 313 315 315 315 317 317 319
323 317 322 325 322 321 319 323 328 324 333 332 333 331 338 340 334 335 333 333 330 332 329 322 316 315 312 311 312 312 312 312 311 311 311 311 311 311 311 312 314 316 316 316 316 320 324 327 328
321 319 323 327 321 320 320 325 324 330 330 330 333 332 334 336 336 335 332 332 329 333 326 322 317 315 313 312 312 313 313 312 312 312 312 312 312 312 312 313 314 318 322 320 321 325 328 331 332
321 324 323 326 326 322 322 329 331 329 329 331 332 333 330 333 336 335 330 331 331 332 327 323 318 315 314 312 313 313 313 312 312 313 312 313 313 313 313 315 316 323 328 329 331 332 332 333 335
322 323 321 324 322 325 328 327 328 327 328 330 336 336 334 335 334 331 329 332 333 331 330 323 319 316 314 313 312 314 314 313 313 313 313 314 314 314 314 316 317 320 326 331 333 333 334 336 337
322 324 325 319 321 322 324 326 326 326 327 331 337 333 336 335 338 338 335 333 336 332 330 325 320 317 314 314 312 313 314 313 313 314 314 314 315 315 315 316 318 321 327 333 335 334 333 334 330
321 326 322 323 321 320 321 323 324 326 330 333 334 334 335 332 337 335 335 335 335 334 330 328 325 320 315 314 313 312 313 314 314 314 314 314 315 316 316 317 318 320 323 328 332 332 334 332 330
320 324 320 321 320 321 325 326 326 328 330 329 331 335 334 332 338 337 337 337 336 336 336 332 326 333 325 325 315 313 313 314 314 314 314 315 316 316 317 318 319 320 322 329 332 332 333 331 330
321 321 321 321 322 320 324 324 325 325 326 327 329 331 330 334 340 341 341 340 339 337 336 335 330 332 337 338 335 318 314 313 314 315 315 316 330 331 328 325 321 320 322 326 332 334 333 331 330
328 327 323 321 321 323 322 324 326 326 327 327 328 329 327 329 334 338 340 340 340 340 338 335 329 328 332 332 331 337 337 334 326 327 332 328 334 335 332 331 321 322 324 325 330 333 334 333 336
329 331 326 323 321 322 323 323 324 325 326 327 327 328 327 327 328 329 330 335 338 339 339 337 335 331 331 334 333 333 339 336 335 333 332 335 336 335 333 333 332 333 329 333 333 336 339 338 337
324 326 328 328 325 325 323 324 325 325 326 326 327 327 327 327 329 329 329 329 330 332 335 336 336 336 334 331 332 333 334 336 335 336 336 333 336 335 333 333 332 335 333 335 336 337 339 340 339
324 322 324 326 328 329 330 332 331 331 330 330 331 330 329 329 329 328 328 328 328 326 325 328 331 334 335 335 334 332 331 334 334 335 336 333 333 335 334 333 332 332 330 329 334 337 339 339 339
321 323 323 324 328 329 330 329 330 329 329 329 328 328 327 327 328 327 327 327 327 325 325 326 326 328 330 331 334 334 334 335 336 336 335 336 333 335 334 333 333 326 323 324 333 335 338 338 337
315 318 318 322 325 327 326 329 329 327 326 326 326 326 327 327 326 326 326 328 328 325 324 325 325 324 324 325 327 332 335 336 336 337 336 336 336 336 334 332 332 327 326 324 327 329 336 338 335
314 315 318 319 316 320 323 327 327 325 325 325 325 326 326 327 327 326 326 327 324 323 323 323 323 323 323 323 324 332 337 337 337 337 337 337 336 335 335 333 332 327 331 325 331 330 337 338 335
315 316 318 318 318 318 320 324 323 323 323 326 327 327 326 326 326 326 325 324 321 321 322 323 322 322 322 323 327 335 337 337 337 338 337 338 337 335 335 334 333 328 330 326 330 332 337 335 333
314 315 316 317 318 318 319 321 321 322 322 324 324 324 324 325 325 324 324 322 321 321 321 322 322 321 321 328 334 338 339 339 339 338 338 338 338 336 336 335 334 332 329 330 327 335 336 335 336
314 315 316 316 318 319 320 321 321 321 321 321 322 323 324 324 323 323 322 322 321 321 321 321 321 322 322 334 337 338 339 340 339 339 340 339 339 338 336 337 334 331 329 328 330 337 336 335 331
312 313 314 314 315 317 319 320 319 318 319 320 321 322 323 323 323 325 323 323 323 323 321 321 320 321 324 333 338 340 340 339 338 340 340 340 339 338 337 337 333 331 332 336 337 335 335 335 331
312 313 314 314 315 315 316 318 319 319 318 319 319 319 320 321 321 323 324 323 324 324 321 320 319 321 325 332 338 339 339 339 340 341 341 340 339 337 338 336 335 335 338 337 336 335 334 331 327
311 310 312 313 315 318 316 319 318 318 318 318 318 318 319 320 319 321 323 325 324 323 323 318 320 325 330 334 339 340 341 341 341 341 341 340 340 340 337 337 337 338 338 336 335 332 330 330 330
309 309 310 310 312 313 315 315 316 317 317 317 317 317 318 318 318 319 319 321 320 321 321 320 329 336 337 338 339 340 341 341 341 341 342 342 340 339 339 338 338 337 335 334 335 331 330 328 331
308 308 310 311 312 313 313 314 316 316 316 316 316 316 316 317 317 317 318 317 318 318 322 333 339 341 339 339 340 341 341 340 341 342 342 341 340 339 337 334 332 333 334 334 333 332 331 329 330
306 309 310 310 312 313 312 312 314 315 315 315 316 316 317 318 318 319 319 320 320 324 332 338 341 341 341 340 340 341 340 341 342 341 339 337 336 338 337 335 335 335 333 332 331 331 330 330 330
306 307 309 308 311 311 310 312 313 314 315 316 316 317 318 320 321 321 321 319 319 326 335 339 342 342 340 339 338 338 338 339 338 337 337 336 336 336 334 335 334 333 332 331 330 330 330 330 330
306 307 308 308 310 310 311 311 312 313 314 314 315 317 320 321 324 329 327 329 328 334 337 341 342 341 340 339 337 337 337 337 336 336 335 336 336 335 334 334 334 333 332 331 330 330 330 330 330
308 308 307 307 310 310 311 312 313 315 315 316 317 317 318 320 327 334 331 335 335 338 341 342 341 340 339 338 338 337 336 335 334 335 335 335 335 334 334 334 333 332 331 331 332 331 331 331 330
308 309 308 308 309 310 312 314 315 315 316 317 317 317 318 319 329 336 335 334 337 340 341 341 340 338 337 336 335 335 335 335 335 335 335 335 334 333 333 332 331 331 331 332 332 332 331 331 329
310 310 310 311 309 309 310 311 313 315 315 316 316 316 318 321 330 335 334 334 339 341 340 339 338 337 336 335 335 335 335 335 335 334 334 332 331 331 330 331 331 331 332 332 332 332 331 330 328

GFSSGP_925_thetae_048.txt.gz
Theta_e
316 327 318 323 326 323 324 323 325 335 337 336 336 338 338 339 340 342 338 341 340 340 344 326 319 317 315 315 313 313 312 313 313 315 318 320 318 316 314 311 310 311 324 328 326 322 321 327 328
324 326 320 324 323 324 323 325 327 332 336 333 334 338 338 340 338 337 336 340 340 342 345 337 319 316 315 314 313 313 313 312 312 312 312 312 312 311 310 310 310 312 322 324 325 327 325 324 326
328 320 323 322 323 323 324 324 326 332 333 334 335 335 338 341 339 335 339 339 340 343 344 339 318 316 315 314 313 313 313 312 312 311 311 311 311 311 311 311 312 316 324 325 326 326 328 330 331
323 322 322 325 323 323 324 330 328 335 332 333 334 336 335 336 339 336 338 338 340 341 343 339 319 317 315 313 312 313 313 312 312 312 312 312 312 312 312 313 314 318 324 328 328 327 328 331 334
323 323 321 322 322 324 325 324 328 332 330 332 335 338 336 336 338 338 338 337 339 339 340 342 321 317 315 313 312 313 313 312 312 312 312 312 312 312 313 314 316 320 324 328 331 331 331 334 337
322 324 322 322 322 323 324 325 326 329 329 331 337 338 337 339 339 338 338 338 338 340 340 339 324 317 316 314 313 313 313 313 312 312 313 313 313 313 314 315 317 321 329 332 332 332 333 333 334
325 323 321 321 322 322 323 324 325 326 328 333 338 339 337 338 339 339 338 340 340 341 342 341 342 327 316 315 314 312 314 314 313 313 313 314 314 314 315 316 318 321 327 332 334 334 334 334 331
325 325 325 322 321 321 322 324 323 325 330 333 335 338 338 337 341 341 339 340 341 341 341 342 342 340 338 335 317 314 314 314 314 313 314 314 315 316 316 317 319 322 325 329 332 333 334 334 331
325 326 327 325 323 322 321 323 324 325 329 332 332 334 334 338 341 339 338 337 338 339 342 342 341 340 339 335 336 324 321 319 318 317 316 322 330 333 331 329 329 321 324 326 331 332 333 332 331
330 329 328 326 324 322 321 323 325 328 328 332 331 332 330 334 340 339 338 338 337 338 340 342 343 341 341 337 338 343 338 336 334 332 334 333 330 331 332 331 329 325 323 324 330 332 333 334 337
328 331 329 328 326 323 322 323 324 326 328 332 332 332 331 331 333 335 337 337 337 338 339 341 343 343 341 340 338 340 341 339 338 336 334 335 332 332 333 332 333 333 329 333 332 336 338 338 338
327 328 329 329 328 324 324 323 325 324 325 329 329 329 330 332 332 333 332 333 333 335 336 339 343 345 343 340 340 339 339 340 340 340 338 336 336 334 335 333 333 333 333 333 334 335 338 339 339
324 325 327 328 328 329 328 327 328 328 327 327 328 330 331 332 333 332 331 330 332 332 332 333 337 346 345 343 341 341 341 340 340 340 340 339 336 335 336 334 332 332 332 333 334 335 337 338 338
321 323 324 325 326 328 328 330 329 330 330 331 332 332 332 330 331 330 330 331 330 331 332 332 335 341 346 345 345 343 344 341 341 340 340 341 338 336 336 335 334 331 332 331 335 333 336 337 337
317 319 321 324 326 326 327 329 329 328 329 330 331 331 330 330 329 330 329 329 330 331 332 333 336 337 342 344 343 344 341 342 340 340 341 340 341 337 336 336 335 332 331 333 332 333 335 335 338
315 317 319 320 322 324 326 331 329 328 329 330 330 330 330 330 330 329 329 329 330 332 332 332 330 329 332 336 338 339 339 340 341 340 341 342 342 341 338 336 335 334 332 332 332 331 331 331 337
316 317 319 319 320 322 324 328 328 327 328 329 329 329 329 329 329 329 330 329 329 331 331 330 330 332 334 332 334 336 339 341 340 341 341 342 342 342 339 338 337 336 334 332 331 331 330 330 339
315 317 317 319 320 320 322 323 324 325 325 327 328 328 328 329 329 328 327 327 327 327 329 329 327 332 334 331 336 338 340 342 341 341 341 342 342 341 341 340 339 339 335 331 331 329 330 336 338
313 316 318 318 318 319 322 322 323 323 324 325 326 327 327 327 327 326 325 325 326 327 328 331 333 336 336 333 336 339 340 342 342 342 343 343 342 342 342 341 340 339 335 334 332 332 334 338 337
311 314 317 318 318 319 320 321 322 323 323 324 325 326 326 326 326 327 325 325 326 327 329 331 333 335 337 334 338 339 341 342 343 344 344 343 344 344 342 342 341 339 337 336 336 335 338 336 337
310 311 314 316 317 318 320 322 322 322 323 323 323 324 324 324 325 325 325 324 324 326 327 330 332 336 338 336 340 343 344 344 343 344 345 345 345 341 342 343 341 340 338 338 338 339 338 336 335
310 310 311 314 317 319 320 322 321 322 322 322 322 323 323 324 324 324 324 325 324 325 325 327 331 334 337 340 340 344 344 344 344 345 345 344 343 343 343 343 340 339 339 339 339 338 337 336 334
309 309 311 313 316 317 317 319 320 320 321 322 322 322 323 323 322 322 322 322 321 322 323 325 328 333 338 342 341 345 344 345 345 345 346 345 344 344 344 342 341 342 340 338 338 338 337 335 334
309 310 310 312 314 318 318 319 319 319 320 321 321 321 321 320 321 322 322 321 320 321 322 323 327 337 342 343 344 345 344 345 346 347 347 346 345 344 343 343 342 341 339 339 338 337 335 334 332
309 310 312 312 314 316 316 317 318 318 318 319 319 319 320 321 322 324 324 324 324 323 323 326 336 343 345 344 344 345 347 347 348 348 347 346 346 344 344 341 340 339 339 338 337 336 334 333 332
309 309 312 312 312 312 314 316 317 317 317 318 318 320 320 323 325 328 331 331 329 324 326 333 339 344 346 346 346 348 349 349 348 346 346 344 343 342 343 340 340 339 338 337 336 333 332 332 332
313 310 310 311 313 312 313 315 315 316 317 318 318 318 321 322 325 330 337 335 333 326 331 336 341 345 346 346 347 347 346 346 345 344 343 340 338 339 341 340 339 338 337 336 334 331 332 332 332
314 311 309 309 313 313 313 315 316 317 316 317 319 320 321 323 327 334 338 338 337 336 338 341 344 346 346 346 345 345 344 344 343 342 338 338 339 338 339 339 338 337 335 333 332 331 331 332 332
309 309 310 311 310 311 313 314 316 316 318 320 319 320 320 321 324 335 338 338 340 341 343 345 345 346 345 345 344 343 342 340 339 339 339 340 339 339 337 336 335 334 333 332 332 332 332 332 332
311 313 312 313 313 313 313 317 318 321 320 318 318 319 319 319 320 333 337 337 342 344 345 346 345 345 344 343 342 340 339 339 340 339 339 338 337 336 334 333 332 332 331 333 333 333 331 332 332

GFSSGP_925_thetae_051.txt.gz
Theta_e
317 324 326 323 328 326 327 326 327 329 330 333 336 335 337 339 341 344 343 337 337 339 349 324 318 316 315 316 316 318 320 325 330 335 339 340 341 339 330 320 317 317 319 315 314 319 324 326 319
321 322 324 325 326 328 327 327 326 330 336 337 336 338 341 340 339 340 343 339 338 342 344 336 318 317 315 315 315 316 316 318 322 328 335 335 335 326 318 316 313 323 327 328 329 327 326 328 327
327 325 322 324 327 326 327 327 328 331 336 336 337 337 339 340 339 337 339 339 339 344 345 341 319 317 316 315 315 315 315 314 315 317 321 320 318 316 314 312 312 324 328 330 329 330 330 332 332
327 324 322 325 325 326 326 328 328 332 336 336 337 338 337 339 341 338 339 339 340 341 344 342 323 317 316 315 314 314 314 313 314 314 314 313 313 312 312 311 313 319 330 331 331 332 330 333 335
325 325 324 323 325 326 327 327 331 333 337 336 337 339 338 337 338 340 339 338 339 340 342 343 333 318 317 315 314 313 313 314 313 313 312 312 312 312 312 313 315 322 332 332 332 330 329 332 336
327 324 324 323 323 325 326 327 327 330 336 335 336 338 339 338 339 339 336 336 337 339 341 348 339 320 317 316 314 313 313 313 313 312 312 312 312 312 313 314 315 320 326 331 334 332 331 332 335
329 327 325 324 323 325 326 326 327 330 334 334 335 338 340 339 339 339 334 335 337 339 340 348 348 332 319 317 315 313 313 313 313 313 313 313 313 313 314 315 316 319 325 330 334 334 332 332 331
330 330 329 327 325 324 324 325 325 328 331 332 335 340 341 339 340 338 335 336 337 338 339 341 350 343 339 335 317 314 312 314 314 314 313 314 314 314 314 315 317 318 323 331 334 334 334 334 333
328 331 331 329 327 326 324 324 324 326 327 329 335 338 338 339 341 339 336 336 336 336 338 341 343 344 341 338 339 320 315 313 315 317 316 317 331 333 331 327 327 319 322 329 330 333 334 335 336
329 332 331 329 328 327 325 325 325 326 328 330 335 334 334 338 339 339 337 337 336 336 338 340 342 342 343 339 339 343 339 337 336 334 334 334 331 331 333 331 326 329 322 326 329 332 334 336 338
330 333 330 330 329 328 326 325 325 325 328 330 333 335 334 335 339 337 336 336 336 336 337 340 346 345 343 341 338 341 345 341 340 337 335 336 333 332 333 333 333 333 333 333 333 336 338 338 338
327 328 330 330 330 330 329 326 325 326 326 329 332 335 335 334 336 338 339 337 338 338 338 340 344 349 347 343 342 340 342 344 343 341 338 336 338 334 333 334 334 334 333 333 334 335 337 339 340
323 325 327 327 328 329 330 329 328 328 327 327 328 332 333 333 335 335 335 335 335 335 336 336 339 348 349 346 344 343 343 343 343 343 343 340 338 337 335 336 335 335 335 335 334 334 337 339 339
320 322 323 325 327 328 330 330 330 331 329 329 327 328 330 332 334 334 334 334 334 333 334 335 335 340 350 349 346 346 346 344 344 343 344 344 342 340 338 338 338 335 335 334 335 335 336 337 337
319 319 320 321 324 326 328 329 330 330 330 331 331 331 332 333 334 334 332 332 333 333 333 334 336 338 345 351 351 349 346 346 344 343 343 346 345 343 341 339 339 337 334 334 335 335 336 335 337
317 319 319 320 321 323 325 329 328 328 329 330 330 331 331 333 333 331 330 331 332 332 333 335 335 335 341 344 346 346 343 344 342 343 343 344 346 345 343 340 340 338 337 334 334 335 334 336 334
313 318 320 319 320 321 322 327 327 328 329 331 331 331 330 331 332 332 330 330 331 333 334 336 334 334 334 337 339 340 340 341 341 342 343 344 345 346 345 341 340 339 338 336 335 335 334 333 332
312 314 316 319 320 320 321 323 324 325 327 329 330 331 331 332 331 331 331 330 331 332 332 335 335 333 335 337 338 338 337 339 342 342 343 344 347 346 345 343 342 341 339 338 337 335 334 332 331
313 312 313 316 318 319 320 322 322 324 325 327 328 330 331 332 331 330 330 329 329 330 332 333 333 336 337 336 336 334 338 340 343 343 343 345 347 346 345 343 343 342 342 341 338 335 334 332 339
312 313 313 314 315 319 321 321 322 323 324 325 326 328 329 329 330 331 329 328 330 331 331 333 335 338 340 338 338 335 338 340 344 344 345 346 347 346 345 344 345 344 343 340 337 336 335 335 339
312 312 313 314 315 317 320 321 322 322 323 324 325 326 327 328 329 329 329 329 328 330 331 332 335 338 340 337 337 340 343 345 345 346 347 347 346 345 344 345 345 344 342 341 339 339 338 340 338
312 311 311 312 313 316 319 322 322 322 323 323 324 325 325 326 326 328 329 331 329 329 327 330 333 336 339 342 338 340 344 346 346 347 347 347 347 346 344 344 344 344 343 342 341 341 341 339 337
312 312 312 312 313 313 315 320 320 322 323 323 324 324 325 325 325 327 326 328 325 325 327 328 331 336 337 341 339 341 346 345 346 346 350 348 345 345 345 345 345 344 343 342 341 340 340 339 338
313 313 313 312 312 315 315 317 320 321 323 323 323 323 324 325 325 325 325 323 323 323 323 325 330 334 338 340 346 347 347 348 347 350 348 346 345 345 344 345 344 344 342 341 340 340 340 338 336
314 315 314 312 313 314 314 318 318 320 321 321 321 323 324 323 323 323 325 325 325 325 324 324 327 334 335 342 346 347 350 351 352 351 349 347 346 346 345 345 345 344 341 341 340 339 339 337 335
314 314 313 313 314 314 313 315 318 319 320 320 321 321 321 322 324 326 327 330 330 329 326 326 326 331 341 346 347 349 349 350 350 350 349 348 348 347 346 345 344 342 340 340 339 339 337 335 333
315 316 314 311 312 315 316 316 316 319 319 320 320 320 322 323 324 326 329 334 335 333 327 327 333 341 346 347 348 350 351 351 350 351 349 347 346 347 345 343 341 340 339 338 338 336 334 333 333
316 315 317 314 315 315 315 316 317 317 319 319 320 321 323 324 325 327 335 338 339 336 329 332 336 344 347 349 350 351 351 350 350 349 346 343 342 342 343 340 340 339 339 337 335 333 334 332 332
314 315 314 317 315 316 318 317 317 318 318 320 321 322 322 322 322 326 339 340 340 339 337 338 342 346 348 349 349 349 349 347 347 344 342 341 340 339 337 338 338 338 337 335 335 334 333 332 334
315 316 313 317 313 314 314 315 317 320 320 321 322 321 321 321 321 325 341 340 344 341 342 344 345 347 347 347 347 347 346 344 342 341 341 340 338 336 335 336 336 334 333 333 333 332 332 333 333

GFSSGP_925_thetae_054.txt.gz
Theta_e
316 319 327 326 325 327 326 326 326 327 328 329 331 333 333 335 343 350 339 337 345 330 324 320 318 317 316 315 316 319 325 332 339 344 344 343 340 339 334 326 317 315 311 311 313 314 318 322 318
320 322 325 325 325 327 328 326 327 327 331 332 333 335 337 339 341 343 340 338 345 331 324 321 318 316 316 315 315 316 321 329 335 337 339 337 339 337 329 318 314 311 314 317 319 321 323 323 324
322 323 325 323 325 327 327 328 327 328 334 336 337 336 337 340 341 342 339 339 345 333 325 322 319 317 316 315 315 315 317 324 329 331 331 333 335 330 320 315 312 312 321 325 329 329 328 328 329
328 328 325 323 324 325 326 328 328 328 330 337 337 338 337 340 341 341 339 340 344 340 329 323 320 318 317 316 315 314 315 317 319 322 325 327 326 319 316 313 311 314 322 330 331 331 330 331 332
328 327 324 323 323 325 327 328 327 328 332 335 335 337 338 339 340 339 339 340 344 345 340 330 319 318 317 316 315 314 314 315 315 315 316 317 316 314 313 312 312 314 322 330 331 330 329 331 334
328 325 325 324 324 324 325 326 327 328 331 337 336 337 338 338 341 338 339 341 340 343 343 341 327 318 317 316 315 314 313 314 314 314 314 314 313 312 312 312 313 314 320 328 331 331 328 329 332
331 329 326 324 323 324 324 326 325 326 330 331 335 337 338 339 338 339 337 338 339 342 343 343 336 321 318 316 315 314 313 313 314 314 313 313 313 313 313 313 314 315 318 328 328 328 328 327 328
331 332 332 329 328 326 325 325 325 325 326 330 334 334 338 341 339 339 334 337 339 341 344 345 341 335 319 317 316 315 313 313 314 314 313 313 313 313 313 313 314 315 319 328 326 328 330 329 330
324 331 334 331 330 329 327 326 325 326 325 327 329 333 339 340 339 339 335 335 338 339 346 351 351 343 331 329 323 316 315 313 313 314 314 314 316 318 318 316 315 316 320 326 326 330 333 333 333
324 328 331 330 329 329 328 327 326 325 325 325 328 333 335 338 340 340 337 336 337 338 340 345 349 347 340 339 339 333 322 320 317 316 317 317 323 330 330 330 323 326 322 323 326 330 334 335 338
324 328 328 329 329 329 329 328 327 326 326 326 329 331 335 336 340 341 338 336 337 337 338 341 343 345 344 341 339 340 338 333 332 328 330 334 331 331 334 333 332 328 328 327 328 331 335 339 337
321 324 327 328 329 329 330 330 330 328 326 327 327 331 335 336 338 340 339 337 337 337 338 343 342 344 344 344 342 342 343 344 341 339 335 335 338 334 333 334 336 333 331 331 332 334 337 336 338
318 319 323 325 326 329 329 330 330 330 328 327 327 328 334 337 336 337 338 337 337 336 337 342 341 344 344 343 345 342 344 347 345 344 342 338 339 338 336 335 335 337 334 335 332 336 335 337 338
318 318 319 321 323 325 327 328 329 330 330 330 330 329 330 336 335 336 337 337 337 336 335 337 346 346 346 345 342 346 343 343 345 346 345 343 340 341 339 337 338 335 337 336 336 332 336 338 339
317 318 319 320 320 322 324 326 328 330 330 331 332 331 330 330 335 335 335 337 335 335 335 334 337 341 344 343 344 341 347 347 344 347 346 346 344 340 341 340 336 340 337 338 337 336 335 339 339
313 316 318 319 319 320 321 324 326 326 329 331 331 331 332 332 331 331 335 336 335 335 335 333 334 337 337 340 344 343 342 344 349 347 346 347 348 345 341 344 342 339 340 337 338 338 339 338 337
312 312 314 316 319 319 320 321 324 325 327 329 331 331 331 332 333 334 333 335 333 332 334 336 336 337 345 342 344 348 349 349 348 345 345 345 349 348 347 345 343 343 340 339 338 336 337 337 337
313 313 313 313 314 317 320 321 322 323 324 327 330 332 332 332 332 332 335 333 333 336 337 336 337 337 339 340 345 345 342 340 340 342 344 344 347 351 346 347 345 342 342 341 339 338 337 336 336
315 314 315 315 315 315 316 320 322 323 324 324 326 330 331 332 334 331 332 333 334 331 332 332 335 334 335 334 338 338 340 338 339 342 344 344 347 348 349 346 347 342 344 341 341 338 337 337 334
314 314 314 314 314 315 316 316 319 322 323 325 326 327 328 331 333 333 336 336 334 332 331 331 332 332 331 334 340 339 339 339 340 342 345 345 347 348 348 347 346 344 344 342 342 340 338 336 335
313 313 314 313 313 313 314 316 319 319 323 323 325 327 328 329 330 334 334 336 335 333 332 335 333 333 332 333 341 341 337 337 342 345 346 346 347 348 348 346 345 345 343 343 342 339 338 338 335
312 312 312 312 312 312 313 316 319 320 322 323 324 325 328 328 328 330 333 337 332 332 333 334 333 332 332 333 345 341 342 344 343 346 348 348 348 348 347 345 345 346 343 345 341 340 337 338 339
312 312 312 312 314 314 313 313 315 318 321 324 324 325 327 327 328 328 330 332 328 327 329 327 329 332 333 338 341 343 345 345 345 348 349 349 348 347 346 344 346 346 342 345 342 342 340 341 338
313 312 312 313 314 315 313 314 315 316 318 321 324 325 326 326 327 328 329 327 328 327 327 328 332 332 334 338 343 342 343 343 348 348 353 350 348 347 345 344 345 345 344 344 342 342 340 338 337
312 316 321 318 317 317 313 314 315 316 317 318 322 325 325 327 327 327 328 328 329 329 328 326 329 337 336 342 347 341 338 346 353 353 352 348 346 345 345 344 345 344 343 343 341 341 339 339 338
313 312 314 315 316 314 312 315 317 318 317 318 321 324 324 324 325 326 327 329 328 329 328 328 327 334 340 344 341 348 346 353 355 352 350 346 345 346 344 344 345 345 343 342 341 339 338 337 335
313 313 313 316 316 317 316 312 315 317 317 319 320 322 322 325 326 325 326 330 332 334 336 333 328 333 336 336 343 349 351 353 354 350 350 346 345 344 344 347 345 343 341 341 338 338 335 334 334
315 315 318 318 318 319 313 312 313 317 318 319 320 322 324 325 324 325 328 332 338 337 337 332 329 334 335 347 350 352 354 353 352 350 350 349 349 348 347 346 343 341 340 338 338 335 335 333 332
313 315 314 316 320 320 315 312 316 319 322 321 323 322 324 325 324 324 328 335 338 340 341 333 334 344 349 350 351 353 352 354 353 352 349 349 348 347 344 343 341 339 338 338 334 334 335 332 333
315 313 317 322 319 316 315 318 317 318 320 319 320 322 324 323 321 322 335 341 339 340 341 337 340 347 350 352 352 353 351 350 349 346 344 341 342 341 340 340 337 337 338 335 334 332 334 333 333

GFSSGP_925_thetae_057.txt.gz
Theta_e
317 314 320 325 319 319 321 322 322 322 322 324 331 331 335 338 345 345 341 343 328 323 319 317 317 317 316 316 317 321 329 336 341 341 340 338 336 333 327 322 315 313 311 311 312 314 315 316 315
316 319 321 322 318 320 321 323 322 323 323 328 331 332 334 344 342 335 347 338 325 322 319 318 318 317 316 315 315 318 325 333 337 339 339 337 333 331 325 318 314 312 311 312 313 315 318 321 322
318 321 320 321 318 321 321 322 323 323 325 334 334 334 335 343 340 336 345 332 325 322 319 319 318 317 316 315 315 316 321 325 330 333 333 331 329 328 323 316 313 311 313 315 316 318 321 325 327
326 325 322 319 318 319 322 322 323 324 328 334 334 335 338 341 340 342 345 332 326 323 321 320 319 318 316 315 315 315 316 319 322 325 326 326 326 325 319 315 312 312 314 318 318 322 326 328 329
330 325 322 319 317 319 321 322 322 322 323 334 334 335 339 340 340 344 345 335 326 325 323 320 320 319 317 316 315 315 315 315 316 320 321 321 323 321 317 313 312 312 315 318 318 325 327 328 331
327 322 322 320 321 322 322 322 320 321 321 330 333 334 336 339 338 344 343 337 328 326 324 321 320 319 318 317 316 315 315 314 314 315 317 319 318 317 315 313 312 312 316 318 319 326 325 327 330
329 327 325 322 322 323 322 321 320 321 321 324 328 334 335 337 339 340 342 340 334 332 327 322 319 319 318 317 316 316 315 314 314 314 314 314 315 314 313 313 313 313 315 318 321 326 325 327 328
319 330 333 332 331 326 324 325 320 321 322 323 325 332 337 338 339 339 341 343 343 340 336 331 320 319 318 317 316 316 315 314 314 314 314 314 313 313 313 313 313 314 315 317 321 326 327 327 327
321 323 331 332 331 329 326 326 326 324 323 323 324 338 338 339 337 338 339 340 345 344 341 339 330 319 319 318 317 316 315 314 314 314 314 314 314 314 314 314 313 314 315 317 321 324 328 329 330
320 321 323 327 328 329 327 326 326 325 323 323 323 333 337 339 336 333 334 336 345 349 345 342 338 331 321 320 319 317 316 315 314 314 314 315 315 315 316 317 315 314 315 316 321 326 329 331 331
318 321 321 323 325 326 328 328 328 328 324 323 323 325 334 336 336 338 333 334 339 344 343 342 342 337 330 324 321 320 317 317 316 315 314 316 317 319 320 321 324 321 318 322 321 326 330 332 332
314 316 321 321 323 324 326 326 328 328 328 325 325 324 324 328 335 336 337 334 336 342 345 346 343 342 337 329 331 332 333 329 323 318 317 318 319 323 322 327 332 330 329 324 325 323 325 330 330
313 315 316 318 321 323 324 325 326 327 327 328 327 326 325 326 331 336 336 336 337 339 342 349 348 345 343 341 339 339 338 338 338 338 336 329 327 327 328 327 333 333 333 331 328 327 327 329 328
311 313 315 316 316 318 321 322 323 325 326 327 328 328 327 327 330 332 334 335 336 337 341 347 345 344 343 344 342 341 341 340 341 342 343 342 339 336 333 332 331 334 335 335 333 332 330 332 333
311 311 312 315 316 316 317 319 321 322 325 327 328 328 328 327 327 329 332 334 336 336 338 337 338 337 338 345 346 344 343 343 343 344 345 345 343 341 338 337 335 335 336 337 335 334 333 334 336
310 310 310 314 316 317 316 317 318 320 322 323 328 328 328 328 327 329 332 333 333 335 336 337 340 338 337 346 343 343 344 346 346 346 346 346 345 344 341 340 338 336 337 337 337 336 336 334 336
309 309 310 311 311 313 315 317 318 318 320 322 323 324 328 328 327 327 330 332 336 334 334 334 340 348 348 346 346 342 339 334 344 347 347 346 347 347 344 341 341 339 338 339 339 338 338 337 336
310 309 310 310 311 311 310 312 314 317 318 319 322 324 327 328 328 327 328 330 332 334 335 334 337 346 347 347 346 341 340 339 340 342 346 347 347 348 347 343 343 342 341 339 339 338 338 337 339
313 313 313 313 313 312 311 312 313 314 314 316 319 320 321 327 327 327 327 328 331 336 337 338 336 337 342 347 346 348 349 348 348 346 343 344 345 346 348 346 344 344 343 343 340 340 338 337 336
310 312 312 313 313 312 311 312 312 312 313 314 315 319 319 322 326 328 329 330 329 335 336 335 334 335 337 338 335 333 332 335 335 334 336 339 343 346 349 348 347 346 345 343 342 340 340 337 337
309 310 310 311 312 311 311 311 311 312 313 314 315 316 319 320 323 323 324 327 331 334 334 334 333 332 333 333 332 330 333 338 339 341 341 341 344 348 349 348 346 345 346 343 343 341 341 337 336
312 312 312 311 311 310 312 312 311 311 312 313 314 316 317 318 321 322 322 323 334 336 333 331 330 330 330 330 329 329 337 342 338 337 340 345 347 348 348 347 347 345 346 344 343 342 341 337 336
313 313 312 312 312 311 311 311 311 311 312 312 312 313 315 317 318 322 322 323 332 333 336 334 333 333 331 330 330 331 339 341 341 339 347 347 347 348 347 347 346 344 347 343 342 342 339 336 338
313 311 312 312 312 313 311 311 312 312 312 312 312 313 314 317 317 320 322 322 327 327 326 327 332 333 331 332 332 332 335 342 342 344 350 348 348 348 347 347 345 344 346 343 344 342 339 339 339
310 311 313 315 313 314 312 313 313 312 312 312 313 313 314 314 314 319 319 321 322 326 326 327 329 329 330 331 333 333 338 340 341 346 351 350 348 348 347 345 344 344 345 343 344 341 341 339 338
312 312 315 315 311 310 313 315 312 313 313 313 314 314 314 313 315 317 319 318 319 322 325 326 327 329 330 333 336 339 341 340 343 346 350 349 348 347 345 343 343 344 344 343 342 341 340 338 337
310 312 311 314 312 314 313 313 313 313 315 319 318 317 316 316 316 320 321 321 322 326 327 327 327 326 331 335 340 341 340 339 343 351 350 349 348 346 344 342 342 345 342 342 340 340 337 337 335
312 311 313 314 319 318 316 314 316 319 319 317 316 315 317 316 319 321 321 322 325 331 334 337 335 327 333 339 342 344 345 343 350 352 350 348 345 343 343 342 343 344 342 341 340 337 335 334 333
314 315 315 317 317 317 317 315 318 319 317 317 315 315 318 319 320 319 319 327 335 337 339 339 337 331 337 341 341 345 348 348 354 351 349 346 344 343 343 343 345 343 340 338 337 334 334 334 333
312 316 316 319 317 320 320 318 316 315 315 315 315 315 319 319 318 316 315 337 336 337 338 338 336 334 336 341 348 349 348 353 352 350 350 347 346 345 344 345 341 340 338 337 334 334 334 333 332

GFSSGP_925_thetae_060.txt.gz
Theta_e
319 315 319 324 319 315 319 320 320 322 321 320 321 331 334 338 341 342 339 339 326 320 319 321 322 317 317 318 321 325 329 332 335 336 334 331 327 325 324 319 314 313 311 311 312 313 313 314 315
317 319 320 319 317 318 318 319 321 321 321 321 323 328 338 343 337 344 341 334 323 320 318 319 321 316 316 317 319 322 325 329 331 332 333 330 326 326 323 317 314 312 312 313 313 314 316 319 320
323 321 318 320 317 317 318 320 321 320 321 321 324 330 338 341 340 342 341 328 323 320 318 318 318 317 317 317 317 319 322 325 328 330 330 329 326 324 321 316 313 312 312 314 315 316 319 323 325
324 322 320 321 319 318 319 320 319 320 320 320 325 335 339 337 340 341 339 327 322 320 318 317 317 317 318 317 317 317 319 320 323 326 327 327 325 323 320 315 313 312 313 315 316 318 322 325 326
329 321 325 319 318 317 319 318 317 318 319 320 322 335 340 337 339 341 333 325 323 320 318 317 316 317 318 317 317 317 317 317 320 324 325 325 323 322 320 315 313 312 314 316 319 320 323 326 328
328 321 322 321 323 322 320 319 318 319 319 319 321 332 338 342 345 339 328 325 323 321 319 317 316 316 317 317 317 316 316 316 317 322 322 321 320 320 318 316 313 312 313 316 319 321 325 327 329
328 323 322 322 322 324 323 321 322 320 319 320 322 330 335 341 346 339 329 328 325 322 319 318 317 316 317 317 316 316 316 316 316 316 316 317 318 318 317 315 314 312 313 315 319 324 325 326 328
318 326 331 327 328 330 328 327 322 322 324 321 324 338 338 336 346 345 339 335 331 325 322 320 319 317 316 316 316 315 315 315 315 315 315 315 315 315 315 314 313 313 313 315 319 325 326 328 328
319 319 329 333 333 330 328 327 327 325 325 323 323 336 337 337 339 341 342 339 336 334 326 324 321 319 317 317 316 315 315 315 315 314 314 314 314 314 314 314 313 313 313 314 317 323 325 328 329
318 318 321 326 329 328 327 327 327 327 327 327 323 325 334 335 338 337 340 345 345 342 332 325 323 321 320 319 317 316 315 315 314 314 314 314 314 315 314 314 314 314 314 315 316 321 325 329 329
314 319 320 321 321 322 323 324 325 325 327 327 326 323 324 324 330 334 336 344 344 339 340 335 324 322 321 321 319 317 317 316 315 315 314 314 315 316 317 317 318 316 316 318 318 320 326 327 328
311 312 316 319 320 320 321 321 323 324 324 325 326 324 323 325 324 328 331 341 344 346 343 338 335 325 321 320 319 319 318 318 317 316 315 315 315 317 319 319 319 319 318 320 319 320 320 324 327
311 312 312 313 314 318 320 322 323 322 323 323 325 326 326 326 325 329 334 334 339 346 347 345 341 335 328 322 321 320 320 319 318 318 317 317 317 318 318 319 320 321 322 326 325 324 322 323 324
308 310 310 311 312 313 316 318 319 319 321 322 323 325 325 327 326 329 335 335 334 339 347 347 345 341 336 331 326 322 322 324 326 328 330 328 326 323 321 321 321 323 325 330 330 330 329 327 327
310 309 309 311 312 313 315 316 317 317 318 320 321 323 325 325 326 325 329 335 337 338 341 346 346 344 340 336 335 336 337 337 338 338 338 339 340 339 337 333 331 329 327 331 333 333 332 331 332
309 309 309 311 311 313 314 316 317 316 316 317 319 321 322 324 325 327 327 330 334 338 340 343 346 345 343 341 341 341 341 341 340 340 340 341 342 343 341 340 338 336 334 332 334 335 334 333 333
307 308 309 310 310 310 311 312 313 314 315 316 317 318 321 322 323 326 327 327 331 335 336 341 343 341 342 343 343 343 343 342 343 342 343 343 344 345 343 343 341 339 337 334 336 335 336 335 335
310 309 309 310 311 311 310 310 311 311 312 311 312 314 317 320 321 324 327 328 327 331 336 337 336 334 336 338 340 343 344 345 346 346 347 346 345 346 345 345 343 342 340 337 336 337 337 336 336
311 310 310 311 312 311 311 311 311 311 311 310 311 312 313 315 322 325 326 327 327 327 332 334 335 335 336 342 344 346 347 344 342 339 339 346 345 345 347 347 344 343 341 340 338 338 338 337 338
308 308 307 309 310 310 309 311 311 311 310 310 310 311 312 313 315 317 323 326 326 326 330 334 333 338 339 341 342 345 345 344 341 340 342 344 347 348 347 347 345 344 343 342 341 339 339 338 336
309 309 312 312 311 310 309 310 309 310 310 310 310 310 311 312 314 316 317 324 327 327 330 335 335 335 342 342 344 347 345 341 342 342 340 337 339 339 342 344 347 346 344 344 343 341 340 338 336
311 312 312 312 311 310 310 312 310 310 310 310 309 308 308 310 311 312 315 317 322 326 329 333 337 340 344 345 343 341 335 335 333 331 333 335 337 338 341 345 348 347 345 345 344 342 341 340 336
312 312 311 312 311 311 311 309 310 309 310 310 310 310 310 310 310 311 313 316 319 322 326 330 333 335 341 342 338 335 333 330 327 328 334 336 336 342 345 348 349 347 345 345 344 343 341 340 338
311 310 309 310 310 312 309 310 310 309 309 310 311 311 311 312 312 311 311 314 317 321 327 331 333 334 334 334 334 332 330 329 331 335 340 339 345 348 348 348 347 346 345 345 344 343 342 340 337
308 310 309 310 311 313 310 310 309 310 311 311 314 315 314 314 313 314 315 312 313 319 327 334 333 332 331 331 331 330 330 329 330 336 340 343 348 348 348 347 347 345 344 345 344 342 342 339 337
309 309 311 316 312 311 311 312 311 310 311 316 315 314 314 313 314 316 316 316 313 318 324 327 333 333 332 331 330 330 331 333 334 336 339 345 347 348 347 347 346 343 343 345 342 344 341 339 339
309 311 309 312 311 313 312 311 310 316 317 316 315 314 313 312 314 317 317 316 317 315 320 322 325 327 328 329 330 332 332 336 336 336 341 348 347 347 347 346 344 343 343 343 343 342 341 340 337
311 310 312 310 315 316 315 313 313 318 316 316 313 313 312 312 315 317 317 315 317 318 318 322 323 325 326 327 329 331 334 337 337 340 345 348 348 347 346 344 342 343 344 342 341 340 339 338 336
310 312 313 312 314 313 319 316 314 316 315 315 313 313 312 312 317 318 317 314 320 332 331 333 334 330 327 329 332 336 339 341 342 343 345 347 348 347 345 342 342 344 342 341 340 339 337 335 333
309 313 313 311 313 317 317 315 312 314 314 313 313 314 314 316 318 318 316 315 319 332 335 335 336 334 332 332 334 339 343 343 343 346 346 348 347 345 343 343 342 344 342 341 339 335 334 334 333

GFSSGP_925_thetae_063.txt.gz
Theta_e
320 316 319 322 319 314 318 319 318 319 320 319 319 320 325 334 343 341 338 331 326 321 327 326 323 327 326 327 328 329 331 331 331 330 329 328 327 326 324 320 315 313 312 312 312 312 312 313 314
320 321 319 316 317 317 315 317 320 319 319 318 318 321 327 340 336 340 337 330 324 321 324 322 321 322 323 325 325 326 328 329 329 328 329 327 326 325 321 316 314 313 313 313 314 315 315 317 318
324 322 316 319 316 317 316 317 319 318 317 318 318 321 328 340 340 339 338 332 324 322 324 320 318 320 321 322 323 324 325 327 326 326 326 325 324 322 319 315 314 313 313 314 315 316 318 321 323
324 321 318 322 321 319 318 317 317 317 319 317 319 321 336 337 341 340 337 333 321 323 322 319 317 318 319 321 321 322 323 324 324 324 324 324 323 322 319 315 314 312 313 315 315 317 320 324 326
328 320 325 321 321 319 318 318 318 318 317 318 318 321 337 337 340 341 336 330 321 326 321 319 317 317 319 319 320 321 321 322 322 322 322 323 324 323 320 316 314 313 313 315 317 317 321 324 326
328 319 323 325 322 322 320 319 319 318 318 320 319 323 338 341 341 337 333 325 323 321 320 319 317 317 318 318 319 319 320 320 320 320 320 321 323 322 321 317 314 313 313 315 317 318 323 325 327
328 321 323 323 324 323 322 322 325 323 321 321 322 325 332 344 344 337 333 331 328 327 324 319 317 317 318 317 318 318 318 318 319 319 319 319 319 319 319 318 315 314 313 314 317 319 322 326 328
320 325 330 325 325 325 326 326 323 323 326 324 320 327 335 336 343 335 332 333 330 329 325 320 318 317 318 318 317 317 317 317 317 317 318 318 318 319 318 317 315 314 313 313 316 318 325 325 328
317 320 329 329 328 327 326 327 326 325 325 324 323 324 329 343 343 335 334 333 333 331 327 321 318 318 318 319 318 317 317 317 317 317 316 317 318 319 318 316 315 314 313 313 315 318 324 326 327
318 319 322 326 328 329 326 324 324 324 324 325 325 325 325 339 340 339 337 337 337 335 331 325 321 319 320 320 319 317 317 316 317 317 316 316 316 316 316 315 314 314 314 314 314 316 322 327 325
313 318 321 321 321 321 321 322 321 321 322 324 324 325 324 327 332 334 337 338 334 334 333 326 321 319 321 320 319 317 317 316 316 316 316 315 315 316 316 316 316 315 314 315 317 317 321 323 325
310 312 315 317 318 318 319 319 320 320 321 321 322 322 323 323 322 326 330 336 340 336 326 324 323 320 320 320 319 318 317 317 317 316 316 316 316 317 318 318 318 318 317 316 318 318 319 321 323
310 311 311 311 311 313 316 318 318 318 318 319 320 321 322 323 323 326 333 331 337 341 340 334 326 324 321 321 320 319 318 318 317 317 316 317 318 318 318 318 320 320 319 318 319 320 320 321 322
308 309 309 309 310 311 312 313 314 316 317 317 318 319 320 322 323 329 333 333 333 338 343 343 335 326 327 325 323 321 320 319 319 318 318 318 319 319 318 319 319 321 321 320 321 323 325 326 326
309 308 308 309 310 311 313 313 314 315 316 316 317 317 318 320 323 325 328 331 335 334 339 343 342 339 331 326 325 323 322 321 320 320 320 320 321 322 322 322 322 323 322 323 325 327 329 330 330
309 307 307 308 310 310 312 314 315 313 313 315 314 315 316 317 321 323 325 330 333 336 335 342 344 344 340 333 328 326 324 323 322 322 329 331 333 334 334 334 334 336 332 330 329 329 331 332 333
306 308 309 309 309 309 311 310 310 311 311 311 311 312 312 313 315 318 323 326 329 330 337 340 346 346 344 341 338 334 330 329 333 334 337 338 338 339 339 340 340 340 338 335 333 332 332 333 334
310 309 309 309 310 310 310 310 310 310 310 311 310 310 311 312 313 314 316 321 325 328 331 337 341 345 345 343 340 338 336 339 340 340 340 340 340 341 342 342 342 341 339 338 336 334 334 334 335
310 309 309 309 309 308 309 309 309 310 309 309 309 309 310 311 312 313 314 316 320 325 330 333 336 341 344 344 344 343 343 342 343 343 343 343 344 344 344 345 344 343 341 341 339 335 335 335 335
308 307 309 308 311 310 309 310 309 309 309 309 308 309 309 309 310 311 312 313 314 318 324 329 334 336 341 341 344 344 344 341 337 344 345 345 343 339 347 347 345 345 343 341 339 337 336 336 336
310 311 312 312 311 310 308 309 309 309 309 309 309 308 308 308 309 309 310 311 312 314 318 324 328 333 338 337 340 342 343 344 345 345 344 343 337 338 342 344 345 346 344 343 341 339 337 337 337
310 311 311 310 310 310 310 310 309 309 309 309 308 307 307 307 308 307 308 309 310 312 313 316 325 328 330 333 341 343 341 343 342 341 342 340 340 341 342 341 343 345 344 343 343 341 340 338 336
310 311 310 310 310 309 310 309 308 308 308 307 308 308 307 310 312 313 312 310 312 312 312 314 318 330 332 335 342 343 341 340 340 340 339 337 335 337 336 338 340 344 345 346 344 343 342 340 338
310 309 307 307 308 311 309 309 309 307 308 308 309 310 314 313 312 312 312 313 314 316 315 313 316 323 333 337 339 341 340 338 338 335 332 332 335 337 338 343 344 345 347 346 345 344 342 341 339
307 307 306 308 309 312 308 310 308 308 309 309 313 314 312 311 311 311 311 313 315 316 316 313 316 324 329 336 339 340 339 338 337 334 329 332 337 339 342 346 347 347 347 346 344 344 342 341 339
309 306 307 312 312 308 308 311 309 308 314 314 314 313 312 311 309 309 311 313 315 316 314 315 315 327 330 332 336 338 339 337 336 332 328 331 334 336 341 347 347 346 346 345 344 342 342 341 339
308 309 306 309 309 311 310 309 308 309 315 314 313 313 312 311 310 310 311 314 315 316 314 315 315 319 330 332 333 336 339 334 331 330 330 330 333 339 345 347 346 346 345 344 344 342 342 341 338
306 307 311 308 314 315 311 311 311 310 310 312 313 312 310 310 311 312 314 315 316 315 314 319 318 319 326 330 331 331 330 331 331 332 333 334 338 343 346 346 346 345 343 344 343 342 341 339 338
308 309 311 309 308 310 313 313 310 311 312 313 312 312 311 312 312 313 314 315 314 313 318 330 317 318 323 329 330 330 330 330 331 333 335 336 341 345 346 346 345 343 342 343 342 342 340 339 338
308 309 310 310 309 313 317 314 310 308 311 311 311 311 312 312 313 313 313 314 312 315 315 324 332 322 320 323 326 326 328 332 334 336 338 340 343 346 346 346 343 342 343 342 341 340 339 337 335

GFSSGP_925_thetae_069.txt.gz
Theta_e
321 317 319 322 321 321 321 321 320 322 322 322 321 322 323 324 331 335 339 341 336 338 349 351 343 340 337 333 329 331 338 340 341 338 333 330 330 330 331 326 323 321 319 316 314 311 311 311 312
322 320 318 322 320 320 320 320 322 321 321 321 321 321 322 324 323 329 338 339 335 340 343 351 342 342 338 334 331 329 328 327 326 324 324 324 325 324 323 321 318 316 314 313 312 313 314 315 316
324 322 322 323 323 319 319 319 321 321 321 320 322 322 323 328 338 329 338 335 333 342 345 346 339 343 339 335 331 328 326 324 322 321 321 321 322 321 320 317 314 314 314 315 315 317 318 319 320
323 324 321 322 319 321 319 321 321 321 322 321 322 325 324 339 338 341 338 334 334 340 344 335 336 344 339 336 331 328 325 323 321 320 320 321 320 320 318 315 314 314 316 319 318 319 320 322 324
323 325 322 322 319 321 320 321 321 321 322 324 325 328 328 328 340 339 338 334 334 339 342 340 335 342 340 337 333 330 324 323 321 321 321 320 320 320 318 315 314 314 316 316 317 318 320 322 325
329 325 328 326 322 321 321 322 322 323 323 327 329 327 329 330 339 338 337 333 334 340 343 345 332 338 339 336 334 331 326 323 322 321 320 320 320 319 318 315 315 314 316 316 316 317 319 321 323
327 328 325 326 326 325 324 322 325 327 328 328 327 328 328 327 336 336 337 333 334 339 341 346 339 334 336 334 334 333 330 327 324 323 321 321 320 319 318 317 315 314 314 315 317 317 318 320 321
327 326 324 325 325 325 324 327 327 327 327 325 325 328 328 326 337 336 337 336 335 337 338 344 346 345 346 343 332 332 331 330 327 325 324 322 322 322 321 320 316 315 314 315 317 318 318 319 320
322 324 324 324 323 324 326 326 326 325 325 324 325 325 323 323 338 336 337 336 335 336 339 341 343 345 345 345 342 331 331 331 330 328 329 327 334 334 328 324 321 317 315 315 317 318 318 321 322
320 321 321 323 324 323 325 324 324 324 324 324 324 322 322 321 333 336 336 335 335 334 337 339 343 345 345 345 347 344 342 343 344 344 343 340 344 343 340 336 324 320 317 316 316 319 322 326 333
318 318 320 321 323 323 324 322 321 323 323 323 321 321 320 320 323 331 333 335 333 333 335 339 342 343 343 341 344 346 345 345 346 343 341 342 343 340 338 339 335 331 325 332 330 333 333 333 333
314 314 317 318 319 319 320 318 317 319 321 318 318 318 320 320 322 323 327 334 336 334 333 337 340 337 337 340 339 341 342 339 335 335 330 334 332 335 336 337 337 336 333 333 333 333 333 334 333
312 312 312 313 313 313 313 314 316 316 316 315 317 317 318 319 321 322 325 329 333 336 335 329 328 328 333 333 336 337 336 331 326 328 326 329 335 333 333 333 333 331 332 329 332 333 334 333 333
310 311 311 311 312 312 312 313 314 315 315 315 316 317 317 318 317 320 323 330 329 331 336 333 326 324 328 329 330 330 329 326 330 330 326 324 326 332 331 328 328 330 330 330 330 331 332 332 332
310 311 311 311 311 312 313 312 313 313 315 315 316 316 315 315 315 316 317 320 322 321 323 336 333 329 324 327 330 330 326 326 325 325 324 324 324 324 323 322 322 321 329 327 326 327 332 332 333
310 310 310 310 311 311 312 313 313 312 312 314 313 314 314 315 315 315 316 317 315 315 317 321 335 338 333 327 324 323 329 327 322 324 322 320 322 322 322 322 320 321 322 329 332 332 333 333 334
310 311 311 311 311 312 312 312 311 311 312 313 314 313 313 314 315 315 315 315 315 314 313 322 319 338 340 334 331 327 329 324 323 326 325 322 323 322 323 322 324 325 325 327 333 334 334 335 336
310 310 310 311 311 312 312 312 311 311 311 312 313 313 313 314 315 314 314 314 313 311 312 312 313 318 329 343 339 334 333 329 328 327 325 326 325 326 325 324 326 334 333 333 334 336 336 337 337
310 311 311 311 311 312 311 311 311 310 311 311 312 313 313 314 314 313 313 313 314 313 312 313 313 314 327 344 343 340 337 334 332 330 328 328 328 324 331 333 335 332 334 337 337 338 338 337 337
310 311 311 312 312 311 311 311 311 310 311 311 312 312 313 313 313 313 313 313 316 315 314 314 314 315 323 337 342 343 343 342 340 338 336 333 328 332 331 332 331 336 335 339 339 339 339 339 337
310 311 312 312 312 311 311 310 309 310 310 311 311 312 311 311 312 313 314 316 317 316 314 314 314 315 316 321 334 342 343 344 343 342 341 337 333 336 334 330 332 336 339 341 341 340 340 340 337
311 311 312 311 311 311 310 309 309 309 310 310 311 312 312 312 312 315 316 315 314 314 314 314 313 315 317 318 325 335 338 341 342 344 344 342 336 338 338 331 331 338 342 342 342 341 340 340 341
311 312 311 311 311 311 309 310 309 310 310 310 311 312 312 314 315 315 315 313 313 313 314 315 314 314 317 317 321 326 336 339 341 344 345 344 343 341 339 337 339 343 343 343 342 340 340 340 342
310 311 310 309 310 310 309 310 310 310 311 312 311 311 312 316 315 315 313 314 314 314 314 315 316 316 316 316 317 323 327 335 338 343 343 344 343 343 341 342 345 344 343 343 341 341 341 341 342
311 311 311 307 309 307 310 310 310 310 310 311 311 311 313 315 315 314 315 316 316 316 317 317 317 318 317 318 319 320 322 327 338 340 339 341 342 344 343 343 343 344 342 337 339 341 342 342 343
311 310 308 306 307 307 309 309 309 309 310 310 311 313 314 314 314 314 315 316 316 317 318 318 317 318 318 318 318 320 321 328 333 337 338 339 338 339 340 341 341 336 335 335 339 343 344 343 342
310 311 310 311 310 311 309 310 311 311 311 312 312 313 314 314 315 315 316 316 317 318 319 319 317 317 319 320 320 322 324 326 330 335 337 336 336 338 338 339 334 335 332 337 343 345 346 344 342
310 310 312 313 313 313 311 311 310 311 310 312 312 313 314 315 315 315 316 316 316 317 318 318 320 322 324 324 323 326 327 327 330 335 338 336 336 336 337 334 339 331 334 345 346 347 346 345 341
312 312 312 313 314 313 313 311 311 311 312 312 313 313 314 315 315 317 316 315 315 315 317 317 317 320 322 327 332 332 329 328 331 333 335 335 336 336 336 337 332 335 344 347 347 346 345 343 340
310 312 313 316 314 316 315 313 312 312 312 313 313 313 313 315 315 316 315 315 315 315 315 316 316 317 319 321 326 333 330 327 332 334 334 336 338 337 339 341 338 344 347 347 346 345 343 341 339

GFSSGP_925_thetae_072.txt.gz
Theta_e
327 320 322 326 323 323 328 326 325 325 325 325 325 325 327 328 330 335 344 344 340 341 349 344 340 336 338 343 345 347 347 348 348 347 346 345 339 336 332 332 327 323 321 320 318 315 311 310 310
325 322 323 325 327 325 328 325 323 324 324 324 326 327 326 327 328 332 330 344 337 343 349 346 340 337 334 343 343 346 347 348 348 347 345 338 334 329 327 324 322 319 316 314 312 312 312 313 314
326 322 323 326 332 327 325 323 323 324 323 325 327 328 326 332 336 338 342 342 338 345 347 347 338 338 333 336 343 344 346 347 345 342 335 330 328 324 322 320 318 315 314 313 313 315 316 317 317
326 325 323 324 328 328 321 323 324 324 324 324 328 330 329 331 334 340 342 341 338 344 346 350 337 339 336 332 336 341 343 342 336 328 325 324 324 321 320 318 315 314 314 315 316 318 320 321 322
326 326 327 327 326 323 321 321 321 323 323 323 329 331 333 330 334 342 343 341 338 342 343 352 338 337 338 335 332 333 333 333 326 322 323 322 321 320 319 316 315 315 316 317 318 320 322 323 324
327 326 328 330 328 323 322 321 324 324 324 324 329 330 333 329 333 341 341 341 338 340 342 350 340 335 337 337 334 331 329 326 324 321 321 320 320 320 318 316 315 315 317 318 318 319 321 324 325
326 327 328 327 328 327 326 325 326 325 327 326 329 331 332 329 332 339 341 338 336 339 342 348 348 341 337 337 336 333 331 327 324 322 321 322 322 321 319 316 315 315 318 318 317 318 319 322 325
324 326 328 328 328 328 326 325 326 328 327 328 327 330 331 327 331 337 341 337 336 339 341 345 347 346 347 346 338 335 333 329 327 325 323 323 325 324 322 318 317 317 319 319 317 318 318 321 323
322 326 328 326 327 327 325 326 327 327 328 327 327 327 327 324 325 330 339 339 335 337 339 342 342 343 344 343 345 337 335 333 330 329 327 327 337 337 338 329 331 318 319 321 320 319 319 321 322
322 324 324 325 325 326 326 325 325 325 326 327 327 327 325 323 324 326 332 340 335 335 337 339 341 342 342 341 343 346 345 344 343 342 343 341 339 340 338 338 332 328 319 322 323 324 325 328 329
320 323 322 322 323 325 325 325 326 324 325 325 326 324 323 323 323 324 327 333 338 334 335 338 342 343 343 340 341 344 342 343 344 344 345 345 342 342 342 339 341 337 332 333 333 333 333 332 331
317 319 320 320 321 322 324 323 324 325 324 321 321 322 322 323 323 324 325 328 335 337 333 336 341 346 346 342 342 342 341 342 343 345 348 347 346 344 342 338 337 338 335 335 333 333 334 334 333
314 316 316 317 318 319 320 321 321 322 321 318 319 320 320 321 322 322 323 327 332 336 338 335 337 343 345 346 341 341 342 342 342 344 347 346 344 342 341 339 337 335 334 333 333 333 333 334 334
314 314 315 315 316 316 316 317 317 318 317 316 320 319 319 320 320 320 323 327 335 335 333 336 338 340 343 343 342 340 341 340 343 342 342 346 343 341 340 340 338 334 332 331 331 332 333 334 334
313 314 314 314 314 315 315 315 316 317 316 317 324 319 319 319 318 319 320 323 324 326 324 332 337 339 342 341 342 340 338 340 338 338 341 343 344 341 340 336 335 332 332 335 334 334 335 335 334
313 313 313 314 313 314 314 316 317 315 316 317 318 322 323 318 318 318 318 320 321 322 321 321 334 339 342 342 342 339 337 337 336 338 336 337 340 340 340 333 332 332 333 334 334 335 337 337 338
315 313 313 314 314 314 314 314 316 315 315 315 314 317 318 316 317 318 317 317 319 320 322 322 321 335 342 344 343 340 338 338 335 335 330 330 336 337 334 332 332 324 332 335 336 338 339 339 341
315 314 313 313 314 314 314 315 315 315 314 314 314 315 316 316 317 316 317 317 317 319 321 323 324 329 335 341 345 343 340 338 336 334 334 336 337 336 335 333 324 325 330 336 336 338 339 342 343
313 313 313 314 313 314 314 315 315 315 315 314 314 313 315 315 315 315 315 316 317 320 322 321 324 322 322 337 339 343 341 343 341 338 335 337 337 337 336 333 327 329 332 331 332 333 342 344 344
312 313 314 314 313 314 314 314 314 315 315 315 315 315 314 315 315 314 315 317 319 320 322 322 323 324 324 329 333 334 338 342 345 342 337 336 337 337 336 329 335 335 335 338 339 342 344 345 345
313 313 313 313 314 313 313 314 315 313 313 313 314 315 314 314 313 314 317 319 318 318 319 319 322 323 325 326 326 328 332 333 343 346 344 341 340 339 333 331 338 337 340 341 342 345 346 345 345
313 313 312 313 313 314 314 314 314 313 313 313 314 314 314 313 314 316 317 317 317 317 317 319 321 323 323 326 325 327 334 341 340 342 344 345 344 342 339 341 339 342 340 340 345 347 347 347 346
313 313 313 313 314 314 313 313 314 313 313 313 314 313 314 314 318 316 316 316 317 317 318 319 321 322 324 326 327 327 328 329 332 337 343 348 348 346 343 342 343 343 343 343 345 348 348 346 346
313 313 313 314 314 313 312 312 312 313 313 313 313 312 313 316 317 317 316 316 317 318 319 320 321 322 323 324 325 327 328 329 330 331 338 344 349 349 348 344 346 344 343 346 349 349 348 346 345
313 314 316 315 314 314 313 312 312 313 311 311 312 312 315 317 317 317 317 317 318 318 320 321 322 323 323 323 324 325 327 329 331 332 330 336 342 347 350 349 348 348 349 349 350 350 348 346 346
315 315 315 314 312 311 312 312 313 312 312 312 313 315 315 316 316 317 317 318 318 319 320 321 322 323 322 322 324 326 327 327 327 328 330 331 337 341 346 351 351 351 351 350 350 349 346 346 347
314 315 314 314 312 312 312 312 312 313 312 314 314 315 315 316 317 317 317 317 318 319 319 319 320 322 323 325 328 329 330 330 330 330 332 332 335 339 344 348 351 351 351 350 348 346 346 347 349
314 313 314 313 314 312 312 313 314 313 313 313 314 314 315 316 316 316 317 318 318 318 318 318 319 320 321 324 326 327 331 333 333 334 334 335 336 340 340 346 349 350 349 347 347 346 348 350 349
313 313 312 313 314 317 315 314 315 313 314 314 314 315 316 316 316 317 317 317 317 317 317 317 317 317 319 321 323 325 328 331 334 336 335 336 339 340 340 344 348 348 347 347 348 348 350 350 350
313 313 313 322 316 315 317 316 314 315 314 314 315 315 316 316 317 316 316 316 316 317 316 315 316 316 316 318 321 323 326 327 330 336 336 335 337 339 340 343 346 345 344 347 349 350 349 349 349

GFSSGP_925_thetae_075.txt.gz
Theta_e
324 326 321 326 330 328 333 332 329 327 326 328 328 328 329 331 331 336 341 342 340 348 347 344 338 338 340 344 345 347 346 344 345 345 344 342 342 339 334 334 332 329 323 322 320 318 314 312 310
324 325 324 328 330 331 333 332 328 328 327 327 326 327 327 328 332 337 342 343 340 350 348 346 337 336 337 344 347 347 347 346 347 346 344 343 340 336 332 331 326 322 319 318 316 313 312 313 313
325 325 326 328 331 336 332 328 328 327 325 326 327 329 329 333 336 336 340 345 340 348 349 346 338 334 335 343 346 347 347 347 347 346 345 342 336 333 329 325 320 318 316 314 313 313 315 316 316
325 328 327 327 329 333 335 330 326 326 326 325 327 329 330 332 334 339 343 345 342 346 349 348 338 334 334 340 345 348 347 347 347 346 344 337 332 328 326 321 318 316 315 315 315 317 318 319 320
327 328 330 331 329 329 333 333 326 324 326 326 326 328 332 332 333 339 344 345 343 344 347 350 339 336 333 334 345 347 348 347 347 345 340 333 330 326 323 320 316 315 316 318 318 319 320 321 323
328 329 329 330 330 329 327 324 328 327 326 326 325 329 332 332 331 339 344 345 343 344 346 354 340 338 334 332 338 344 347 349 348 345 338 332 329 326 321 319 315 315 316 320 319 320 323 325 325
326 328 330 328 329 330 329 326 326 329 327 327 328 330 332 332 328 338 344 342 342 343 345 354 346 344 337 334 332 335 342 347 347 342 337 331 328 324 322 319 316 316 317 320 322 321 322 326 327
325 327 328 328 329 329 329 328 326 327 330 329 329 329 332 330 327 330 341 341 341 342 343 352 346 347 347 344 335 332 332 335 338 337 336 331 326 325 323 320 317 316 318 320 322 323 321 323 324
323 326 326 327 327 328 328 328 327 327 329 330 328 328 330 328 327 328 334 343 339 340 342 347 345 345 345 343 345 335 334 332 332 333 332 329 336 336 337 329 330 320 317 318 322 321 323 321 321
323 325 324 324 325 326 326 328 327 328 328 328 328 328 328 326 326 327 329 337 340 339 341 343 343 344 344 341 344 345 344 342 342 340 342 340 337 338 338 337 331 330 322 319 321 322 324 325 329
322 324 324 324 324 324 325 326 327 327 327 327 327 328 327 325 326 326 327 331 339 338 339 340 343 344 343 340 342 345 341 342 343 343 342 343 338 338 341 340 340 340 335 333 332 335 335 332 332
320 321 322 323 323 323 323 325 326 327 328 326 325 327 327 326 326 325 326 328 334 339 336 337 342 343 344 341 340 343 340 342 342 343 344 345 343 342 343 342 342 343 339 339 334 336 337 337 336
318 319 320 320 320 321 322 323 324 325 325 326 324 323 327 327 325 323 324 326 330 335 339 336 339 345 348 347 343 341 342 340 341 342 345 346 347 345 345 343 339 338 338 337 337 335 334 335 337
317 317 317 318 319 319 320 320 320 321 323 324 323 321 324 327 325 322 321 325 331 337 337 340 337 341 346 349 349 347 345 342 342 343 345 349 347 346 344 343 341 338 336 334 333 334 335 337 338
316 316 317 317 317 318 318 318 318 319 320 321 321 321 324 327 322 322 321 323 327 331 335 336 338 339 343 346 347 347 344 345 343 343 345 347 349 346 344 342 341 338 335 334 334 334 335 338 338
316 315 315 316 316 317 317 317 318 319 319 320 319 320 324 325 323 320 320 322 324 325 326 330 335 340 343 345 346 344 342 341 342 343 342 343 348 346 345 340 339 335 334 335 338 339 340 340 341
316 317 317 317 316 316 316 317 317 318 319 319 319 320 320 325 326 320 319 319 321 323 325 327 329 332 344 344 346 345 342 340 338 338 337 341 344 345 344 340 336 334 334 337 339 340 340 342 340
317 318 318 316 317 317 316 317 317 318 318 318 318 319 319 323 327 320 319 319 320 324 326 327 327 329 329 346 344 346 345 342 340 338 338 338 340 341 338 338 334 335 336 337 338 341 341 343 344
316 316 317 316 316 316 316 317 317 318 318 318 318 318 318 320 321 319 318 318 319 323 326 326 327 327 321 333 344 346 344 343 342 341 338 338 339 341 340 337 335 338 337 337 340 344 345 344 345
314 314 315 316 316 316 316 317 317 317 317 318 318 318 318 318 319 318 317 317 321 322 323 324 326 327 327 327 329 342 342 345 344 343 343 341 338 340 341 340 336 338 338 340 344 345 344 345 346
314 315 316 316 316 316 316 317 317 317 317 317 317 318 318 318 318 319 318 317 320 321 321 322 324 326 328 325 327 325 333 340 341 346 346 347 343 341 341 341 336 338 339 342 344 345 344 342 347
315 315 315 315 316 316 317 318 318 318 317 316 316 316 317 318 317 317 318 318 319 320 320 321 323 325 323 326 328 328 332 335 337 336 338 342 347 344 341 341 341 340 345 343 346 346 347 349 344
315 315 315 316 316 317 316 317 317 317 317 316 316 317 317 317 317 318 318 318 318 318 319 321 323 325 326 326 328 330 328 327 329 331 338 333 342 347 345 344 344 345 345 344 344 349 350 349 350
314 314 315 315 316 318 318 318 317 316 316 316 316 315 316 316 318 319 318 317 318 318 319 322 324 325 326 326 328 329 331 331 332 332 336 336 340 344 332 346 346 346 347 345 347 347 344 334 349
315 316 317 318 318 319 317 315 315 315 315 315 316 315 315 316 318 319 319 318 318 319 320 322 322 324 325 325 326 327 328 330 332 333 331 332 336 344 352 351 349 349 349 348 348 347 345 352 351
316 317 319 320 319 316 315 316 315 315 315 314 314 314 315 317 318 318 318 318 318 319 319 321 322 323 324 325 326 326 327 328 328 329 330 329 331 332 339 353 353 352 351 350 349 351 354 353 352
316 315 316 318 318 316 316 315 315 315 315 314 315 316 317 317 317 318 318 317 318 319 320 321 321 321 323 324 325 327 329 331 331 331 332 332 332 333 333 344 356 354 353 353 353 354 354 352 351
315 315 315 321 321 316 314 314 315 316 315 315 316 316 316 317 317 317 318 317 318 319 319 319 320 320 320 320 322 324 326 328 330 333 336 335 335 335 336 339 348 355 355 355 355 354 353 350 349
315 315 316 315 315 320 318 316 317 317 315 316 316 316 316 317 317 318 318 318 317 318 318 319 319 319 319 319 319 321 323 325 328 331 332 336 339 339 339 339 345 350 355 356 355 353 350 349 349
316 316 316 324 321 317 317 316 316 317 316 316 316 316 316 317 317 318 318 317 316 316 317 319 318 317 317 317 317 318 320 322 326 329 330 333 337 339 341 341 341 346 351 353 353 351 346 349 351

GFSSGP_925_thetae_078.txt.gz
Theta_e
320 325 326 325 330 330 331 333 332 330 328 328 329 329 330 329 332 346 344 341 352 348 338 341 341 340 344 347 346 343 340 341 342 343 341 340 338 334 338 335 332 327 323 322 322 321 316 312 311
321 326 326 326 330 335 335 333 333 329 328 327 327 327 328 329 336 338 344 344 352 349 336 343 340 337 340 343 347 345 343 342 343 344 342 340 338 333 333 331 327 321 319 318 316 314 313 313 314
323 327 327 327 329 333 335 331 328 329 327 326 327 328 329 334 335 338 342 344 353 350 341 347 339 337 336 340 346 346 345 344 345 344 342 340 339 333 330 327 323 319 317 315 314 314 316 317 316
324 327 328 327 328 331 333 333 330 327 327 327 326 328 330 333 334 337 342 344 345 352 347 348 338 337 334 337 345 348 347 345 346 345 343 341 336 332 328 325 320 317 315 315 315 316 318 319 320
323 327 328 330 330 328 329 330 333 326 326 327 326 327 331 333 331 337 343 344 345 349 348 348 337 336 334 334 341 347 348 347 347 346 344 341 334 331 327 322 319 317 316 316 317 318 319 321 322
324 327 329 328 327 329 330 329 332 330 328 327 326 326 329 332 330 334 343 344 344 347 349 347 338 336 335 333 334 345 348 348 349 348 347 342 335 330 326 321 318 316 317 318 318 319 320 321 322
323 326 328 328 327 327 328 327 326 328 328 330 328 329 330 331 329 329 341 343 346 346 351 349 340 336 335 333 333 338 346 348 349 349 349 343 337 332 326 321 317 316 317 318 321 319 320 321 322
323 324 325 326 328 328 327 328 327 327 328 330 329 330 331 330 328 328 331 343 344 344 354 355 345 344 341 336 335 334 340 345 348 349 348 342 336 332 325 321 318 316 316 318 319 321 323 322 322
321 323 325 324 325 326 327 328 329 327 327 329 330 330 330 329 326 327 329 341 341 343 353 354 347 347 347 346 339 334 335 339 345 345 342 338 336 330 327 323 324 319 316 317 320 318 321 322 321
321 323 322 323 324 325 325 326 327 328 328 328 330 330 329 328 326 327 328 330 342 341 344 351 344 346 346 344 345 336 335 333 333 335 334 333 332 338 338 335 327 326 326 319 318 319 318 321 322
320 322 322 323 323 324 323 324 325 326 328 328 330 331 330 328 327 327 326 327 333 340 342 348 344 345 345 343 344 343 345 342 339 337 339 337 337 338 340 339 337 336 333 327 323 322 323 323 331
319 320 321 322 323 323 323 324 324 324 327 328 328 329 329 330 328 327 325 324 328 337 340 345 345 345 344 343 345 347 344 344 344 342 341 344 337 340 341 342 341 343 341 337 332 336 337 337 337
317 318 319 321 321 321 321 321 322 323 324 326 327 327 328 328 329 327 324 322 325 330 337 338 345 347 344 344 347 347 342 343 344 345 342 342 348 340 342 345 343 345 342 339 339 336 337 338 338
317 317 318 318 318 319 320 320 320 321 323 324 325 326 326 326 325 326 323 322 329 334 339 341 344 345 347 347 350 351 349 341 343 343 344 344 344 347 346 345 345 341 340 340 339 337 336 335 335
317 316 316 317 317 317 318 318 319 320 321 321 322 323 326 324 322 323 324 326 327 329 335 336 341 342 341 342 345 347 348 347 345 344 345 346 345 347 346 347 343 342 339 336 335 334 336 335 338
316 317 317 317 317 317 317 317 318 319 320 320 320 321 322 323 323 326 322 324 325 326 327 332 335 342 340 342 342 348 347 345 345 346 346 350 347 347 351 345 344 342 340 336 334 334 334 336 336
316 315 316 317 318 318 317 317 318 318 319 321 321 321 321 322 325 325 322 322 322 324 326 327 332 337 342 342 345 343 344 344 343 342 343 345 349 348 345 346 344 342 339 336 335 337 339 341 342
316 317 318 318 318 318 317 317 317 318 318 320 320 320 320 321 322 325 322 322 322 324 327 330 330 329 345 347 347 346 347 343 344 340 340 340 343 349 347 347 345 341 337 336 335 338 341 342 343
317 318 318 318 319 317 317 318 317 318 318 319 319 320 321 322 322 321 323 321 321 324 328 328 330 324 326 338 347 346 348 347 344 343 339 339 339 340 343 345 345 340 338 334 338 339 341 342 343
317 316 316 315 316 316 316 317 317 318 319 319 320 321 321 322 321 323 323 320 322 324 326 326 328 324 320 327 331 342 346 345 347 343 342 339 340 339 337 339 342 338 339 340 338 340 343 346 347
315 315 315 316 316 317 317 318 318 318 318 319 320 320 321 321 322 323 325 320 319 325 322 323 326 327 322 323 326 325 330 337 341 345 343 343 340 342 341 341 340 337 339 341 341 341 349 348 347
315 315 316 316 317 317 317 319 319 319 319 319 319 320 320 320 321 323 323 323 320 321 322 322 323 325 326 324 328 330 331 331 331 338 341 345 344 341 340 340 342 342 340 341 344 344 347 345 336
315 316 316 316 316 317 317 317 318 319 319 320 320 320 319 318 320 318 319 319 319 320 320 320 323 325 325 326 323 330 332 329 328 332 336 338 340 346 344 343 342 342 342 340 338 347 346 341 333
316 315 315 316 316 318 316 317 318 319 320 319 319 318 318 318 318 319 318 318 319 319 319 321 323 325 326 326 327 329 332 332 331 332 333 336 337 340 347 345 343 341 343 344 345 344 343 341 337
315 316 317 318 319 320 318 318 320 320 317 317 317 317 317 318 317 320 321 320 320 320 320 321 322 324 325 326 326 326 326 328 329 330 330 332 331 331 349 347 344 341 336 339 346 345 338 344 345
318 317 319 324 324 322 320 321 319 320 318 316 317 317 316 316 316 318 320 321 319 319 321 320 322 323 324 325 326 327 326 327 328 331 331 330 331 331 331 334 343 339 334 335 335 344 343 346 349
318 320 318 319 321 324 320 319 318 318 317 316 315 316 316 316 319 318 318 319 319 319 320 321 322 321 322 324 324 325 326 329 332 332 331 331 331 332 332 332 333 342 348 349 341 347 348 350 350
318 317 320 318 322 323 318 319 319 320 319 317 315 316 317 318 317 317 318 319 319 319 319 320 321 321 322 321 322 324 324 326 329 330 329 333 337 334 332 329 332 336 350 351 353 352 350 350 351
317 320 320 320 318 321 321 318 317 318 319 318 317 316 317 318 317 318 318 318 318 318 318 321 321 322 320 321 321 320 320 323 324 327 329 331 334 334 340 339 336 331 336 352 352 354 353 354 354
315 318 319 322 325 323 320 321 316 318 318 319 318 317 317 317 317 317 317 318 318 317 317 317 319 320 319 318 318 319 320 319 321 323 326 328 331 332 335 337 342 340 337 340 352 353 355 354 355

GFSSGP_925_thetae_081.txt.gz
Theta_e
320 322 325 326 322 325 325 326 328 328 326 323 324 324 334 341 346 350 347 349 339 332 339 346 347 346 346 342 340 338 340 340 340 339 337 331 334 339 337 331 328 324 322 321 320 318 313 312 311
319 322 327 322 324 327 329 329 326 323 323 322 324 324 332 336 339 340 345 348 335 327 337 344 346 345 345 344 341 339 340 341 341 340 338 333 328 332 331 326 323 320 318 318 316 313 314 315 314
320 321 323 323 323 325 329 330 327 325 323 322 323 326 331 336 337 338 346 349 339 328 333 341 343 343 343 343 343 342 340 342 342 341 339 335 329 327 328 324 319 318 317 315 314 315 317 318 317
318 321 322 325 325 324 327 325 325 327 323 323 323 326 332 333 335 340 343 350 347 330 333 337 339 341 340 342 343 344 342 343 343 342 340 337 331 328 328 323 318 317 315 315 316 317 319 319 320
319 319 324 325 325 325 326 325 328 329 323 325 324 326 332 331 334 343 342 346 350 339 332 336 338 339 339 340 341 344 345 344 344 344 341 338 333 328 325 321 318 316 316 316 317 318 319 320 321
319 319 324 325 324 324 325 326 329 331 328 327 326 328 330 328 328 335 341 343 347 349 335 332 336 338 341 339 340 344 346 345 346 346 344 341 335 329 326 321 318 316 316 316 317 319 319 320 321
320 319 322 323 325 325 325 324 328 329 330 331 327 328 330 326 327 327 342 341 346 348 344 335 334 337 340 340 340 343 346 347 347 347 346 343 336 332 325 321 318 316 316 317 317 318 318 319 320
318 319 321 322 323 323 323 325 324 326 331 330 328 329 329 327 326 327 331 342 348 348 347 341 329 334 337 345 341 342 344 346 347 347 346 343 338 332 327 322 318 316 316 317 317 317 318 318 318
317 318 320 320 322 322 322 322 323 324 326 326 328 328 329 328 326 326 325 325 349 351 348 346 336 332 335 343 345 343 345 345 346 346 345 342 336 332 327 322 320 317 316 316 316 317 319 318 318
315 316 317 319 320 320 321 321 321 326 326 325 326 329 329 326 325 324 323 322 326 355 352 348 344 333 334 340 342 344 344 345 345 344 343 338 333 329 325 322 321 321 322 321 317 316 318 319 318
315 316 316 318 319 319 320 321 321 322 324 325 325 327 328 327 324 324 324 323 322 333 353 349 345 335 335 343 343 337 339 340 341 340 337 332 330 327 336 338 336 335 335 333 325 319 318 319 324
312 315 317 318 319 319 319 320 320 320 320 325 325 326 326 327 323 323 325 324 322 326 346 347 344 339 337 344 344 342 334 335 334 334 332 328 326 331 338 340 339 339 339 340 333 326 326 333 336
312 313 315 316 316 315 317 319 318 318 319 320 325 326 326 325 325 325 325 324 324 335 340 346 345 343 341 342 345 343 341 336 334 336 336 333 329 331 337 340 341 341 342 341 338 337 334 334 336
313 313 313 313 313 314 315 315 316 318 318 318 319 324 325 325 324 325 325 323 324 325 336 341 348 344 343 347 348 349 345 343 340 339 336 336 336 335 340 342 344 343 344 342 339 338 337 336 337
313 313 313 313 313 313 315 315 315 316 317 317 317 321 323 323 324 323 323 323 324 325 330 333 350 348 343 345 346 348 349 345 343 342 341 339 336 343 340 345 342 345 343 343 342 340 339 338 337
312 311 312 313 315 315 314 314 315 315 316 316 317 317 317 321 322 323 323 324 326 326 328 331 341 347 346 343 343 345 347 347 346 344 344 343 342 342 347 344 345 344 342 339 339 337 336 334 335
312 311 312 313 314 315 314 314 315 315 315 315 315 315 316 316 318 321 324 325 326 326 325 326 331 340 342 341 341 344 346 346 345 345 345 348 345 344 345 347 347 346 343 341 339 337 336 334 336
312 313 313 314 315 315 314 314 314 316 316 315 314 315 316 318 319 324 324 323 324 324 323 321 327 334 346 339 340 345 346 346 344 344 343 349 349 346 346 345 347 346 345 343 340 338 337 339 341
315 315 315 315 315 313 313 313 315 315 316 313 314 315 316 317 318 322 322 322 323 323 323 324 326 326 338 346 343 333 342 344 343 341 341 341 342 350 348 345 346 346 345 343 340 337 338 339 343
314 313 313 314 314 314 313 314 313 314 315 314 314 314 315 316 316 318 323 323 324 326 326 325 325 326 325 334 348 344 334 339 344 343 343 338 338 339 343 345 344 345 345 343 340 337 338 341 343
313 313 314 314 314 314 314 314 314 315 315 315 315 315 315 315 315 318 321 322 324 325 325 324 325 327 325 327 333 339 345 347 346 345 344 343 341 339 340 339 339 338 340 340 339 340 339 340 343
313 313 314 314 315 314 315 315 314 315 315 315 315 315 315 314 317 317 318 320 323 323 322 322 322 323 325 324 324 327 328 335 343 342 342 343 343 344 342 341 340 338 339 339 337 337 340 341 344
313 314 314 315 313 312 313 313 314 314 316 316 316 315 315 315 314 316 317 318 320 323 321 322 321 323 323 322 324 328 331 333 329 328 332 337 337 344 343 344 342 340 340 340 337 342 343 342 343
315 314 313 314 312 313 313 314 314 314 314 317 315 316 316 316 314 315 318 319 319 319 319 318 321 324 325 326 327 327 327 329 331 329 332 336 338 337 339 340 344 343 344 343 341 340 341 345 345
314 314 314 313 313 315 314 315 315 317 318 317 316 315 315 314 314 315 315 314 317 318 318 320 320 321 322 324 325 326 326 328 327 327 324 323 322 326 332 330 341 344 344 343 342 342 340 347 345
316 315 320 321 318 318 319 320 317 318 318 316 317 315 314 313 314 315 314 314 317 318 318 321 320 321 323 324 325 327 327 327 329 330 328 326 326 326 326 331 334 341 345 344 343 344 343 345 344
315 316 317 322 323 324 320 317 316 316 316 316 316 316 314 312 312 314 315 316 317 318 319 320 322 322 322 321 323 323 325 325 327 330 331 332 333 333 332 330 330 336 341 343 345 345 344 344 342
316 316 318 319 325 325 320 318 316 316 318 317 318 315 315 315 315 314 314 315 317 318 318 320 320 321 321 321 321 324 324 324 324 328 330 329 328 330 333 336 335 333 331 329 341 345 345 344 343
315 314 319 320 318 325 323 316 315 317 316 317 317 317 315 314 313 313 312 314 317 318 319 320 321 321 321 321 321 321 320 319 319 324 323 324 327 329 333 333 334 335 340 340 333 338 349 348 348
313 318 318 322 322 323 322 319 316 314 314 318 315 316 315 315 314 316 314 314 316 317 316 317 321 320 320 322 320 318 320 320 321 318 319 322 323 323 325 330 329 332 332 338 340 336 347 352 351

GFSSGP_925_thetae_084.txt.gz
Theta_e
320 320 324 324 321 321 325 324 325 323 321 321 328 342 344 342 345 347 346 347 341 337 342 344 346 342 339 337 338 337 337 336 333 329 333 335 335 334 330 329 326 323 321 321 320 315 312 312 311
320 320 324 318 322 325 327 326 326 325 321 319 326 331 338 342 339 348 349 347 334 335 339 345 347 343 340 337 338 338 338 338 334 329 331 336 336 330 325 324 322 319 318 317 314 314 315 314 312
319 320 321 320 319 324 327 325 323 324 321 321 323 329 333 338 337 341 347 341 335 337 338 344 346 345 341 339 338 339 339 338 335 332 329 331 331 325 323 321 319 318 316 315 315 317 317 317 315
317 317 319 324 324 323 324 324 323 327 325 323 325 328 332 333 335 343 346 333 332 335 338 340 345 347 342 341 339 340 340 340 337 335 331 328 327 325 322 319 317 316 315 316 317 318 319 319 319
317 314 322 324 324 323 325 325 323 326 328 327 328 330 329 328 341 346 347 335 332 339 340 338 343 346 345 342 341 340 341 342 340 338 336 331 328 326 323 319 317 316 316 317 318 319 319 320 321
317 314 321 323 323 324 324 323 323 325 328 328 328 328 328 325 326 340 348 344 334 332 340 339 341 345 346 344 343 341 341 343 342 341 338 335 330 327 322 319 317 316 316 317 318 318 319 320 320
316 316 318 321 322 322 323 322 323 325 325 328 326 329 327 325 325 333 342 348 340 334 337 338 337 340 344 346 345 344 342 343 343 342 339 335 332 329 323 319 317 316 316 317 317 318 318 318 319
315 316 320 319 321 321 322 320 319 321 328 329 328 327 327 325 324 325 339 346 346 338 337 337 337 337 340 346 346 345 344 343 344 344 342 338 334 329 325 320 317 316 316 316 317 317 317 317 317
315 315 316 318 320 320 320 320 320 321 324 326 329 327 327 324 325 323 339 348 348 348 340 337 336 336 336 344 347 347 346 345 345 345 343 340 334 331 325 320 318 316 316 316 316 316 316 316 317
313 312 315 316 317 317 318 319 318 323 323 325 325 325 325 325 324 323 320 333 351 350 348 341 338 334 335 338 347 350 348 347 346 345 344 340 333 329 325 321 320 318 317 318 317 317 317 317 318
312 313 314 315 316 316 317 318 318 322 323 323 324 324 325 323 322 322 323 322 337 350 349 345 340 340 333 334 340 345 350 348 347 345 343 340 334 328 325 322 321 322 323 326 329 326 322 319 320
310 312 314 315 315 316 317 317 318 318 322 323 323 323 324 322 321 322 323 324 333 351 351 348 342 338 343 336 332 338 343 346 347 345 342 339 333 327 324 332 333 334 335 337 338 336 331 326 327
309 310 311 313 314 314 316 317 317 317 317 319 321 323 323 323 321 324 325 325 338 339 350 352 348 342 340 342 336 333 335 337 339 340 338 335 330 326 324 332 336 339 339 339 341 338 335 334 333
311 312 311 311 309 310 313 313 314 315 315 316 316 319 322 322 322 323 324 323 328 340 346 347 347 344 342 341 340 339 337 332 332 332 331 330 327 324 325 333 337 339 341 340 342 341 338 337 336
311 311 309 311 313 312 313 312 313 313 314 314 314 316 319 321 322 322 325 324 325 327 338 342 345 344 342 341 344 343 342 340 338 335 334 330 327 325 326 334 338 342 343 342 343 343 342 340 339
311 310 310 310 313 313 313 314 313 312 313 314 314 314 319 321 322 323 325 325 323 324 329 337 341 345 344 344 344 345 345 343 343 340 336 335 330 327 327 333 339 340 342 345 343 342 341 339 338
309 310 311 311 311 312 312 313 313 313 312 313 313 313 313 316 318 323 324 323 323 324 326 335 350 348 345 349 349 350 349 347 344 342 341 341 337 334 334 336 338 343 343 343 343 342 340 338 336
310 310 311 312 312 313 312 311 311 312 312 313 311 312 313 313 314 318 321 322 324 326 326 329 338 345 348 348 348 348 347 347 347 344 343 343 342 341 340 342 343 344 344 345 344 342 341 339 337
311 311 312 313 313 312 311 310 311 311 312 312 311 311 313 314 314 322 323 324 325 325 325 325 329 333 341 346 346 346 345 345 346 345 344 346 347 344 343 342 345 346 348 346 345 344 341 338 337
313 312 311 311 313 313 311 311 311 312 312 312 311 311 311 314 314 316 321 323 325 324 325 327 326 326 329 340 347 347 345 343 339 340 342 343 343 349 346 345 346 346 347 347 345 344 341 339 339
313 312 312 312 313 312 313 312 313 313 313 313 312 312 312 311 312 313 320 322 324 324 323 321 322 322 321 322 329 338 344 342 336 338 331 330 341 341 342 346 347 346 345 345 345 345 342 339 339
311 312 313 313 312 312 313 313 312 312 312 313 312 311 310 311 311 313 320 321 324 324 324 323 324 323 321 320 319 325 329 332 342 339 333 331 330 343 342 341 342 346 344 341 342 340 342 341 339
313 314 312 313 312 310 312 311 311 312 312 312 312 312 312 311 312 313 318 321 322 324 323 322 321 321 321 320 320 323 327 329 330 333 340 342 336 329 335 342 342 341 341 341 340 339 339 339 338
314 313 311 310 309 312 310 311 313 312 312 312 314 314 314 312 313 313 316 319 322 322 321 321 321 322 324 324 323 324 324 324 325 330 330 331 333 340 332 329 333 340 342 341 341 340 339 338 340
313 311 313 315 313 315 311 312 313 312 314 316 315 313 312 311 313 315 316 317 318 319 319 320 321 321 320 323 325 325 326 326 328 328 327 328 331 334 337 339 337 336 335 334 337 343 342 340 342
316 315 317 323 319 319 318 320 316 315 314 316 315 313 313 313 313 316 316 316 315 315 317 319 319 318 319 319 320 321 325 326 326 326 327 328 326 324 325 325 327 330 332 336 341 340 343 342 341
314 316 315 318 320 325 321 319 316 315 316 316 315 313 313 312 315 314 314 313 314 316 317 318 318 318 319 321 322 322 325 324 327 327 327 328 329 332 333 333 331 331 331 335 339 342 343 343 343
315 315 317 318 325 326 322 320 318 315 316 316 317 315 314 312 311 311 312 312 315 317 317 317 318 319 319 321 323 323 322 323 323 323 325 329 330 328 329 331 333 334 336 336 336 334 335 342 343
314 315 317 315 316 322 319 318 314 315 315 314 314 315 315 314 313 313 314 314 315 315 314 317 318 319 320 321 322 321 321 323 322 320 321 325 325 327 326 324 324 328 329 329 330 334 339 338 337
314 317 316 315 320 320 320 316 313 313 313 313 315 315 313 313 314 313 313 312 312 314 314 316 318 319 320 321 321 320 320 320 319 320 319 318 318 319 319 320 321 323 324 326 328 330 333 338 342

GFSSGP_925_thetae_087.txt.gz
Theta_e
319 321 322 321 321 321 325 325 323 323 323 320 334 340 343 341 345 344 346 345 342 340 344 345 340 335 336 336 335 333 331 331 336 336 336 336 335 333 329 324 321 321 321 321 318 314 312 312 314
318 320 322 316 321 325 326 324 324 323 323 318 321 330 335 340 342 347 347 347 343 339 343 345 341 336 336 337 335 334 333 330 333 336 336 335 332 327 324 321 319 319 319 317 314 314 313 312 312
318 320 319 318 318 324 326 323 322 322 321 323 324 329 332 337 338 344 345 347 341 338 343 346 341 338 336 337 335 335 334 330 331 335 335 333 330 324 321 318 317 317 316 315 316 317 317 315 312
317 316 316 323 324 322 324 323 322 322 325 325 327 331 331 328 333 343 347 347 339 338 341 345 342 340 336 337 337 337 335 332 330 334 334 334 328 323 320 318 317 317 316 316 317 318 319 319 317
316 313 319 323 323 323 324 323 321 322 324 326 327 328 327 326 339 344 346 344 337 341 346 346 344 340 338 337 338 339 338 335 331 328 331 330 326 323 320 318 317 316 316 317 318 319 319 320 320
317 313 319 322 322 323 322 323 322 322 322 325 327 327 325 324 334 346 342 338 336 338 345 348 346 342 340 338 339 339 339 336 334 331 328 327 326 324 320 318 317 316 317 317 318 319 319 320 320
316 316 317 320 321 320 322 320 321 321 323 323 326 327 325 322 324 343 346 336 340 343 344 347 347 345 341 340 339 340 340 338 335 334 331 328 327 324 321 318 317 316 317 317 317 318 319 319 319
313 315 320 319 320 320 320 319 318 319 322 322 326 327 326 322 333 343 347 341 340 344 346 346 347 347 344 342 340 340 341 339 336 334 331 331 328 325 321 319 317 316 316 317 317 317 318 318 318
312 314 316 318 320 321 318 318 319 319 319 321 324 325 324 324 341 342 345 345 345 346 347 350 347 346 346 344 343 342 341 342 340 336 333 331 329 326 323 319 318 316 316 316 316 317 317 317 318
311 311 314 315 317 316 316 317 317 318 318 318 323 325 323 322 328 343 346 347 347 348 347 347 348 347 346 346 345 345 344 345 344 341 338 334 329 326 323 320 319 318 317 316 316 316 317 317 317
311 312 312 314 314 314 315 315 316 318 318 319 320 323 323 321 319 319 336 348 348 348 346 346 347 347 347 348 349 346 348 352 346 345 341 337 332 328 325 322 320 319 319 318 320 322 323 322 320
310 310 311 312 313 314 315 315 316 315 316 317 320 321 322 321 319 318 319 335 347 349 347 344 343 344 347 347 348 350 352 354 350 346 345 340 336 329 325 324 321 320 320 323 328 331 333 331 327
308 308 309 309 309 311 312 314 315 315 315 316 317 318 319 322 320 321 322 327 335 349 349 346 339 340 342 346 348 347 351 350 346 346 346 344 339 331 326 324 323 326 329 332 335 337 337 335 332
310 310 309 309 310 308 310 311 311 312 314 315 316 316 315 317 321 322 321 334 338 337 347 348 345 337 335 338 340 340 345 344 344 344 343 343 342 336 328 324 324 330 334 338 338 338 339 340 337
310 311 309 310 312 312 310 311 311 312 312 313 313 313 313 314 318 320 322 333 334 334 336 348 349 347 338 336 338 338 336 340 341 339 338 338 337 335 330 325 324 327 331 337 339 339 340 342 340
309 308 309 309 311 311 311 311 312 311 311 311 311 311 313 314 316 321 324 323 329 334 337 342 348 348 346 341 339 339 333 336 337 337 335 330 329 329 327 325 323 324 329 336 340 341 343 342 340
306 308 310 310 310 311 311 311 312 311 311 310 310 310 312 313 314 319 323 325 322 329 336 340 343 345 346 342 339 339 341 340 338 338 338 335 334 329 328 325 323 326 331 336 341 344 344 341 339
309 310 310 310 311 311 310 309 309 310 310 310 309 309 309 311 311 314 317 323 324 322 331 338 342 344 344 344 344 344 345 344 343 342 342 342 339 335 333 331 329 329 337 340 342 342 343 341 340
310 310 310 311 311 311 309 309 309 309 309 309 309 309 309 310 311 314 316 317 320 322 323 330 341 346 345 344 348 348 348 347 346 344 336 333 342 341 339 337 336 336 338 341 344 344 343 342 341
310 310 311 311 310 309 310 310 309 310 311 311 311 310 309 309 309 312 320 321 322 322 324 327 335 339 344 346 347 347 347 347 347 345 344 342 344 346 345 344 341 341 346 347 345 346 344 342 341
311 311 311 311 311 311 311 311 312 311 311 311 311 310 310 309 309 309 312 320 323 324 325 327 328 332 334 343 346 345 344 343 343 343 344 343 343 341 340 341 344 344 344 344 345 346 344 343 341
311 311 311 312 311 311 311 312 310 311 310 311 310 309 309 309 309 308 309 316 321 323 325 327 325 324 326 329 334 339 341 341 341 339 341 341 339 331 329 331 331 337 340 342 342 345 345 344 342
312 312 312 312 311 310 311 310 311 310 311 310 309 309 308 308 308 308 308 313 318 322 324 323 323 320 320 319 319 320 322 326 329 330 331 336 337 332 334 333 330 327 330 340 340 341 341 340 340
312 312 310 307 307 310 310 310 311 309 311 310 311 311 312 311 310 309 309 312 317 322 323 323 324 322 321 320 320 319 318 320 322 322 323 328 331 334 337 340 338 334 335 337 333 332 339 339 340
312 311 313 315 314 316 314 316 310 311 312 311 312 313 312 309 310 311 311 314 318 320 323 323 321 321 322 321 321 321 321 321 322 323 323 323 325 328 330 332 337 339 337 334 332 330 330 334 335
312 311 314 320 319 318 316 319 316 314 313 313 313 312 311 309 310 313 314 315 317 317 317 320 321 322 323 322 320 320 320 320 322 323 324 325 325 325 325 325 325 331 336 339 339 337 337 335 335
314 314 313 314 319 315 317 318 315 314 315 314 313 314 312 311 309 311 313 313 316 318 319 320 320 319 319 318 318 319 319 322 324 325 326 326 327 327 330 332 333 332 331 332 335 337 337 337 337
314 314 316 315 324 324 320 319 317 314 314 313 312 311 312 312 311 310 310 311 313 314 314 317 318 317 317 318 319 319 320 322 323 324 325 325 326 329 329 329 331 332 332 333 334 333 335 336 337
314 317 317 316 319 324 323 316 313 313 310 309 311 312 311 312 311 312 311 312 313 314 314 315 316 316 317 318 319 320 321 323 322 323 322 324 326 326 327 326 323 325 328 326 327 327 326 327 330
313 315 315 313 314 320 317 315 310 309 309 310 309 309 310 311 314 313 312 312 313 313 314 313 315 316 317 318 318 320 321 323 322 323 321 321 322 323 323 321 321 320 320 319 320 324 327 330 332

GFSSGP_925_thetae_090.txt.gz
Theta_e
321 321 322 320 320 320 324 324 322 322 322 323 323 340 345 341 343 342 346 344 341 341 345 341 336 336 335 335 336 342 346 346 346 346 346 344 337 334 333 329 325 322 320 320 319 315 313 315 319
319 321 321 315 320 324 324 324 323 322 321 318 320 331 335 338 343 347 347 344 342 341 347 342 336 336 335 334 333 335 340 343 344 343 340 336 334 331 326 323 320 319 319 318 315 313 312 314 320
318 320 318 318 317 323 326 323 322 321 321 323 326 329 332 335 334 343 345 345 344 340 345 342 336 336 335 335 332 330 333 337 337 336 335 334 331 327 323 320 319 319 318 315 314 314 312 312 317
317 315 314 322 323 321 324 323 321 321 322 324 326 331 330 328 332 340 347 346 344 343 346 342 337 335 336 335 333 331 329 333 336 336 335 332 328 324 321 319 318 317 316 316 317 317 316 314 314
316 312 318 322 324 323 322 322 322 321 322 326 323 328 329 324 342 343 347 347 340 341 346 344 338 335 336 335 335 334 330 330 335 335 334 330 325 321 319 318 318 317 316 317 318 319 319 319 318
316 313 318 320 321 322 321 322 319 322 322 324 325 325 324 324 336 346 346 346 341 339 345 345 340 336 336 336 336 336 332 330 333 333 332 327 321 320 318 318 317 316 317 317 318 319 320 320 321
315 315 318 319 320 320 321 320 320 318 320 323 323 326 323 321 326 345 346 345 339 338 344 346 343 340 337 337 337 337 335 331 329 331 329 323 321 320 318 317 317 317 317 317 318 318 319 319 320
311 313 318 318 320 320 320 319 318 318 319 321 321 326 324 320 326 343 343 343 343 341 344 348 347 342 339 338 338 338 337 335 330 325 324 323 322 320 319 318 317 317 317 317 317 318 318 318 318
310 312 315 318 319 320 317 317 317 317 317 317 318 322 323 323 333 345 344 344 344 345 345 350 351 346 341 339 339 339 340 338 334 331 326 324 323 321 320 319 317 317 317 317 317 317 317 317 317
311 310 312 313 316 316 316 316 315 316 316 316 317 322 322 326 340 344 344 343 345 346 348 349 351 354 345 342 340 339 341 341 340 337 334 329 324 323 321 320 319 317 317 317 317 317 317 317 317
309 311 311 313 314 313 314 314 314 316 316 315 316 319 321 321 324 342 344 344 344 345 347 349 350 353 349 346 343 341 341 343 344 341 339 335 330 325 323 321 320 319 319 318 318 318 319 322 321
311 310 312 312 312 312 313 314 313 314 315 314 315 317 319 320 318 326 343 345 346 345 345 347 348 348 349 349 347 346 344 343 347 345 342 339 336 331 327 324 321 320 320 321 321 322 329 332 330
307 308 308 308 307 308 309 310 311 312 312 313 313 314 318 319 318 319 324 336 346 347 346 343 346 346 346 348 347 349 347 347 345 345 343 341 339 334 329 328 326 323 321 322 323 330 335 336 333
308 309 309 308 309 308 309 310 309 311 313 312 312 313 313 317 318 319 320 323 334 347 347 347 342 341 342 342 345 345 345 345 349 347 342 341 341 337 334 329 327 326 323 325 331 334 337 338 338
309 310 308 308 310 310 308 310 310 310 310 311 311 311 311 311 314 317 322 323 327 339 345 348 344 340 340 339 341 341 342 345 348 349 345 343 343 341 338 333 327 324 324 332 335 337 338 338 341
308 306 308 307 309 309 310 310 310 310 310 310 309 309 310 311 311 314 318 321 328 336 342 345 347 344 339 339 341 343 342 343 345 346 343 344 344 345 344 341 333 324 323 329 335 337 339 339 342
304 306 308 308 308 310 310 310 311 310 309 309 308 308 308 308 309 313 315 318 323 332 336 344 346 345 345 340 339 340 341 341 339 341 340 340 336 339 342 341 337 332 327 327 334 337 339 341 343
308 309 309 309 310 310 309 308 308 308 309 308 308 308 308 307 308 311 313 313 319 324 332 336 343 344 344 345 341 341 341 340 339 336 336 335 339 333 333 332 333 333 329 328 334 337 340 342 341
309 309 309 309 310 310 309 309 308 308 307 308 309 309 309 308 308 311 314 316 316 319 322 334 340 344 345 344 342 342 343 342 339 336 333 337 338 339 339 337 335 334 333 331 334 340 343 342 341
308 309 309 309 309 308 308 308 308 308 308 309 310 309 309 308 308 309 311 314 319 319 319 321 332 339 343 343 343 344 344 344 341 341 341 342 341 340 341 341 340 338 340 342 344 343 342 342 342
309 310 310 311 311 309 309 310 310 310 309 310 309 308 308 308 308 308 308 311 313 319 321 320 322 331 341 343 343 345 345 345 345 345 344 342 342 338 340 343 343 343 344 343 342 339 341 341 342
310 309 311 311 311 311 309 314 310 309 309 310 309 307 307 307 307 306 306 307 311 314 317 322 322 326 337 343 344 344 345 343 344 344 343 341 342 342 342 342 334 332 336 340 336 332 334 338 340
310 311 311 311 310 309 309 308 310 309 309 309 308 308 307 307 307 308 308 309 312 313 315 318 324 328 333 340 345 345 343 341 340 341 341 341 342 342 342 338 334 329 338 334 331 329 330 337 338
311 311 310 306 306 310 310 309 312 309 309 310 310 310 310 310 310 309 309 310 311 313 313 316 323 326 327 332 336 341 340 336 333 334 335 335 336 338 337 334 333 334 333 332 329 326 331 333 335
311 310 312 313 313 315 314 315 311 309 310 311 311 312 312 310 307 307 308 310 311 311 315 318 322 325 322 322 321 320 320 319 320 322 323 325 328 329 333 335 337 338 335 331 330 329 332 332 331
311 310 313 317 317 316 313 316 315 312 312 312 313 311 311 310 310 309 309 310 312 315 317 319 321 321 322 321 320 319 320 319 318 320 323 324 324 325 326 327 329 335 338 337 332 333 333 330 330
313 312 310 313 315 310 315 314 314 314 314 312 309 309 309 308 309 309 309 309 311 313 317 318 319 321 321 320 321 320 319 318 317 318 321 324 325 327 327 330 330 328 331 337 337 334 334 336 336
313 312 316 314 321 322 317 318 317 314 313 310 308 308 309 308 308 308 309 308 311 313 314 317 318 318 321 322 320 318 317 317 318 319 321 324 325 326 329 330 332 333 332 333 334 335 335 335 335
312 315 316 316 321 320 318 315 312 313 310 308 306 308 307 307 309 308 309 311 312 313 313 316 318 318 318 318 317 317 318 318 319 319 320 322 323 326 328 328 326 325 327 327 326 325 325 326 328
313 313 315 318 316 315 316 316 310 308 307 306 307 308 310 311 311 310 311 311 311 312 312 312 315 316 316 316 316 317 318 320 321 321 321 321 322 326 325 325 323 322 320 319 318 318 318 319 324

GFSSGP_925_thetae_093.txt.gz
Theta_e
319 321 322 323 326 328 331 329 325 328 329 327 324 343 346 345 346 349 348 345 346 353 354 343 341 342 345 347 347 348 347 347 343 343 345 344 340 336 334 332 332 331 328 325 323 317 316 320 325
319 321 322 324 326 330 333 326 328 327 326 325 323 336 340 343 343 350 349 347 345 352 354 350 339 339 342 346 347 347 347 347 345 345 345 343 337 333 331 329 328 325 322 321 317 314 316 321 327
319 321 324 326 326 328 331 326 327 326 326 327 331 332 335 338 335 345 348 350 348 353 352 351 337 336 336 341 346 347 347 346 345 345 343 338 333 330 326 324 322 321 320 317 314 313 315 320 327
317 321 322 326 327 325 327 326 326 326 327 328 328 335 335 330 335 345 350 350 350 352 352 345 336 336 335 335 340 345 346 346 345 344 338 334 330 325 322 321 320 320 318 315 315 314 313 314 319
316 320 324 326 326 325 325 325 324 325 326 327 327 329 335 329 346 351 352 352 350 351 351 350 337 336 335 334 333 337 342 344 342 337 335 332 328 323 320 319 319 318 316 317 317 317 316 314 315
321 320 322 323 323 323 324 323 323 324 323 324 325 326 329 325 343 352 352 352 349 350 352 352 337 337 336 335 332 330 333 337 337 335 334 329 326 322 319 318 318 317 317 318 319 319 320 320 320
321 322 321 322 322 322 322 322 323 322 322 324 323 325 329 328 326 350 352 352 349 350 352 352 347 337 336 336 334 332 330 333 336 336 334 329 324 321 319 318 318 317 317 318 319 319 320 320 320
318 321 322 322 321 320 321 321 321 322 322 321 321 324 325 325 327 347 350 351 349 349 351 352 350 347 345 341 336 334 331 331 335 336 334 329 323 320 319 318 317 317 318 318 319 319 319 319 319
314 320 320 320 321 320 320 321 320 319 320 320 320 321 321 323 334 344 347 349 348 348 350 351 350 350 347 346 342 336 334 331 331 335 335 330 330 326 324 319 318 318 318 318 318 319 318 318 318
317 318 318 318 320 320 319 318 318 318 318 319 319 320 320 326 339 342 347 347 347 347 349 350 351 351 349 346 347 345 345 343 341 340 339 336 340 339 337 331 319 318 318 319 319 319 319 319 331
314 316 315 316 317 317 317 317 317 318 318 319 319 319 319 320 326 343 346 346 346 346 348 349 352 352 349 347 347 348 347 347 346 344 338 341 339 335 335 335 333 330 322 331 328 331 332 333 332
314 314 315 315 315 316 315 314 314 316 317 317 317 318 318 319 320 324 344 346 346 346 348 349 352 351 349 349 348 347 347 348 347 345 337 335 334 334 333 337 336 332 334 335 332 332 329 330 332
311 311 311 312 311 312 312 313 314 314 316 316 316 316 317 319 321 323 330 342 346 347 347 349 350 350 350 350 349 348 347 347 347 347 343 338 335 331 330 335 334 331 332 331 332 330 330 336 335
312 311 313 312 313 312 313 314 313 314 315 316 316 317 317 319 321 323 323 325 332 347 349 349 350 350 350 350 351 350 349 348 348 347 347 343 339 336 332 331 330 330 326 326 327 331 334 337 339
311 313 313 313 315 314 312 314 314 315 314 315 316 316 315 316 316 319 322 325 323 332 345 347 348 349 349 348 348 348 349 349 348 348 346 345 342 343 339 337 334 332 331 328 325 330 335 336 338
312 311 314 313 312 313 313 315 315 314 314 314 314 315 315 316 316 315 317 319 318 324 338 347 348 349 347 344 344 347 348 348 348 348 347 344 339 338 339 341 338 337 334 333 335 337 339 340 341
311 311 311 314 313 312 313 314 315 316 315 315 316 316 315 316 317 317 316 316 315 319 325 343 348 348 348 346 346 346 346 346 347 347 345 344 341 341 338 338 338 339 339 334 335 336 338 341 343
312 313 313 314 314 314 314 315 315 316 315 315 315 316 317 317 318 316 316 315 313 314 321 335 346 348 347 346 346 346 346 345 346 345 345 341 341 344 342 344 342 341 339 335 331 332 338 340 343
312 312 313 314 314 313 316 315 315 316 315 315 316 317 318 318 318 316 316 316 318 317 316 322 339 345 347 346 344 344 344 343 344 343 343 342 338 342 342 341 341 338 336 334 332 334 341 343 342
312 313 314 314 314 314 315 315 315 315 315 316 316 317 318 318 318 318 317 317 317 318 318 318 322 336 344 346 345 345 345 345 344 343 343 342 340 340 336 336 337 337 337 336 337 339 343 343 341
313 314 315 315 314 314 314 316 316 316 314 315 316 316 317 317 317 317 317 316 317 318 318 317 319 320 331 344 345 345 346 346 345 345 343 340 339 338 340 333 330 338 340 341 343 341 340 341 340
314 314 314 314 315 316 314 317 317 317 316 315 316 317 316 315 315 317 318 317 317 317 316 317 316 319 321 337 343 344 344 345 344 345 345 345 345 345 344 336 338 341 342 339 340 338 333 333 335
314 313 314 314 315 315 316 316 317 315 316 317 317 316 316 317 317 317 317 316 315 315 315 316 316 323 321 329 339 344 344 344 345 345 347 347 346 346 346 346 345 344 336 332 333 334 330 328 326
313 314 315 313 315 317 317 317 318 317 317 315 316 318 317 316 315 315 314 315 316 317 317 317 319 318 325 330 335 342 344 344 342 343 345 345 345 345 345 344 345 340 337 334 330 327 328 328 326
314 316 317 317 318 319 317 317 317 317 316 316 317 315 314 315 315 315 315 315 315 316 318 319 319 321 324 327 333 338 343 342 342 340 340 339 338 338 340 342 342 340 338 336 335 332 332 332 334
315 316 317 320 320 319 317 318 318 318 317 316 314 313 313 314 314 314 314 315 314 315 317 320 321 321 322 325 329 332 333 335 336 334 331 331 330 331 330 331 336 340 340 340 338 335 333 331 333
316 317 316 318 318 322 319 318 317 318 318 316 313 313 313 314 315 315 316 315 315 316 316 319 320 321 322 323 326 326 324 324 323 319 318 319 318 323 321 324 329 331 337 341 341 338 337 336 333
315 315 318 318 322 324 320 319 319 318 317 315 313 313 313 314 316 316 317 316 316 316 316 318 319 320 323 324 325 325 325 324 324 320 321 323 324 326 328 329 330 332 332 336 341 341 340 338 337
316 317 319 319 321 325 323 320 318 318 316 314 313 313 314 316 316 317 317 315 315 316 317 317 318 319 321 323 325 325 324 324 324 325 327 328 328 328 331 332 333 334 335 335 337 338 338 338 338
314 316 316 325 323 323 323 321 316 317 313 312 313 315 316 315 315 316 316 315 315 315 315 315 315 316 315 319 317 317 317 319 324 326 326 327 325 327 329 331 330 328 329 331 331 331 330 331 331

GFSSGP_925_thetae_096.txt.gz
Theta_e
321 321 324 327 332 336 342 337 331 332 332 333 336 347 346 346 349 355 351 345 344 349 354 349 344 344 345 346 347 347 346 345 337 337 337 339 337 336 335 336 335 335 335 330 325 319 315 321 326
320 322 325 328 334 340 343 333 333 331 331 332 333 340 344 347 346 351 350 346 347 350 354 351 343 344 345 346 346 348 347 346 338 338 340 341 338 335 333 332 332 330 326 322 319 314 318 324 334
319 321 327 329 334 339 341 333 332 330 331 332 334 337 340 343 342 349 350 347 348 351 352 351 342 343 345 347 347 348 348 346 341 341 344 343 337 334 332 331 328 324 321 319 314 315 319 326 333
320 324 325 328 332 332 333 332 330 330 330 330 332 336 339 338 341 349 349 349 350 350 350 352 341 342 343 347 348 348 348 347 343 344 346 342 335 332 329 326 323 322 320 316 315 314 317 324 330
320 323 326 328 329 329 328 330 329 329 330 330 330 332 335 336 349 352 350 350 351 349 348 353 338 338 340 345 347 348 347 347 345 346 345 340 334 330 325 321 320 321 319 316 316 314 314 316 319
322 322 324 327 327 326 327 328 328 328 328 329 329 330 333 330 344 353 352 353 350 349 348 352 339 336 336 338 343 346 347 346 345 346 345 337 334 329 323 321 320 319 317 318 318 317 316 315 316
320 322 320 321 323 325 326 325 326 327 326 329 326 329 332 331 330 349 354 353 350 348 348 352 347 340 335 335 336 340 344 346 346 345 340 336 333 328 323 321 320 318 317 318 319 320 320 320 321
321 322 321 322 322 321 322 324 324 324 325 324 324 331 331 327 328 338 352 353 349 348 347 351 349 346 344 342 334 332 334 338 340 338 336 336 333 328 323 321 320 318 318 319 320 320 320 321 321
320 320 320 320 320 321 322 322 323 322 322 322 323 324 324 323 333 337 346 352 349 347 347 349 349 348 346 345 344 334 331 330 333 336 336 335 340 338 337 331 332 319 318 319 320 320 320 320 319
319 319 319 319 320 320 321 321 320 319 320 321 321 322 322 322 328 337 342 347 350 348 347 348 349 348 347 345 347 344 343 340 340 341 345 343 339 336 335 334 330 324 322 321 320 320 320 319 329
319 320 319 319 319 319 318 318 319 319 320 320 321 322 322 322 323 329 338 341 347 348 347 348 351 351 349 346 346 345 343 341 340 341 344 343 339 339 338 337 336 333 328 332 329 331 331 331 332
317 318 318 318 318 318 319 319 318 317 319 319 320 320 320 322 324 324 328 340 346 347 348 348 351 353 353 348 346 346 343 343 342 342 344 343 342 341 339 335 334 335 334 332 334 332 333 334 338
316 317 316 316 316 315 316 316 317 317 318 318 319 319 320 321 322 323 324 328 340 345 347 350 350 353 353 352 347 347 346 345 344 344 345 343 341 341 340 338 336 335 333 334 334 333 333 335 341
316 315 315 316 316 316 316 316 317 317 318 318 318 319 320 320 322 323 325 328 332 341 346 349 351 353 353 352 351 349 348 346 346 346 346 348 345 343 341 341 339 336 335 333 333 332 333 337 342
316 316 316 317 317 317 317 317 316 317 317 317 318 318 318 319 319 320 321 325 329 328 334 348 352 353 353 352 353 352 349 348 347 347 347 349 348 346 345 342 340 338 337 337 336 335 336 340 342
316 316 316 317 315 316 316 316 318 317 317 318 318 318 318 319 320 320 320 321 322 324 327 337 346 348 353 353 353 352 350 349 347 347 348 350 350 348 348 343 342 341 340 338 336 335 336 338 341
316 314 315 315 315 315 315 316 317 318 318 318 319 319 318 319 320 320 321 321 321 323 326 330 336 345 349 353 353 352 351 350 349 348 348 351 349 343 344 346 343 346 342 340 338 336 336 336 339
316 315 314 316 317 317 317 317 317 318 318 319 319 319 319 319 320 320 321 320 320 321 323 326 331 339 349 352 354 352 350 350 348 348 348 350 349 347 348 349 348 346 343 342 341 339 337 336 335
315 315 316 317 317 317 318 318 318 318 318 318 318 319 319 320 320 319 320 321 321 323 326 327 328 336 348 350 352 352 350 349 349 347 348 348 347 348 350 347 348 346 342 343 341 340 339 336 340
315 316 317 317 317 317 318 318 319 319 319 319 319 319 319 319 320 320 320 320 322 323 324 326 329 332 345 347 348 349 349 348 348 347 348 349 348 348 347 347 346 346 343 342 339 339 338 341 344
315 316 317 318 318 318 318 319 319 319 319 319 319 319 319 319 319 320 320 321 322 323 323 323 326 330 334 342 346 348 348 348 347 347 348 348 348 348 347 346 345 343 339 340 342 341 344 345 344
317 317 317 317 318 319 319 320 320 320 320 320 319 319 320 320 320 321 321 321 321 321 321 322 323 327 329 333 338 344 345 345 344 346 346 347 348 348 346 344 344 345 342 341 341 342 343 342 342
316 316 317 317 319 320 320 321 321 321 320 320 320 320 320 320 319 319 320 319 319 319 320 322 324 324 327 330 333 338 345 342 340 342 343 346 347 348 345 344 345 342 339 330 342 341 340 338 336
317 316 318 319 320 321 320 321 321 322 321 320 319 319 320 318 318 319 318 318 318 318 319 320 323 325 326 328 331 335 339 341 338 339 342 344 347 349 348 348 347 346 345 343 346 343 340 337 333
317 319 321 323 323 324 322 321 322 321 320 320 320 320 318 317 318 317 318 318 317 317 318 319 321 325 326 326 328 331 335 341 345 344 344 343 343 346 348 350 349 349 348 346 343 340 340 340 339
320 321 322 325 324 323 322 323 322 320 320 320 319 317 317 317 317 317 317 317 317 317 317 319 321 324 326 327 327 328 330 335 340 343 342 342 342 345 346 349 347 347 346 344 343 342 342 339 339
320 320 320 322 322 324 323 322 321 320 320 320 319 317 317 316 317 316 316 317 317 317 318 320 321 324 325 327 327 328 329 334 338 340 344 344 343 341 342 345 345 345 344 343 342 342 341 341 340
318 318 322 321 328 329 324 323 323 321 321 320 319 317 316 316 316 316 317 317 318 318 318 320 321 322 323 326 328 328 329 332 335 338 337 330 328 327 330 331 333 334 335 338 340 340 340 341 340
319 320 319 320 322 330 328 324 321 320 320 320 318 316 316 315 316 317 317 317 317 317 318 319 320 319 321 321 326 328 329 328 328 329 328 327 328 326 326 326 326 327 329 331 334 335 337 339 340
317 319 320 329 327 325 329 328 320 320 319 318 317 316 315 316 317 317 317 317 317 316 316 316 317 318 320 319 319 321 325 327 327 328 328 328 328 327 326 327 327 328 328 330 332 332 331 334 336

GFSSGP_925_thetae_099.txt.gz
Theta_e
323 324 325 328 335 338 342 341 337 335 334 334 337 343 345 345 353 363 353 346 345 352 352 348 345 347 348 347 344 338 341 336 336 337 337 336 336 336 337 337 341 344 343 337 328 321 316 320 326
322 323 325 331 337 342 342 340 337 336 334 334 335 339 341 348 349 352 349 346 347 353 353 352 345 345 346 347 347 346 344 340 336 337 337 337 337 336 335 336 338 336 333 325 321 315 319 325 327
322 323 327 332 336 342 343 342 337 334 333 335 335 338 342 346 346 352 350 348 347 351 352 355 345 344 345 345 347 347 346 344 337 337 338 339 338 336 335 335 333 330 324 322 317 315 320 328 334
321 325 327 331 336 337 339 341 335 334 333 333 334 339 340 342 346 350 349 349 350 349 350 355 344 343 344 345 345 347 348 347 339 338 340 341 339 336 335 332 329 324 322 319 315 316 321 328 334
321 324 328 331 332 335 334 335 334 334 334 333 332 335 339 344 346 348 349 349 351 349 348 354 343 342 343 344 346 347 348 347 343 339 342 344 340 336 334 331 326 323 321 317 315 315 318 323 328
322 323 325 330 331 332 332 332 333 334 333 332 331 332 336 337 346 347 348 350 350 349 347 355 343 342 342 344 346 348 348 348 345 342 345 346 340 336 332 328 325 325 320 317 316 315 314 315 317
321 323 322 323 327 330 330 330 331 331 333 332 331 331 335 333 333 348 349 350 349 349 348 353 348 344 340 342 345 347 348 348 347 345 346 346 340 336 331 326 325 323 320 319 319 318 318 317 318
321 321 322 324 322 323 327 328 328 329 329 328 327 331 333 330 330 336 347 348 348 348 348 351 348 346 345 346 342 345 347 347 347 346 346 345 337 335 330 328 326 326 323 320 320 320 321 321 321
321 322 323 322 322 323 324 324 325 327 326 327 327 327 328 326 328 334 340 346 346 346 347 351 348 346 345 344 345 339 342 345 346 346 346 341 343 342 340 333 336 324 322 324 322 321 320 320 320
321 321 321 321 322 323 323 323 324 324 324 324 325 325 324 325 326 333 337 341 346 346 346 349 350 349 347 344 346 344 343 343 344 345 346 344 343 339 336 336 329 332 321 321 321 320 320 320 329
321 320 321 321 321 321 321 322 322 321 321 322 323 324 325 325 326 328 333 337 341 344 345 346 351 351 349 346 346 348 342 341 340 340 342 345 342 339 337 338 337 335 323 331 328 330 329 330 332
320 320 321 321 321 320 320 320 320 321 321 321 322 322 323 323 325 327 329 332 336 343 345 346 350 352 351 348 346 348 342 341 340 340 342 346 344 340 339 337 339 336 333 331 333 334 333 334 336
319 319 320 319 319 319 319 319 319 319 320 320 320 321 321 322 324 325 326 327 332 340 345 347 349 354 355 352 348 347 345 342 342 341 342 344 344 341 342 339 336 336 334 335 334 335 335 336 337
319 319 319 318 318 318 318 318 319 319 319 320 320 320 320 321 322 324 325 327 329 340 344 345 349 353 356 356 353 349 348 344 344 343 343 344 344 343 342 341 339 337 337 335 335 335 335 336 337
318 318 318 318 318 318 319 319 319 319 319 320 320 320 321 321 321 323 323 326 330 331 338 342 347 352 356 357 355 353 350 348 345 345 346 347 346 344 343 341 341 339 337 335 334 335 336 336 338
318 318 319 319 320 319 319 319 320 321 320 320 319 320 320 320 321 321 322 323 324 327 328 330 340 347 355 356 355 354 352 350 348 346 347 348 349 346 347 342 342 340 339 339 337 336 335 335 338
319 318 319 318 319 318 317 318 319 320 320 320 320 320 320 321 321 321 321 322 323 324 326 329 332 339 343 354 355 355 354 354 351 348 348 349 350 350 349 344 342 342 341 341 338 336 335 335 337
318 319 318 318 319 319 318 318 319 320 320 320 321 321 321 321 321 321 322 322 323 324 326 327 328 331 338 346 353 353 353 355 354 352 349 349 352 352 350 348 345 340 345 343 341 339 338 337 336
319 318 319 319 319 319 320 320 320 321 321 321 321 321 321 321 322 321 321 322 323 324 326 329 330 332 333 335 345 349 351 353 354 353 351 350 353 353 351 349 349 343 344 346 344 344 343 340 337
318 318 319 319 319 320 320 320 321 321 321 321 321 321 321 321 322 322 321 322 322 324 326 327 329 331 334 334 339 344 347 349 351 350 350 350 351 352 350 350 349 346 343 346 346 345 343 341 339
319 318 319 319 320 320 321 321 321 321 321 321 321 321 321 321 321 322 322 322 323 324 325 325 327 328 332 334 339 347 348 348 349 348 349 350 351 351 350 352 350 349 349 347 348 345 342 339 342
319 318 318 318 319 320 321 322 323 323 322 322 322 322 322 321 322 322 323 323 323 322 322 324 325 328 328 331 332 336 344 346 344 344 345 347 350 351 351 351 351 350 349 345 347 345 342 341 344
317 318 318 319 320 321 321 323 323 323 324 323 323 322 322 324 323 323 322 321 321 321 321 321 323 326 329 330 332 333 335 337 341 342 342 345 348 351 350 350 351 350 348 345 344 345 343 343 343
318 318 319 320 321 323 323 325 325 325 325 325 324 323 322 322 321 321 320 320 320 320 320 320 321 322 325 328 330 333 337 337 339 340 342 343 343 348 351 349 350 349 348 347 345 346 344 345 341
319 320 322 324 325 326 325 326 326 325 324 323 323 323 323 322 320 320 320 320 319 319 319 319 319 321 322 325 327 329 332 336 340 341 341 340 342 343 349 349 347 348 348 346 344 344 344 346 344
321 321 322 326 328 327 325 327 326 325 323 323 322 322 321 320 320 320 319 318 318 319 319 319 320 321 321 323 326 329 330 330 332 335 337 339 339 341 344 348 348 347 349 348 349 348 348 347 347
320 321 321 325 326 327 325 325 325 325 324 323 322 322 321 320 319 319 319 318 318 319 319 319 320 321 322 323 325 329 331 332 332 332 338 340 342 341 339 346 346 349 348 348 347 347 346 344 344
319 320 324 326 333 331 326 327 327 326 325 323 322 322 321 319 319 318 318 317 318 319 319 319 320 320 322 322 324 327 330 330 331 334 337 339 342 343 345 344 343 346 346 342 344 344 343 343 342
321 322 322 323 325 332 332 327 325 325 324 323 322 322 320 319 318 317 318 317 317 318 318 319 319 320 321 322 322 323 327 330 331 332 334 337 339 340 340 340 341 342 343 343 341 341 340 339 341
323 323 322 331 332 329 333 332 324 324 323 323 322 321 320 318 316 317 318 317 317 318 318 317 318 318 318 318 320 322 323 325 325 328 331 332 331 332 330 333 333 334 334 334 335 336 334 334 337

GFSSGP_925_thetae_102.txt.gz
Theta_e
319 323 325 326 333 336 339 339 336 337 334 335 336 338 343 349 358 368 351 348 354 354 351 347 347 346 346 341 336 335 334 336 337 337 336 336 335 336 338 341 344 343 341 338 329 320 318 321 327
318 322 325 327 335 340 340 340 341 339 335 334 334 337 340 348 351 351 347 348 354 353 351 349 347 347 347 345 339 336 338 336 337 337 337 336 336 336 337 339 342 342 338 328 322 317 320 324 332
319 323 325 329 335 338 341 343 343 335 334 335 335 336 343 347 350 352 347 349 353 352 353 350 347 347 347 347 345 341 341 338 337 338 338 337 337 335 336 338 337 334 328 323 318 317 322 329 329
321 323 325 328 333 336 338 340 342 336 334 334 335 340 342 345 348 351 349 348 352 352 352 350 345 345 346 346 347 346 344 343 337 338 338 339 338 336 335 335 334 329 323 320 315 318 323 330 335
320 322 326 329 332 333 335 338 337 336 335 334 333 337 345 346 348 348 348 349 349 351 355 352 345 345 344 345 345 346 347 346 341 338 339 341 340 337 335 334 331 327 324 319 316 316 321 328 331
320 322 324 327 330 331 333 335 335 335 335 334 333 334 342 345 345 345 347 348 349 350 355 350 344 343 343 343 344 345 347 347 345 339 340 343 342 338 335 333 330 327 323 318 316 315 315 318 320
320 321 322 323 326 329 331 333 333 333 334 334 332 333 336 338 345 347 347 348 349 350 357 353 344 342 342 343 344 346 347 348 347 342 341 345 344 337 334 330 328 329 327 321 318 317 316 316 316
319 320 322 323 323 323 326 330 331 331 331 330 330 331 332 331 332 340 346 346 347 347 356 354 350 350 344 343 344 346 348 348 348 345 343 346 345 337 333 328 325 325 324 322 320 319 319 320 320
319 320 320 320 321 323 325 324 327 329 329 329 328 328 329 328 328 333 340 346 346 346 351 352 349 348 348 349 345 346 348 348 348 347 345 346 345 338 335 326 327 323 321 320 319 320 320 320 320
319 320 320 322 323 322 323 324 324 324 324 327 327 327 326 326 327 329 335 342 345 345 347 352 348 347 346 345 347 341 347 348 348 348 347 346 345 345 343 336 328 332 323 319 319 319 319 319 318
319 320 321 321 321 322 322 322 323 324 324 325 324 324 326 326 327 328 330 336 340 345 345 350 350 348 347 345 346 344 345 346 349 350 350 346 345 343 341 338 335 328 328 320 319 318 318 318 330
318 320 320 321 321 321 321 321 321 322 322 322 322 323 323 324 326 326 328 329 333 341 344 348 351 350 349 348 349 349 344 344 344 345 346 347 343 343 340 339 337 335 333 323 331 330 330 332 332
319 319 320 320 320 320 320 320 320 321 321 321 321 321 322 323 324 323 324 326 329 331 344 346 352 353 351 349 350 351 347 344 342 342 341 344 346 346 340 338 340 340 335 331 329 334 334 333 336
319 319 319 320 320 319 319 319 319 319 320 320 320 320 320 322 322 323 325 327 328 329 345 342 338 348 356 351 351 353 348 344 342 342 341 341 348 344 342 341 338 341 334 335 334 334 335 336 335
319 319 319 319 319 319 319 318 319 320 320 320 320 321 321 322 321 323 323 327 326 327 333 342 345 337 331 357 351 354 353 348 347 344 342 343 342 347 344 342 343 337 338 337 337 336 336 337 337
319 318 318 319 320 319 319 318 319 321 321 320 320 320 321 322 322 322 322 323 325 325 328 334 345 350 354 358 358 355 354 353 347 349 346 345 343 343 347 344 341 340 340 337 337 335 336 335 334
320 319 319 319 320 320 319 319 319 320 321 320 321 321 321 322 324 322 322 323 324 326 327 328 330 333 354 354 357 358 355 354 354 350 350 349 348 344 346 345 344 343 340 339 337 337 335 336 336
318 319 319 319 320 320 318 318 318 319 321 321 322 322 322 323 323 324 321 321 323 325 326 328 328 328 331 339 356 356 356 355 356 354 352 350 351 350 345 348 344 343 340 339 340 337 337 337 337
319 319 319 320 321 320 320 320 320 321 321 321 322 322 324 324 324 322 322 323 322 325 328 329 331 332 332 329 341 357 354 354 355 355 355 352 352 353 352 350 349 347 345 341 342 340 343 337 337
320 319 319 319 320 320 320 320 321 321 322 322 322 323 324 324 324 325 323 325 324 324 326 328 329 330 333 336 335 336 345 351 351 354 353 353 353 353 354 353 350 350 351 347 345 343 342 344 340
320 320 320 319 320 320 321 321 321 321 322 323 323 324 324 324 325 327 328 326 324 325 325 325 325 329 329 330 332 334 342 345 344 351 356 355 353 353 351 354 351 350 350 347 348 347 345 344 343
319 320 320 319 319 319 320 322 324 322 324 324 325 324 323 324 324 326 328 326 324 323 323 322 325 326 328 329 330 334 339 340 344 345 349 353 352 351 352 352 353 350 351 347 347 345 346 344 342
319 318 319 319 320 320 320 321 321 323 323 324 326 325 325 325 326 324 323 323 322 321 321 322 322 323 323 328 330 332 333 335 337 338 342 343 351 350 353 352 351 354 352 352 349 348 348 345 341
318 318 319 319 320 323 321 322 322 324 325 327 327 325 324 325 324 323 322 321 321 320 320 321 322 321 324 323 327 329 332 334 336 337 339 340 346 351 349 348 350 352 354 352 350 349 348 346 342
319 321 322 322 324 324 323 323 326 328 326 325 325 324 324 324 323 322 322 321 321 320 319 320 320 321 322 322 323 327 328 332 334 336 337 337 338 344 349 344 349 353 353 352 351 348 348 347 345
319 321 322 324 327 325 325 328 328 327 326 325 324 324 324 323 322 321 321 321 319 319 320 320 321 321 322 322 324 328 328 331 332 333 334 336 335 334 338 341 345 343 351 351 350 347 348 347 346
322 322 322 324 324 329 327 326 326 326 327 326 324 324 324 322 322 321 320 320 319 319 320 321 320 322 323 324 323 325 325 331 334 333 332 334 336 341 334 337 344 338 328 331 346 348 348 346 346
322 320 322 324 333 332 326 326 328 329 328 326 325 325 324 324 321 320 320 320 318 318 318 320 320 320 321 321 323 324 323 324 329 331 334 334 335 336 340 344 342 339 333 335 344 347 346 344 340
324 323 323 323 326 334 332 328 328 327 326 325 324 324 324 323 321 320 319 317 317 318 317 319 319 319 320 320 320 320 322 324 325 328 329 330 331 335 338 340 344 344 342 341 341 340 341 336 330
324 326 326 332 332 331 333 333 327 328 324 326 324 324 323 323 320 319 317 317 318 317 317 317 319 318 318 318 318 319 320 324 325 325 325 324 324 324 325 325 337 341 342 338 332 324 337 335 333

GFSSGP_925_thetae_105.txt.gz
Theta_e
319 318 319 322 324 327 330 333 333 334 333 330 334 335 353 354 362 364 353 353 346 346 349 348 346 343 337 334 334 333 335 337 337 336 335 335 335 338 339 339 340 340 339 335 325 317 321 326 329
318 317 323 321 324 329 333 333 339 332 331 332 333 335 351 357 351 351 353 352 341 345 349 348 346 344 339 335 335 334 335 337 337 336 335 334 335 336 339 342 342 340 334 324 318 318 323 330 333
317 319 319 321 323 328 331 339 339 337 332 332 333 336 345 353 350 347 353 352 342 346 347 348 346 345 343 338 335 336 335 336 337 337 336 335 334 334 336 338 338 334 326 320 316 320 326 328 331
318 318 318 321 322 325 330 332 339 341 333 332 332 343 345 349 351 350 352 351 344 348 348 347 346 346 346 343 339 338 340 336 337 337 337 337 335 334 334 334 331 327 322 319 316 321 326 333 334
316 315 318 321 323 327 328 330 339 339 334 331 331 347 347 349 349 350 352 351 350 348 349 346 347 347 346 346 345 342 342 341 337 337 338 338 337 334 334 333 332 327 323 318 316 319 324 329 331
313 315 317 318 321 325 327 328 333 333 333 332 332 344 345 347 347 348 350 352 350 350 351 344 345 345 346 346 345 346 345 344 339 337 338 341 338 335 333 331 329 325 323 318 316 316 318 321 322
314 315 315 317 320 322 322 325 331 331 332 330 330 339 333 334 346 347 348 350 350 352 350 344 344 345 344 344 344 345 346 346 344 338 339 342 341 336 333 330 326 324 322 318 317 316 315 315 316
314 313 316 316 318 318 321 321 327 330 330 329 329 331 330 330 334 347 348 349 351 353 352 345 344 343 343 344 344 345 346 347 347 342 339 342 343 338 332 327 323 322 321 318 318 318 318 318 319
314 313 314 315 317 318 319 320 320 328 328 328 327 327 328 328 329 334 344 349 355 355 354 351 342 342 342 343 344 346 346 347 347 345 341 342 345 340 333 327 322 320 320 318 318 319 319 319 319
311 313 315 317 318 317 319 319 318 321 325 325 326 326 326 326 326 326 328 344 348 356 354 350 339 339 341 343 342 345 348 349 348 347 345 344 345 343 336 330 324 321 319 318 318 318 319 318 318
313 314 317 318 318 318 318 318 319 319 321 323 325 324 323 323 324 325 326 329 344 352 351 350 344 338 338 346 345 341 344 347 348 348 347 346 345 344 342 336 326 327 326 319 318 318 318 318 317
313 315 317 317 318 318 319 319 319 319 319 319 319 320 319 319 319 323 325 324 324 332 350 349 348 347 345 345 345 344 340 337 343 347 347 347 346 345 345 341 337 328 326 325 319 318 318 318 324
313 315 317 317 317 316 318 318 318 317 318 319 319 319 318 317 318 320 322 322 323 331 348 350 348 347 346 345 347 345 344 342 338 340 346 346 347 345 344 344 338 336 332 327 323 321 325 328 332
314 315 316 316 316 317 317 317 318 318 318 318 318 318 318 316 317 319 320 321 325 345 351 351 350 348 348 348 351 347 347 346 343 342 341 346 345 341 342 343 339 337 337 336 329 323 331 334 333
315 315 315 316 317 316 316 315 316 316 317 317 317 318 317 317 318 317 319 321 325 334 349 353 355 350 349 350 349 353 353 347 345 342 341 340 341 341 343 346 339 338 341 339 331 328 331 337 336
316 316 313 315 316 316 315 315 317 317 316 317 317 318 319 318 318 320 319 323 326 330 344 345 345 347 348 341 333 348 352 354 348 346 342 342 340 339 346 345 342 341 339 338 334 335 332 335 335
315 315 316 316 317 317 316 315 317 317 317 319 317 317 317 316 317 320 320 326 326 326 329 336 335 341 339 332 330 337 353 352 353 349 347 343 342 341 343 343 344 341 342 341 339 339 335 337 336
315 316 317 317 317 316 315 315 316 316 319 318 318 318 318 318 318 319 320 323 324 323 324 326 330 332 332 347 352 354 355 353 351 353 354 349 347 344 341 342 343 343 341 340 340 338 337 336 335
316 317 316 316 317 318 315 315 316 317 318 317 317 317 317 318 318 321 322 321 324 326 327 327 328 330 334 334 333 351 354 354 353 351 352 352 352 350 346 343 343 345 343 340 340 340 338 335 335
317 317 317 318 318 317 316 317 317 317 318 317 317 317 318 319 319 320 322 324 326 326 328 329 328 327 328 329 331 333 335 343 354 354 354 354 353 354 350 347 346 346 344 343 341 340 340 339 339
318 318 318 319 319 317 316 316 317 320 318 317 318 317 318 318 318 319 323 324 326 325 325 326 326 327 327 329 329 328 331 332 339 347 350 351 353 353 351 350 348 349 345 346 345 342 341 340 341
317 317 317 320 319 316 317 316 317 319 319 319 319 317 317 318 320 323 321 322 322 323 322 327 326 324 325 323 325 327 329 331 331 335 337 338 345 351 349 349 349 350 349 347 347 345 343 341 340
318 318 316 317 317 318 318 316 316 318 319 319 319 319 317 317 321 320 319 321 321 321 323 323 321 321 320 324 327 328 331 329 328 327 327 328 330 337 348 350 348 346 340 340 344 345 347 345 341
318 318 318 317 316 316 317 318 317 318 319 320 322 322 322 321 319 318 320 320 320 321 319 321 320 322 321 320 321 322 322 328 332 330 331 332 330 332 332 338 337 326 330 330 339 343 344 346 344
317 317 317 318 318 320 319 319 318 318 325 325 323 323 322 319 317 317 317 316 319 319 320 320 320 320 320 320 321 322 322 326 330 329 328 330 332 332 333 332 339 338 329 335 340 342 340 343 344
317 317 318 321 321 320 320 324 324 324 324 323 324 321 321 319 316 316 315 316 318 320 320 319 320 320 320 321 321 322 324 323 327 327 331 333 333 333 333 334 337 338 338 336 332 331 330 327 342
321 323 319 322 321 322 322 322 323 325 326 325 325 323 320 318 316 315 315 317 318 317 320 320 320 320 321 320 320 321 324 324 323 325 328 329 330 333 333 334 335 335 339 337 334 328 324 329 334
322 321 323 323 328 328 326 324 326 326 326 325 324 323 320 319 317 315 315 316 317 317 317 318 320 320 319 319 319 320 320 320 321 323 327 327 326 326 325 326 327 327 336 335 333 332 331 327 332
321 323 321 320 327 327 324 324 325 327 325 324 321 321 321 321 317 316 314 316 316 317 318 317 320 319 319 319 319 319 318 318 318 323 323 323 324 323 322 321 321 323 321 323 326 327 324 325 334
319 320 326 331 331 326 322 325 322 324 322 321 320 320 320 319 317 316 314 314 315 317 317 316 317 319 318 318 318 316 316 316 318 318 320 320 321 318 318 321 319 317 319 321 319 322 325 329 332

GFSSGP_925_thetae_108.txt.gz
Theta_e
319 317 317 321 322 322 327 330 331 332 332 329 336 353 355 354 359 360 352 350 347 346 347 347 344 336 333 333 332 334 335 334 334 333 333 333 333 333 334 334 335 337 336 330 319 320 325 330 330
317 316 321 318 322 325 326 328 331 331 330 329 346 350 352 352 352 355 355 353 345 344 346 347 343 335 334 333 333 334 336 335 334 333 334 335 336 336 337 338 338 337 331 323 319 323 328 330 331
316 317 317 318 319 323 325 328 331 331 334 330 334 342 349 350 354 353 354 350 347 346 346 346 342 335 335 335 333 334 336 336 335 334 333 334 335 337 338 339 339 333 324 318 319 324 327 331 333
314 314 314 319 321 322 325 324 325 328 336 329 339 346 348 349 349 353 350 345 346 347 345 345 342 337 335 336 335 334 335 336 336 335 334 332 333 333 335 335 332 327 322 318 320 325 329 329 332
313 311 315 319 320 322 323 324 324 335 332 330 343 348 351 349 352 352 347 344 344 347 346 345 344 342 337 336 337 337 336 336 337 337 335 334 332 331 331 330 327 323 320 317 319 323 328 332 332
311 310 315 317 318 321 321 321 323 335 332 329 346 347 346 351 352 352 349 343 339 342 345 346 346 346 342 340 338 339 340 336 337 338 338 336 334 332 331 329 326 322 320 316 316 319 323 326 325
312 311 314 316 318 318 320 320 320 321 332 331 339 341 335 341 351 351 351 345 338 338 342 345 346 346 346 344 343 342 342 341 337 337 339 339 335 331 329 327 324 321 320 317 316 316 316 317 317
312 310 315 314 317 317 319 317 317 321 329 331 331 331 331 329 346 351 351 350 346 343 341 342 345 346 346 346 346 346 345 344 341 338 338 341 339 335 328 324 322 320 319 317 317 317 317 317 318
311 310 311 314 316 317 317 318 319 318 326 326 327 328 328 331 335 349 354 354 354 352 343 340 342 343 343 344 344 345 346 346 345 342 339 340 343 339 333 328 323 320 320 318 318 318 318 319 319
309 308 311 314 317 317 316 317 317 319 318 323 325 326 327 326 326 332 352 354 355 354 347 343 343 343 341 341 342 344 346 347 347 346 341 340 343 343 337 331 326 321 320 319 318 318 319 319 318
310 310 313 316 316 316 316 316 318 318 319 319 320 320 319 321 322 322 334 353 355 354 352 347 343 342 340 341 342 342 347 349 349 348 345 342 342 345 342 336 330 325 322 320 319 318 319 319 318
312 311 312 314 315 316 316 317 318 317 317 318 318 319 317 316 318 320 322 333 350 355 354 350 347 345 344 341 339 339 341 342 346 347 347 346 344 345 344 341 335 328 325 324 321 319 319 319 319
311 311 312 314 315 314 314 316 317 317 317 317 317 318 318 317 317 318 319 320 323 347 352 352 346 343 340 341 338 338 339 340 337 341 343 346 346 346 345 345 342 338 329 327 325 321 321 319 318
312 312 312 313 313 313 315 315 316 317 317 316 316 316 316 316 317 318 318 319 331 339 345 350 348 341 343 343 342 344 342 340 338 338 338 340 343 345 346 345 344 343 338 332 327 325 321 319 319
311 312 312 313 314 314 314 315 315 316 316 316 315 314 315 315 316 316 318 319 320 344 344 348 348 347 345 344 345 345 345 344 343 342 341 337 337 338 343 345 344 344 342 337 335 333 329 322 327
315 313 313 312 314 315 314 315 315 314 314 315 314 315 317 316 316 318 318 318 330 345 350 349 348 347 346 346 345 335 347 347 345 346 344 341 341 339 339 341 341 343 343 339 337 337 336 327 326
311 315 315 316 315 315 314 314 315 314 314 315 315 314 315 315 315 317 319 323 328 344 351 351 352 351 348 348 342 346 353 354 352 348 344 343 342 341 340 340 341 343 345 340 338 340 338 331 329
314 315 314 315 316 315 314 314 315 314 313 314 314 314 314 314 314 316 322 326 330 336 343 336 337 343 345 346 343 334 339 347 350 352 352 350 346 343 341 342 340 343 345 343 341 340 338 334 334
314 314 314 315 315 316 314 314 313 313 314 314 314 314 315 315 315 318 317 324 326 328 328 330 331 331 331 337 337 336 346 350 349 350 351 351 352 353 347 342 341 343 343 344 342 342 341 339 337
315 314 314 314 315 315 316 316 315 315 315 314 315 314 314 314 315 315 319 323 326 328 329 331 331 331 329 329 330 331 331 333 334 337 344 351 351 349 351 349 344 342 344 344 343 341 340 340 338
316 315 316 317 317 316 316 315 315 315 316 316 314 314 315 314 315 316 322 324 326 329 327 326 326 326 326 325 326 325 324 325 326 328 330 333 335 339 346 346 347 345 344 343 343 341 340 339 339
318 316 316 316 316 315 315 316 313 314 315 316 315 314 313 314 315 320 322 322 324 326 325 326 325 325 323 321 322 324 325 326 323 323 324 325 326 328 329 328 340 347 345 344 343 343 341 340 339
316 317 317 317 315 315 315 313 313 315 316 315 315 315 315 314 318 321 320 319 323 327 328 325 323 321 320 327 325 323 326 325 322 323 327 325 325 327 328 330 325 333 342 343 339 340 339 328 341
316 317 314 313 312 314 314 315 314 315 316 315 316 319 319 317 320 318 318 318 319 325 323 321 320 322 321 320 320 321 321 322 323 325 327 330 330 331 332 333 334 334 335 339 337 332 331 331 337
316 314 315 316 314 316 316 317 314 315 321 321 322 319 317 316 317 316 314 313 317 320 320 320 320 320 320 319 319 320 320 322 326 325 326 324 329 331 332 332 333 333 333 337 336 331 326 329 338
314 313 314 319 318 317 318 320 320 321 323 322 320 318 316 314 314 314 314 313 315 318 319 319 319 319 319 319 319 319 322 323 324 323 325 325 328 328 326 323 324 328 332 335 336 336 328 329 335
321 319 315 319 320 320 319 319 321 324 324 323 321 319 318 316 315 315 313 314 317 318 318 319 319 319 320 319 319 320 320 320 322 322 321 322 324 323 322 321 318 320 322 327 330 334 335 334 333
321 320 323 320 325 325 324 323 323 326 323 322 320 319 318 318 315 313 312 314 315 317 318 319 318 318 318 319 319 320 319 320 320 318 318 319 321 319 319 317 317 317 317 318 324 330 332 332 331
320 320 320 320 325 324 321 322 322 323 322 321 321 320 319 318 316 314 313 313 314 315 316 317 318 319 319 319 319 319 318 319 318 318 317 319 318 318 317 315 318 318 316 316 317 319 325 329 329
318 320 324 326 326 323 316 320 320 319 319 320 320 318 318 319 317 316 314 313 313 314 315 316 317 319 319 319 319 319 318 319 318 317 317 317 316 315 313 312 313 316 316 316 317 318 319 321 325

GFSSGP_925_thetae_111.txt.gz
Theta_e
318 317 317 319 322 321 326 328 329 330 329 335 343 350 352 351 356 354 351 352 345 346 347 346 339 333 332 331 334 335 335 333 331 330 333 336 337 338 338 337 334 334 336 332 319 323 329 332 332
317 316 319 316 321 325 326 325 330 330 329 340 345 349 351 353 355 354 353 352 346 346 347 345 338 333 332 332 334 334 333 332 330 330 332 333 334 335 334 333 335 335 332 322 319 324 330 330 331
314 318 315 317 317 323 326 325 328 324 324 328 342 345 348 355 354 353 352 351 345 347 347 345 338 334 333 332 334 334 333 331 331 331 331 331 333 335 336 336 335 332 324 318 321 325 329 330 331
313 312 312 318 320 321 323 323 321 323 323 332 341 351 349 349 352 352 354 351 345 347 347 344 338 334 333 333 334 335 334 332 331 332 334 336 337 338 337 336 334 326 320 317 322 326 331 332 332
313 309 314 317 319 320 321 321 321 321 326 336 342 351 351 352 351 354 352 347 344 346 347 343 338 334 334 333 334 335 336 335 332 331 330 333 335 336 337 335 330 323 320 317 321 326 328 329 330
310 309 314 317 318 320 319 319 319 319 322 347 350 348 347 354 353 350 346 344 345 345 346 343 339 335 335 335 335 335 335 336 335 333 330 328 327 329 330 329 327 322 320 317 319 323 328 329 328
311 310 313 315 317 317 319 317 317 317 320 328 344 349 344 351 352 346 343 345 344 345 345 344 342 337 336 336 337 337 336 336 337 337 335 333 330 327 325 325 324 321 319 317 316 319 322 324 323
310 310 314 314 316 318 319 316 316 318 319 331 337 337 336 345 352 349 347 347 346 346 345 344 344 344 340 338 337 339 339 337 337 337 338 337 334 331 329 327 324 321 319 318 316 316 317 317 318
309 310 311 314 316 317 315 315 316 316 320 323 325 331 331 340 350 350 349 352 349 347 346 345 345 345 345 343 342 342 341 341 339 337 338 340 339 336 331 328 326 324 321 319 317 317 316 316 317
309 308 312 313 316 316 314 315 315 317 318 321 324 322 327 346 348 350 351 352 352 350 346 345 345 346 346 346 345 345 345 344 343 341 339 339 341 341 337 331 327 324 322 321 320 319 318 318 318
308 310 312 314 316 315 316 315 316 317 319 319 320 318 317 320 335 351 351 352 351 349 347 346 348 347 346 347 346 346 346 346 346 345 343 340 340 343 342 339 333 331 326 324 322 319 320 322 320
311 310 312 313 314 314 314 315 316 316 316 317 317 317 317 317 315 325 345 351 353 352 351 346 346 347 346 347 346 346 349 350 351 347 346 343 341 341 343 343 340 335 331 324 327 322 320 320 320
310 311 311 312 312 312 313 314 315 315 315 315 315 316 315 315 316 317 328 336 351 353 353 350 345 345 345 346 344 345 346 346 343 343 345 346 345 344 343 343 344 342 338 332 325 323 321 320 319
310 310 311 311 311 311 313 314 313 314 315 316 314 314 313 313 314 317 315 319 327 341 350 352 350 347 345 344 342 342 341 340 340 340 341 345 346 346 345 344 345 344 343 340 335 328 326 323 321
311 312 311 311 312 312 312 313 314 314 315 315 314 313 312 312 314 314 317 316 325 327 331 348 351 350 345 343 342 341 339 339 339 339 341 342 344 345 345 345 345 345 344 343 342 339 332 329 328
314 312 313 313 313 313 314 314 315 314 313 313 313 312 313 313 313 316 318 317 321 330 336 343 348 349 345 341 341 341 343 344 343 342 341 342 342 342 343 344 343 343 344 343 342 342 340 336 334
311 313 313 315 313 314 313 313 314 313 313 313 313 312 312 312 313 316 317 318 319 334 342 346 347 347 344 341 342 344 345 344 346 346 345 344 344 343 343 343 342 343 342 341 342 342 341 337 336
314 314 314 315 316 314 314 313 312 313 312 313 312 312 313 313 313 316 317 320 323 340 346 348 348 347 346 346 346 342 345 342 347 350 352 349 348 345 343 342 342 342 342 342 341 343 341 338 337
314 314 314 314 314 315 313 312 312 312 312 311 311 311 312 312 313 314 317 326 334 346 350 350 350 349 347 347 347 345 342 339 346 350 349 347 349 349 349 348 345 342 342 342 343 342 341 338 338
313 314 313 313 313 312 313 313 313 314 312 311 312 312 312 312 313 313 317 327 337 345 345 344 345 345 347 347 345 341 339 337 336 333 331 331 331 336 336 343 346 346 343 343 342 342 340 340 339
315 314 314 314 315 314 315 314 314 314 315 315 313 312 312 311 312 312 315 322 329 334 331 331 330 330 331 332 331 328 325 324 323 321 321 323 325 324 325 326 325 331 342 344 343 342 342 339 339
315 314 316 315 314 313 314 314 312 313 313 313 313 311 311 311 312 313 317 320 325 328 331 332 330 328 325 325 323 321 321 321 321 321 320 323 326 328 329 329 331 331 333 339 343 343 342 341 339
315 316 315 315 314 314 313 312 312 313 315 314 313 313 313 311 310 313 319 321 324 328 330 327 326 326 323 321 322 321 322 322 321 321 321 323 328 330 331 332 333 332 332 334 339 342 342 340 340
315 316 312 310 310 313 313 313 312 314 314 314 315 319 317 315 313 316 319 321 323 325 326 325 326 321 324 324 321 320 319 320 320 322 326 326 325 328 329 329 329 332 333 333 334 334 337 338 338
314 312 313 314 313 314 313 314 312 314 318 320 320 318 315 314 314 313 312 315 321 324 323 321 320 322 320 319 319 319 319 319 323 324 323 324 324 324 324 323 321 321 325 328 329 330 332 334 331
312 311 313 317 316 315 316 318 316 321 321 320 318 315 314 313 312 312 313 315 320 321 320 320 319 319 319 319 319 318 319 320 320 322 323 323 324 323 322 320 317 315 315 318 321 325 329 331 332
319 314 311 316 318 319 318 318 317 321 321 320 318 317 316 313 313 313 312 314 317 318 319 319 319 319 319 318 318 318 318 319 319 320 322 321 321 321 320 318 316 315 314 314 314 317 319 329 332
321 319 322 318 323 324 321 321 319 324 322 320 319 318 316 315 314 312 310 312 314 317 318 318 318 318 318 318 318 318 318 319 319 319 319 318 318 319 318 317 315 313 312 312 313 313 314 317 319
319 319 319 318 319 321 320 321 318 322 320 321 320 318 318 318 315 313 312 313 314 315 316 317 317 318 318 318 318 318 318 319 319 319 318 318 318 318 318 317 314 312 311 312 313 312 313 315 317
318 321 320 323 324 318 315 318 318 319 317 316 316 317 317 319 318 315 314 314 312 311 311 312 313 314 316 316 317 318 319 319 318 318 317 318 318 318 317 316 313 312 311 312 312 312 313 315 317

GFSSGP_925_thetae_114.txt.gz
Theta_e
318 317 317 318 322 320 326 327 326 329 329 338 346 348 348 351 351 350 351 351 347 347 347 342 336 333 335 335 335 335 334 334 340 344 345 341 338 336 338 338 336 334 331 330 318 322 327 331 331
315 316 318 314 322 325 328 324 328 329 327 323 340 348 349 353 354 353 352 351 349 347 346 341 335 333 334 335 335 334 333 331 330 332 335 336 336 336 337 335 334 332 332 322 320 325 332 332 332
313 317 315 316 316 326 329 325 327 323 321 324 341 344 348 353 354 351 350 348 347 347 346 340 334 332 333 334 334 333 332 330 329 330 332 334 335 336 336 333 333 334 328 319 321 328 331 332 333
313 312 311 317 320 320 323 323 321 320 319 326 340 351 348 349 353 351 351 349 347 347 346 339 334 332 332 334 333 332 331 329 329 330 331 333 334 333 333 335 334 331 323 318 323 328 330 331 331
312 309 313 317 318 320 320 320 319 319 319 327 343 351 350 352 350 352 349 350 346 347 346 340 334 333 332 333 334 333 330 328 328 330 329 330 331 335 336 335 332 325 320 318 323 327 331 332 332
309 308 314 317 318 319 319 318 318 317 316 343 350 350 348 353 353 354 350 349 345 346 346 342 335 333 332 333 334 334 333 328 327 329 331 332 333 333 333 333 329 323 319 317 321 325 327 328 330
310 309 313 315 317 317 319 315 316 317 316 328 344 349 346 352 353 354 353 349 346 346 346 343 336 334 333 333 334 335 335 334 330 329 329 329 330 331 331 329 326 322 320 317 319 322 326 328 328
308 309 313 313 315 317 317 316 315 316 318 325 337 343 347 348 352 351 351 350 348 347 346 343 337 334 335 335 334 335 335 336 336 334 332 331 330 329 328 328 327 324 321 319 317 318 321 325 326
308 309 311 314 314 316 315 315 315 315 317 323 324 330 332 351 350 349 350 351 350 348 347 344 340 336 335 336 336 336 336 336 336 337 337 336 334 332 331 329 327 325 323 322 322 318 317 318 319
310 309 311 312 313 315 313 315 315 316 318 320 324 321 348 350 349 348 350 350 350 350 348 345 343 341 338 337 337 337 338 338 337 337 337 338 339 337 335 332 333 332 330 329 326 327 325 318 317
308 310 312 313 313 315 315 313 315 316 318 318 319 318 327 344 348 348 349 349 348 348 348 347 345 345 344 342 340 340 340 341 341 340 339 338 338 340 340 338 335 330 327 327 324 325 323 324 320
310 309 312 313 314 313 314 314 314 316 316 317 317 316 316 328 338 344 348 350 348 346 347 347 347 346 346 346 345 345 344 345 348 344 343 341 339 339 340 342 342 339 335 331 329 323 323 321 322
309 311 311 311 311 311 311 311 313 314 314 313 313 315 314 314 318 333 349 350 350 350 346 344 345 346 346 347 346 346 346 346 347 346 345 345 344 342 340 341 342 343 342 340 336 332 326 323 322
310 311 311 310 310 310 311 312 311 313 314 314 313 313 314 312 312 314 319 332 347 351 350 349 344 343 345 346 346 346 347 345 345 344 344 344 345 345 344 343 343 343 343 343 343 341 338 333 327
310 312 310 310 311 311 309 311 311 313 314 314 313 311 311 311 312 312 316 318 321 333 344 350 350 347 344 345 346 345 345 343 343 342 341 342 343 345 346 345 345 344 344 344 344 344 343 341 337
312 311 313 313 311 312 312 312 314 313 313 313 312 311 311 311 311 314 314 316 320 321 323 332 348 350 348 346 345 345 344 342 341 341 340 342 343 343 344 344 345 344 344 343 343 343 343 342 341
311 313 312 314 312 313 312 312 313 313 311 311 311 311 311 310 311 313 315 315 316 320 323 331 337 346 349 348 346 344 343 343 342 344 344 344 344 344 343 344 344 343 344 343 342 342 341 340 340
314 313 313 314 315 312 313 312 312 312 313 312 311 311 311 311 311 314 315 315 316 321 327 335 336 344 346 347 345 343 343 345 346 349 350 348 347 345 344 344 344 343 343 343 343 342 341 340 339
313 313 314 313 313 314 313 312 312 311 312 309 309 309 310 310 311 313 314 315 319 329 336 338 342 344 346 344 342 343 344 344 339 348 350 346 344 346 345 346 345 344 342 343 343 342 341 341 340
313 314 313 313 313 312 313 313 312 312 312 312 311 310 310 312 310 311 315 321 325 333 336 341 344 345 346 344 343 343 340 340 339 332 329 325 325 324 325 326 327 332 341 343 343 342 340 340 340
313 313 313 314 314 313 313 313 314 313 312 312 312 310 311 312 311 310 312 319 327 336 339 344 346 347 346 345 344 338 332 328 323 322 322 324 323 324 324 325 326 329 333 336 338 342 342 340 339
314 313 315 315 314 315 313 313 312 313 312 312 312 310 311 311 310 310 311 317 325 334 341 344 346 345 343 342 338 331 322 320 320 320 321 323 326 327 328 328 329 330 331 332 334 338 341 341 338
314 314 314 315 313 312 312 312 310 312 315 313 312 312 315 314 312 311 310 314 320 329 337 336 335 333 331 327 323 320 319 319 320 320 321 325 325 326 325 325 327 328 330 331 332 334 337 337 338
313 313 310 308 308 313 311 312 311 311 313 314 316 316 317 314 314 314 312 315 320 324 329 329 327 326 324 321 320 320 319 319 320 320 320 322 324 324 323 323 322 323 325 327 329 331 332 335 336
311 310 312 314 312 314 311 312 311 312 314 317 318 317 314 312 313 313 315 316 320 323 326 325 325 322 321 322 320 319 319 318 318 318 319 321 322 323 322 322 321 320 319 319 321 324 327 329 331
312 311 312 316 315 314 314 316 315 317 319 317 315 314 313 311 310 312 315 318 321 323 324 325 321 321 323 321 319 319 319 318 318 318 318 319 320 320 321 321 319 317 314 313 314 315 318 321 326
314 312 310 312 316 317 315 316 315 320 320 319 317 316 314 312 311 309 309 315 321 323 323 322 320 320 319 319 319 318 318 319 319 319 319 320 320 321 319 319 317 316 312 310 310 310 312 314 317
317 314 319 315 322 323 318 320 318 323 320 319 318 316 315 314 312 312 311 313 316 317 318 318 318 318 318 318 318 317 317 318 318 319 319 320 319 320 319 319 317 316 313 310 309 309 309 308 309
319 319 317 316 316 319 320 319 316 320 318 316 315 315 314 315 314 312 311 312 314 315 316 316 317 316 316 316 316 317 317 318 318 319 319 319 319 318 318 318 317 316 314 311 310 309 309 309 309
317 321 318 321 322 315 315 317 315 316 316 315 314 314 313 311 313 312 311 311 311 311 311 310 310 311 313 314 314 316 316 317 317 317 318 319 317 317 318 319 319 318 315 313 311 311 310 310 311

GFSSGP_925_thetae_117.txt.gz
Theta_e
316 315 317 320 329 331 336 335 330 333 330 337 330 347 349 352 351 355 353 354 353 355 354 349 338 340 341 341 343 345 346 346 345 344 344 340 336 335 335 337 341 342 339 330 321 324 326 328 327
315 315 318 322 332 338 340 331 332 331 327 325 333 350 352 355 355 355 353 354 353 355 353 351 336 339 340 338 338 341 344 345 345 345 344 339 336 334 336 338 337 334 332 323 321 325 330 330 332
313 316 321 325 329 339 340 332 331 327 323 325 332 347 351 352 355 351 351 353 353 354 352 347 334 335 337 337 335 335 337 341 343 344 342 338 335 335 337 335 334 333 331 320 323 329 331 332 332
312 317 318 325 331 329 335 329 326 324 322 326 334 351 351 351 351 351 353 352 352 353 352 340 333 333 335 335 334 333 331 330 332 334 334 334 333 336 335 334 334 333 326 319 323 330 331 332 334
312 316 322 324 326 325 325 324 323 323 321 325 347 352 353 353 355 356 353 352 352 353 352 344 333 332 334 335 333 331 329 328 328 329 331 332 334 335 332 332 333 330 322 319 323 329 331 331 332
315 316 322 325 323 323 323 323 322 320 321 324 346 353 353 355 356 356 353 352 351 353 352 349 334 332 334 334 333 331 329 328 329 329 330 331 331 332 333 334 333 327 321 319 324 328 332 333 333
315 317 320 320 323 322 322 320 320 320 321 326 347 352 349 356 356 356 354 353 352 353 353 348 339 333 334 334 334 332 329 328 329 329 329 330 332 334 335 335 333 327 321 319 322 326 329 330 332
314 316 317 317 319 322 320 319 319 319 322 326 342 351 350 353 356 355 354 352 352 352 352 350 347 344 344 337 335 334 333 329 328 328 330 332 333 334 335 334 332 330 326 323 321 323 327 330 331
311 323 321 316 317 319 318 319 318 318 319 325 330 332 338 353 353 353 353 352 351 352 352 350 347 347 346 345 339 335 335 335 333 331 330 329 338 337 336 334 329 327 326 329 326 322 319 321 324
317 324 325 317 316 317 318 318 318 320 320 327 328 347 350 352 351 351 351 350 350 350 351 351 349 347 346 345 346 344 343 342 341 342 341 343 344 342 341 337 330 329 327 324 323 322 320 318 328
313 318 319 315 315 316 317 317 317 319 321 322 328 347 353 352 350 349 348 347 347 348 350 351 351 349 346 345 346 347 346 347 347 345 341 346 345 343 342 344 341 341 336 339 335 333 326 333 331
313 313 312 314 315 317 317 316 317 317 319 318 318 325 350 353 353 350 349 348 348 348 349 350 351 351 348 347 347 347 347 348 348 347 343 345 345 346 346 346 346 344 343 341 338 338 334 324 326
314 312 312 315 314 314 314 314 315 317 318 318 318 318 326 348 352 351 351 350 349 348 348 349 351 351 350 350 349 349 349 349 349 349 348 348 347 347 346 346 346 346 346 344 344 342 339 336 332
314 315 314 313 313 314 313 314 314 316 317 318 318 319 319 322 331 337 340 351 352 351 349 348 349 349 350 349 352 351 351 350 350 350 349 346 347 349 347 347 346 346 346 346 346 345 344 342 340
312 312 312 313 312 313 313 314 315 316 317 318 318 319 318 319 318 319 321 335 348 351 353 352 348 349 349 350 352 351 351 350 350 349 346 345 344 344 348 348 347 347 347 345 346 344 344 344 343
312 312 314 315 313 314 314 316 317 317 316 318 319 318 318 319 318 318 319 318 321 336 346 352 351 350 350 350 351 351 350 350 349 346 342 341 341 341 348 349 347 347 345 345 345 345 344 344 343
315 314 315 316 314 315 315 316 316 316 317 318 319 319 319 319 320 318 318 317 316 317 323 335 346 351 350 350 350 350 350 349 349 348 345 342 344 344 349 348 348 347 347 346 345 345 344 344 343
317 316 316 316 315 314 315 316 317 317 317 319 320 320 319 319 320 320 320 315 316 316 319 324 333 342 349 349 349 349 349 348 347 344 345 344 346 345 345 347 347 345 346 347 346 345 345 343 343
316 316 316 316 315 316 317 318 318 319 316 318 319 319 319 319 320 318 317 315 315 315 317 319 331 337 346 347 348 349 349 349 349 350 349 349 349 349 348 346 345 345 345 346 346 345 345 344 343
316 317 317 317 316 316 317 318 319 318 318 319 318 319 318 318 318 318 318 323 322 325 322 328 340 341 343 346 347 346 346 347 348 347 344 337 333 331 329 330 334 333 339 340 342 344 345 344 344
317 317 317 317 316 316 317 318 319 319 316 317 318 317 317 318 319 321 319 321 326 330 336 339 340 342 345 345 340 341 341 339 334 334 329 326 322 322 322 322 322 327 333 336 339 340 341 343 342
318 316 317 317 318 318 316 317 318 318 319 318 319 319 321 323 322 322 321 320 323 325 326 337 343 345 343 342 339 339 338 334 328 327 327 324 322 323 323 324 324 324 330 329 333 335 339 337 339
316 316 317 318 319 318 317 318 318 316 318 319 319 321 323 324 322 323 322 321 320 322 331 337 340 340 339 341 340 337 329 325 324 324 322 324 324 325 326 325 323 323 327 331 334 336 337 337 337
316 316 315 315 317 319 319 319 318 318 319 318 321 323 323 322 322 322 321 321 319 321 327 334 336 335 338 337 335 330 320 323 324 325 327 328 329 330 326 323 321 321 323 324 328 332 335 335 335
317 319 319 319 319 318 316 317 318 318 318 322 325 324 322 320 320 321 321 323 324 324 327 331 330 329 325 322 320 319 319 318 317 319 325 326 327 328 324 321 319 321 318 318 318 320 325 330 332
318 319 318 319 319 318 317 319 319 321 322 321 321 321 321 320 320 321 322 324 324 326 328 328 327 326 324 321 320 319 318 318 318 317 322 323 324 325 318 319 318 316 314 314 312 316 321 323 325
317 319 318 320 319 320 319 320 320 323 323 323 322 322 321 321 320 321 324 323 326 327 328 327 326 326 326 322 320 319 319 318 319 318 317 319 318 323 319 319 319 317 315 313 311 315 314 320 323
318 317 320 320 323 322 321 322 320 327 325 323 323 323 322 320 320 320 319 323 323 322 322 322 322 323 322 321 321 321 320 319 321 323 323 323 322 319 325 320 319 318 316 315 312 314 313 311 318
321 321 322 322 323 324 324 322 323 325 323 322 320 319 318 318 318 319 320 317 316 317 318 318 318 318 318 317 317 317 318 319 318 319 321 322 322 325 326 326 325 324 321 317 315 312 314 316 315
321 323 325 329 328 325 327 326 320 322 322 322 319 317 317 317 317 317 317 317 317 316 315 315 315 315 314 314 315 315 316 317 318 319 319 320 321 321 321 322 323 323 323 322 321 318 315 316 316

GFSSGP_925_thetae_120.txt.gz
Theta_e
321 319 319 323 332 338 340 340 337 337 336 335 333 347 349 350 354 364 356 350 348 353 356 350 343 343 344 346 348 347 346 346 338 333 335 335 335 335 336 338 343 346 345 335 332 330 326 327 327
319 318 320 327 335 341 339 338 337 337 332 329 341 351 352 356 355 357 355 351 350 354 355 351 341 343 343 346 348 347 347 345 339 335 338 336 336 335 336 338 343 343 335 327 323 325 328 328 329
316 318 324 330 336 341 338 338 337 335 330 332 340 351 352 354 354 350 350 351 350 354 353 352 338 341 342 343 346 347 347 345 343 342 342 338 336 335 336 337 338 333 332 320 323 328 330 330 335
318 321 323 329 337 338 339 339 336 335 329 330 336 351 353 351 350 350 351 350 351 351 352 350 336 339 340 340 343 345 345 345 345 345 342 337 335 334 334 334 333 334 330 321 326 331 331 332 336
317 322 329 333 336 338 337 337 333 335 330 331 341 348 354 354 354 351 350 348 349 350 351 350 335 337 338 336 336 339 342 343 343 342 338 335 333 335 334 333 334 334 328 323 327 333 332 332 334
319 321 330 335 337 335 334 334 333 333 330 328 343 347 354 356 357 352 351 348 347 350 352 350 336 335 336 335 334 333 332 332 333 333 333 333 333 335 334 333 335 333 327 326 329 333 334 333 333
321 320 329 335 337 334 334 332 331 332 331 330 345 346 354 356 358 354 353 349 349 351 351 350 346 340 336 335 334 332 330 328 328 329 331 332 334 333 332 335 335 331 326 326 331 332 334 335 336
322 320 324 327 330 332 329 326 327 327 331 331 339 346 348 357 358 356 355 351 350 350 350 349 346 344 345 343 334 332 329 328 328 328 329 329 331 333 336 336 335 331 326 323 322 326 328 330 330
321 326 328 325 326 328 325 327 325 323 325 331 339 341 347 357 358 356 355 351 348 348 350 348 346 345 344 345 343 335 332 330 330 332 331 334 341 342 344 341 341 330 327 323 321 318 319 321 323
323 328 330 327 323 321 322 321 324 325 325 333 337 346 348 355 356 355 354 351 349 348 349 348 347 346 345 345 347 344 344 341 340 340 342 339 338 340 339 340 334 329 328 326 323 323 320 319 326
320 328 329 329 322 323 323 322 321 323 327 329 335 343 352 354 354 352 350 348 348 347 348 349 350 349 347 345 347 345 346 345 345 346 347 344 344 344 341 341 341 340 337 338 337 336 333 331 330
328 325 325 319 322 323 321 322 321 320 330 325 323 328 353 354 353 350 349 348 347 347 347 349 352 352 349 346 346 347 347 348 349 349 351 349 349 348 347 346 345 346 344 342 341 337 336 336 335
326 323 316 318 321 323 323 323 322 320 321 323 323 322 341 354 352 350 350 350 349 349 349 349 351 353 352 349 347 348 348 348 349 350 351 349 349 349 349 349 349 348 348 347 348 346 345 344 342
322 322 321 321 323 323 325 319 323 322 321 322 322 323 323 341 349 352 352 352 352 352 351 350 351 353 354 353 351 350 350 349 350 350 351 352 351 350 350 350 349 349 348 348 348 347 348 348 347
325 329 330 327 324 325 326 324 320 321 320 322 322 323 322 323 328 334 339 344 345 348 352 352 352 353 355 355 354 354 352 352 351 351 352 352 352 352 351 348 348 348 349 349 348 347 347 347 345
326 323 329 329 328 327 327 329 325 323 320 319 322 323 322 323 323 322 323 326 333 338 344 351 350 352 355 354 354 353 353 353 352 351 351 351 351 350 351 349 350 350 351 350 349 348 347 347 347
319 325 320 318 319 320 325 329 326 324 320 320 321 323 322 323 323 322 322 323 325 332 339 345 350 351 354 355 354 354 354 354 352 351 350 351 350 350 350 350 351 352 351 351 350 349 349 348 347
316 317 317 316 317 315 317 318 318 322 320 321 321 323 324 322 323 322 323 323 323 325 329 335 343 350 353 355 355 354 353 354 353 352 350 350 351 352 353 352 352 352 350 349 349 349 348 347 347
316 316 317 316 316 317 317 316 317 319 320 321 321 322 322 323 323 322 323 324 324 325 328 334 339 345 351 351 351 351 352 352 353 351 349 350 351 352 352 350 350 352 350 350 350 349 348 347 345
317 318 317 318 318 318 318 318 318 320 321 321 321 322 322 323 324 324 323 323 323 325 328 332 338 346 350 349 349 350 352 352 352 349 351 353 353 352 351 350 347 346 341 344 345 346 346 341 343
318 318 318 318 319 318 319 320 320 320 320 321 321 322 323 323 323 324 324 325 327 327 328 331 337 345 350 348 351 351 352 351 351 351 349 346 343 341 338 337 333 335 335 330 335 337 339 337 335
318 318 318 319 319 319 319 319 320 320 321 321 322 322 322 325 326 326 326 326 327 329 330 333 340 347 350 350 349 349 349 349 346 346 341 336 332 332 332 331 331 332 330 331 331 333 335 336 336
318 319 319 318 319 319 320 320 320 321 320 321 321 322 325 326 327 328 329 329 328 327 328 334 341 347 349 350 346 348 347 346 342 338 334 330 332 331 329 330 330 330 328 327 331 331 333 333 332
318 318 318 319 320 322 320 320 319 321 320 320 322 324 326 326 327 328 327 327 329 328 327 331 340 345 347 346 347 347 347 341 335 331 330 328 329 330 330 329 330 328 327 328 327 329 330 331 331
318 320 322 321 320 320 320 321 321 322 321 322 324 325 326 326 327 327 329 330 329 330 329 332 338 343 345 346 345 343 339 334 331 330 327 326 327 328 329 330 329 326 327 325 325 326 326 326 327
319 320 319 321 320 320 320 320 322 322 324 325 325 326 326 325 326 329 330 331 329 329 330 332 337 340 341 341 340 336 333 329 327 328 324 325 324 325 326 330 328 326 325 325 324 322 322 321 323
319 321 320 320 322 322 321 322 323 326 325 325 326 326 326 326 326 326 330 330 331 333 334 334 336 334 331 329 330 331 331 328 325 327 329 325 325 323 326 328 328 327 325 324 324 322 321 322 322
321 320 321 321 323 323 320 322 322 326 327 327 327 326 324 324 324 324 324 327 329 329 329 329 329 330 329 329 328 328 328 328 328 328 329 329 327 328 327 327 329 328 326 325 324 321 320 322 321
321 322 321 322 321 325 325 323 324 326 327 327 325 324 323 323 322 322 323 322 322 324 325 325 324 324 324 323 324 324 324 324 324 324 324 326 327 328 328 328 328 328 327 327 326 324 321 320 322
321 320 322 325 327 325 326 328 326 327 326 326 324 323 322 322 321 321 322 322 323 322 321 321 320 320 319 319 320 321 321 321 323 323 324 324 324 325 325 325 325 326 327 326 327 326 324 321 321